<?xml version='1.0' encoding='UTF-8'?><gpx version="1.1" creator="JPX - https://github.com/jenetics/jpx" xmlns="http://www.topografix.com/GPX/1/1"><trk><trkseg><trkpt lat="45.45460554745522" lon="11.91016295116322"><ele>10.0</ele><time>2026-04-25T09:38:55Z</time></trkpt><trkpt lat="45.454520623567596" lon="11.910152652215636"><ele>10.0</ele><time>2026-04-25T09:38:57Z</time></trkpt><trkpt lat="45.454457182634414" lon="11.91009842572745"><ele>10.0</ele><time>2026-04-25T09:38:59Z</time></trkpt><trkpt lat="45.454381644078964" lon="11.910055606553014"><ele>10.0</ele><time>2026-04-25T09:39:01Z</time></trkpt><trkpt lat="45.45429012462964" lon="11.91001432640799"><ele>10.0</ele><time>2026-04-25T09:39:03Z</time></trkpt><trkpt lat="45.454212170727374" lon="11.909955779801738"><ele>10.0</ele><time>2026-04-25T09:39:05Z</time></trkpt><trkpt lat="45.45412867228972" lon="11.909911873582985"><ele>10.4</ele><time>2026-04-25T09:39:07Z</time></trkpt><trkpt lat="45.4540513853777" lon="11.909867722656312"><ele>10.8</ele><time>2026-04-25T09:39:09Z</time></trkpt><trkpt lat="45.453993576957366" lon="11.909826465099561"><ele>11.2</ele><time>2026-04-25T09:39:11Z</time></trkpt><trkpt lat="45.45382839198216" lon="11.909899881161385"><ele>11.6</ele><time>2026-04-25T09:39:15Z</time></trkpt><trkpt lat="45.453721185696" lon="11.90995244853694"><ele>12.0</ele><time>2026-04-25T09:39:17Z</time></trkpt><trkpt lat="45.45363899222131" lon="11.90986158158022"><ele>12.0</ele><time>2026-04-25T09:39:18Z</time></trkpt><trkpt lat="45.45353280871078" lon="11.909915877380426"><ele>12.0</ele><time>2026-04-25T09:39:20Z</time></trkpt><trkpt lat="45.45342106843013" lon="11.90997598137311"><ele>12.0</ele><time>2026-04-25T09:39:22Z</time></trkpt><trkpt lat="45.45336214288511" lon="11.910010270683252"><ele>12.0</ele><time>2026-04-25T09:39:23Z</time></trkpt><trkpt lat="45.4533032356508" lon="11.910044773491345"><ele>12.0</ele><time>2026-04-25T09:39:24Z</time></trkpt><trkpt lat="45.45319176310359" lon="11.910118227752067"><ele>11.8</ele><time>2026-04-25T09:39:26Z</time></trkpt><trkpt lat="45.45313318231627" lon="11.910168072689174"><ele>11.6</ele><time>2026-04-25T09:39:27Z</time></trkpt><trkpt lat="45.45303762595206" lon="11.910253265299522"><ele>11.4</ele><time>2026-04-25T09:39:29Z</time></trkpt><trkpt lat="45.452944029536944" lon="11.910348283010352"><ele>11.200000000000001</ele><time>2026-04-25T09:39:31Z</time></trkpt><trkpt lat="45.4528506259907" lon="11.910458992041221"><ele>11.0</ele><time>2026-04-25T09:39:33Z</time></trkpt><trkpt lat="45.45276904336346" lon="11.910560970406134"><ele>11.0</ele><time>2026-04-25T09:39:35Z</time></trkpt><trkpt lat="45.452686725033516" lon="11.91067002495505"><ele>11.0</ele><time>2026-04-25T09:39:37Z</time></trkpt><trkpt lat="45.45259950120025" lon="11.910786917338891"><ele>11.0</ele><time>2026-04-25T09:39:39Z</time></trkpt><trkpt lat="45.45251881085467" lon="11.9109013971391"><ele>11.0</ele><time>2026-04-25T09:39:41Z</time></trkpt><trkpt lat="45.45244145655681" lon="11.911023574142275"><ele>11.0</ele><time>2026-04-25T09:39:43Z</time></trkpt><trkpt lat="45.45237351388885" lon="11.911135383972859"><ele>11.0</ele><time>2026-04-25T09:39:45Z</time></trkpt><trkpt lat="45.45231068823462" lon="11.91122424989181"><ele>11.0</ele><time>2026-04-25T09:39:47Z</time></trkpt><trkpt lat="45.4522187860119" lon="11.911254278695171"><ele>11.0</ele><time>2026-04-25T09:39:49Z</time></trkpt><trkpt lat="45.452128761627726" lon="11.911167924789536"><ele>11.0</ele><time>2026-04-25T09:39:51Z</time></trkpt><trkpt lat="45.4520303320992" lon="11.911100301546199"><ele>10.666666666666666</ele><time>2026-04-25T09:39:53Z</time></trkpt><trkpt lat="45.45192092758443" lon="11.911026900319095"><ele>10.333333333333332</ele><time>2026-04-25T09:39:55Z</time></trkpt><trkpt lat="45.45181229501981" lon="11.910954017000751"><ele>10.0</ele><time>2026-04-25T09:39:57Z</time></trkpt><trkpt lat="45.451753543080905" lon="11.910914599400032"><ele>9.666666666666666</ele><time>2026-04-25T09:39:58Z</time></trkpt><trkpt lat="45.451694117453584" lon="11.910874729806459"><ele>9.333333333333334</ele><time>2026-04-25T09:39:59Z</time></trkpt><trkpt lat="45.45163679947966" lon="11.910836274265446"><ele>9.0</ele><time>2026-04-25T09:40:00Z</time></trkpt><trkpt lat="45.451522579228644" lon="11.910759642046495"><ele>9.6</ele><time>2026-04-25T09:40:02Z</time></trkpt><trkpt lat="45.451411259514884" lon="11.910686939451642"><ele>10.2</ele><time>2026-04-25T09:40:04Z</time></trkpt><trkpt lat="45.45135361802126" lon="11.910649095134229"><ele>10.799999999999999</ele><time>2026-04-25T09:40:05Z</time></trkpt><trkpt lat="45.45123995553535" lon="11.910574470427921"><ele>11.4</ele><time>2026-04-25T09:40:07Z</time></trkpt><trkpt lat="45.45112559298946" lon="11.910500001479765"><ele>12.0</ele><time>2026-04-25T09:40:09Z</time></trkpt><trkpt lat="45.45106622141983" lon="11.910461385690024"><ele>12.0</ele><time>2026-04-25T09:40:10Z</time></trkpt><trkpt lat="45.450955537047676" lon="11.910389395602845"><ele>12.0</ele><time>2026-04-25T09:40:12Z</time></trkpt><trkpt lat="45.450893563446215" lon="11.910369175243634"><ele>12.0</ele><time>2026-04-25T09:40:13Z</time></trkpt><trkpt lat="45.450786672344805" lon="11.910281431705227"><ele>12.0</ele><time>2026-04-25T09:40:15Z</time></trkpt><trkpt lat="45.45072743848345" lon="11.910241282256893"><ele>12.0</ele><time>2026-04-25T09:40:16Z</time></trkpt><trkpt lat="45.4506083673084" lon="11.910164093771662"><ele>11.999999999999998</ele><time>2026-04-25T09:40:18Z</time></trkpt><trkpt lat="45.450547731269545" lon="11.91012291835702"><ele>12.0</ele><time>2026-04-25T09:40:19Z</time></trkpt><trkpt lat="45.45048994045946" lon="11.91008381503455"><ele>12.0</ele><time>2026-04-25T09:40:20Z</time></trkpt><trkpt lat="45.45042705912373" lon="11.91005022595926"><ele>12.0</ele><time>2026-04-25T09:40:21Z</time></trkpt><trkpt lat="45.45036309728645" lon="11.910014712772838"><ele>12.0</ele><time>2026-04-25T09:40:22Z</time></trkpt><trkpt lat="45.450302124829854" lon="11.90997435663636"><ele>11.999999999999998</ele><time>2026-04-25T09:40:23Z</time></trkpt><trkpt lat="45.450239948711655" lon="11.909933640032325"><ele>12.0</ele><time>2026-04-25T09:40:24Z</time></trkpt><trkpt lat="45.45017437800659" lon="11.909907531973605"><ele>12.166666666666666</ele><time>2026-04-25T09:40:25Z</time></trkpt><trkpt lat="45.45010864992667" lon="11.909879218448612"><ele>12.333333333333332</ele><time>2026-04-25T09:40:26Z</time></trkpt><trkpt lat="45.45004944534065" lon="11.909832983827192"><ele>12.5</ele><time>2026-04-25T09:40:27Z</time></trkpt><trkpt lat="45.449988070576126" lon="11.909796099463742"><ele>12.666666666666666</ele><time>2026-04-25T09:40:28Z</time></trkpt><trkpt lat="45.449929358757664" lon="11.909757400112104"><ele>12.833333333333332</ele><time>2026-04-25T09:40:29Z</time></trkpt><trkpt lat="45.44983534012728" lon="11.909691874447626"><ele>13.0</ele><time>2026-04-25T09:40:31Z</time></trkpt><trkpt lat="45.44975278988931" lon="11.90968379649735"><ele>12.999999999999998</ele><time>2026-04-25T09:40:33Z</time></trkpt><trkpt lat="45.44974560671939" lon="11.90982531599382"><ele>13.0</ele><time>2026-04-25T09:40:34Z</time></trkpt><trkpt lat="45.4497114492155" lon="11.909903838908306"><ele>13.0</ele><time>2026-04-25T09:40:35Z</time></trkpt><trkpt lat="45.44967678336338" lon="11.910072299759792"><ele>13.0</ele><time>2026-04-25T09:40:37Z</time></trkpt><trkpt lat="45.44965296525016" lon="11.910158627083385"><ele>12.999999999999998</ele><time>2026-04-25T09:40:38Z</time></trkpt><trkpt lat="45.44962974713301" lon="11.910245922103442"><ele>13.0</ele><time>2026-04-25T09:40:39Z</time></trkpt><trkpt lat="45.449606256799356" lon="11.910334697983965"><ele>12.499999999999998</ele><time>2026-04-25T09:40:40Z</time></trkpt><trkpt lat="45.449579483394466" lon="11.910421104135139"><ele>12.0</ele><time>2026-04-25T09:40:41Z</time></trkpt><trkpt lat="45.44955535986513" lon="11.910509794308156"><ele>11.5</ele><time>2026-04-25T09:40:42Z</time></trkpt><trkpt lat="45.449533869756834" lon="11.910598239721766"><ele>11.0</ele><time>2026-04-25T09:40:43Z</time></trkpt><trkpt lat="45.4494897995157" lon="11.91076886409532"><ele>10.5</ele><time>2026-04-25T09:40:45Z</time></trkpt><trkpt lat="45.4494676297548" lon="11.910857979467494"><ele>10.0</ele><time>2026-04-25T09:40:46Z</time></trkpt><trkpt lat="45.4494470330221" lon="11.91094532331317"><ele>10.0</ele><time>2026-04-25T09:40:47Z</time></trkpt><trkpt lat="45.449431985355176" lon="11.911036526469077"><ele>10.0</ele><time>2026-04-25T09:40:48Z</time></trkpt><trkpt lat="45.449415562715004" lon="11.911124130179351"><ele>10.0</ele><time>2026-04-25T09:40:49Z</time></trkpt><trkpt lat="45.449380755067246" lon="11.911271526277549"><ele>10.0</ele><time>2026-04-25T09:40:51Z</time></trkpt><trkpt lat="45.44933261156329" lon="11.91135304950093"><ele>10.0</ele><time>2026-04-25T09:40:53Z</time></trkpt><trkpt lat="45.44928511297205" lon="11.911233480318703"><ele>10.0</ele><time>2026-04-25T09:40:56Z</time></trkpt><trkpt lat="45.44921721852562" lon="11.911188532378631"><ele>10.0</ele><time>2026-04-25T09:40:58Z</time></trkpt><trkpt lat="45.44912055785141" lon="11.911124540417148"><ele>10.0</ele><time>2026-04-25T09:41:00Z</time></trkpt><trkpt lat="45.44903143094283" lon="11.911065536009632"><ele>10.0</ele><time>2026-04-25T09:41:02Z</time></trkpt><trkpt lat="45.448954907814226" lon="11.91114725154882"><ele>10.0</ele><time>2026-04-25T09:41:03Z</time></trkpt><trkpt lat="45.448859287322385" lon="11.911097319370649"><ele>10.0</ele><time>2026-04-25T09:41:05Z</time></trkpt><trkpt lat="45.44876355311952" lon="11.911041987061239"><ele>10.4</ele><time>2026-04-25T09:41:07Z</time></trkpt><trkpt lat="45.448680443582525" lon="11.910978545146293"><ele>10.8</ele><time>2026-04-25T09:41:09Z</time></trkpt><trkpt lat="45.44864588318759" lon="11.91085058118622"><ele>11.2</ele><time>2026-04-25T09:41:11Z</time></trkpt><trkpt lat="45.4486122186961" lon="11.91075417686287"><ele>11.6</ele><time>2026-04-25T09:41:13Z</time></trkpt><trkpt lat="45.44850919874473" lon="11.910772013800939"><ele>12.0</ele><time>2026-04-25T09:41:15Z</time></trkpt><trkpt lat="45.44842766094958" lon="11.910716143168415"><ele>12.2</ele><time>2026-04-25T09:41:17Z</time></trkpt><trkpt lat="45.448339678778574" lon="11.910654952619748"><ele>12.399999999999999</ele><time>2026-04-25T09:41:19Z</time></trkpt><trkpt lat="45.448242185735786" lon="11.91058995645336"><ele>12.600000000000001</ele><time>2026-04-25T09:41:21Z</time></trkpt><trkpt lat="45.44814489227592" lon="11.910527992689763"><ele>12.8</ele><time>2026-04-25T09:41:23Z</time></trkpt><trkpt lat="45.44805891941261" lon="11.910473871575034"><ele>13.0</ele><time>2026-04-25T09:41:25Z</time></trkpt><trkpt lat="45.44796653123359" lon="11.910657574150003"><ele>12.75</ele><time>2026-04-25T09:41:27Z</time></trkpt><trkpt lat="45.44794299191445" lon="11.910834969483847"><ele>12.5</ele><time>2026-04-25T09:41:29Z</time></trkpt><trkpt lat="45.447889163994255" lon="11.910993061038694"><ele>12.25</ele><time>2026-04-25T09:41:31Z</time></trkpt><trkpt lat="45.44782978788846" lon="11.9111446645887"><ele>12.0</ele><time>2026-04-25T09:41:33Z</time></trkpt><trkpt lat="45.44777561739903" lon="11.91129809321193"><ele>12.0</ele><time>2026-04-25T09:41:35Z</time></trkpt><trkpt lat="45.447759847287834" lon="11.911385113581646"><ele>12.0</ele><time>2026-04-25T09:41:36Z</time></trkpt><trkpt lat="45.44769611528296" lon="11.911519929665209"><ele>12.0</ele><time>2026-04-25T09:41:38Z</time></trkpt><trkpt lat="45.447625026153425" lon="11.911538351834624"><ele>12.0</ele><time>2026-04-25T09:41:39Z</time></trkpt><trkpt lat="45.44755613193663" lon="11.911541468511151"><ele>12.0</ele><time>2026-04-25T09:41:40Z</time></trkpt><trkpt lat="45.4474878911231" lon="11.911546959411226"><ele>12.0</ele><time>2026-04-25T09:41:41Z</time></trkpt><trkpt lat="45.44736070352881" lon="11.911513821018367"><ele>11.999999999999998</ele><time>2026-04-25T09:41:43Z</time></trkpt><trkpt lat="45.447297110023186" lon="11.911509358973852"><ele>12.0</ele><time>2026-04-25T09:41:44Z</time></trkpt><trkpt lat="45.44723013585094" lon="11.911514320658526"><ele>12.0</ele><time>2026-04-25T09:41:45Z</time></trkpt><trkpt lat="45.44715625087775" lon="11.91151557189105"><ele>12.0</ele><time>2026-04-25T09:41:46Z</time></trkpt><trkpt lat="45.44708691800089" lon="11.91151092267493"><ele>12.0</ele><time>2026-04-25T09:41:47Z</time></trkpt><trkpt lat="45.44701924027039" lon="11.911514144673694"><ele>11.999999999999998</ele><time>2026-04-25T09:41:48Z</time></trkpt><trkpt lat="45.44695081856632" lon="11.91151313849113"><ele>12.0</ele><time>2026-04-25T09:41:49Z</time></trkpt><trkpt lat="45.446883464845804" lon="11.911518088319873"><ele>12.399999999999999</ele><time>2026-04-25T09:41:50Z</time></trkpt><trkpt lat="45.44681330008825" lon="11.9115188565785"><ele>12.799999999999999</ele><time>2026-04-25T09:41:51Z</time></trkpt><trkpt lat="45.4467518472425" lon="11.911463651803308"><ele>13.2</ele><time>2026-04-25T09:41:52Z</time></trkpt><trkpt lat="45.446643653931424" lon="11.911446845264157"><ele>13.6</ele><time>2026-04-25T09:41:54Z</time></trkpt><trkpt lat="45.446644829434184" lon="11.911281740137058"><ele>14.0</ele><time>2026-04-25T09:41:56Z</time></trkpt><trkpt lat="45.44667533566563" lon="11.91116889563508"><ele>14.0</ele><time>2026-04-25T09:41:59Z</time></trkpt><trkpt lat="45.446676924093445" lon="11.911071618099816"><ele>13.999999999999998</ele><time>2026-04-25T09:42:01Z</time></trkpt><trkpt lat="45.44659273271232" lon="11.911050172237802"><ele>13.999999999999998</ele><time>2026-04-25T09:42:02Z</time></trkpt><trkpt lat="45.446484370952255" lon="11.911015696572305"><ele>14.0</ele><time>2026-04-25T09:42:04Z</time></trkpt><trkpt lat="45.44636825275917" lon="11.910977357539796"><ele>14.0</ele><time>2026-04-25T09:42:06Z</time></trkpt><trkpt lat="45.446265371883214" lon="11.910813726397123"><ele>13.666666666666668</ele><time>2026-04-25T09:42:08Z</time></trkpt><trkpt lat="45.446139528675346" lon="11.910803174413813"><ele>13.333333333333334</ele><time>2026-04-25T09:42:10Z</time></trkpt><trkpt lat="45.44601532069924" lon="11.910784178575865"><ele>13.0</ele><time>2026-04-25T09:42:12Z</time></trkpt><trkpt lat="45.44595198181807" lon="11.910773010740249"><ele>12.666666666666668</ele><time>2026-04-25T09:42:13Z</time></trkpt><trkpt lat="45.44588600218927" lon="11.910761288976701"><ele>12.333333333333334</ele><time>2026-04-25T09:42:14Z</time></trkpt><trkpt lat="45.44582015794698" lon="11.910749591263729"><ele>12.0</ele><time>2026-04-25T09:42:15Z</time></trkpt><trkpt lat="45.445755617284775" lon="11.910738125141771"><ele>11.999999999999998</ele><time>2026-04-25T09:42:16Z</time></trkpt><trkpt lat="45.44568984024897" lon="11.91072643936912"><ele>12.0</ele><time>2026-04-25T09:42:17Z</time></trkpt><trkpt lat="45.44561979186712" lon="11.910713994698748"><ele>12.0</ele><time>2026-04-25T09:42:18Z</time></trkpt><trkpt lat="45.445555495004314" lon="11.910702313997524"><ele>12.0</ele><time>2026-04-25T09:42:19Z</time></trkpt><trkpt lat="45.445483188415224" lon="11.910689774102286"><ele>12.0</ele><time>2026-04-25T09:42:20Z</time></trkpt><trkpt lat="45.44541481641683" lon="11.910678323722534"><ele>11.999999999999998</ele><time>2026-04-25T09:42:21Z</time></trkpt><trkpt lat="45.44534481405675" lon="11.910666600301253"><ele>12.0</ele><time>2026-04-25T09:42:22Z</time></trkpt><trkpt lat="45.4452745487337" lon="11.910654832840002"><ele>11.833333333333334</ele><time>2026-04-25T09:42:23Z</time></trkpt><trkpt lat="45.4452044119618" lon="11.91064548625943"><ele>11.666666666666666</ele><time>2026-04-25T09:42:24Z</time></trkpt><trkpt lat="45.445128629078276" lon="11.91064485153657"><ele>11.5</ele><time>2026-04-25T09:42:25Z</time></trkpt><trkpt lat="45.44505255820774" lon="11.91065132480898"><ele>11.333333333333332</ele><time>2026-04-25T09:42:26Z</time></trkpt><trkpt lat="45.444979977930345" lon="11.910661465946962"><ele>11.166666666666666</ele><time>2026-04-25T09:42:27Z</time></trkpt><trkpt lat="45.44489890217871" lon="11.91068785346974"><ele>11.0</ele><time>2026-04-25T09:42:28Z</time></trkpt><trkpt lat="45.44482882552068" lon="11.910716853438917"><ele>11.0</ele><time>2026-04-25T09:42:29Z</time></trkpt><trkpt lat="45.44475687228594" lon="11.910760407145235"><ele>11.0</ele><time>2026-04-25T09:42:30Z</time></trkpt><trkpt lat="45.4446913143657" lon="11.910797388750732"><ele>11.0</ele><time>2026-04-25T09:42:31Z</time></trkpt><trkpt lat="45.44461537499824" lon="11.910887001392679"><ele>11.0</ele><time>2026-04-25T09:42:32Z</time></trkpt><trkpt lat="45.44456058894589" lon="11.910968173165585"><ele>11.0</ele><time>2026-04-25T09:42:33Z</time></trkpt><trkpt lat="45.44451437401366" lon="11.911038824760691"><ele>11.0</ele><time>2026-04-25T09:42:34Z</time></trkpt><trkpt lat="45.44446497504438" lon="11.911118397907323"><ele>11.0</ele><time>2026-04-25T09:42:35Z</time></trkpt><trkpt lat="45.44441614029973" lon="11.911203037183046"><ele>11.0</ele><time>2026-04-25T09:42:36Z</time></trkpt><trkpt lat="45.44437248609678" lon="11.911284519931145"><ele>11.0</ele><time>2026-04-25T09:42:37Z</time></trkpt><trkpt lat="45.444330784169345" lon="11.911362410023122"><ele>11.0</ele><time>2026-04-25T09:42:38Z</time></trkpt><trkpt lat="45.44428899221013" lon="11.911440468282008"><ele>11.0</ele><time>2026-04-25T09:42:39Z</time></trkpt><trkpt lat="45.44424494177371" lon="11.911522744876569"><ele>11.0</ele><time>2026-04-25T09:42:40Z</time></trkpt><trkpt lat="45.444204454035074" lon="11.911598367445814"><ele>11.0</ele><time>2026-04-25T09:42:41Z</time></trkpt><trkpt lat="45.444161024463085" lon="11.911679345395793"><ele>11.142857142857142</ele><time>2026-04-25T09:42:42Z</time></trkpt><trkpt lat="45.444118663749464" lon="11.911758381061203"><ele>11.285714285714285</ele><time>2026-04-25T09:42:43Z</time></trkpt><trkpt lat="45.444075207184284" lon="11.911839461362606"><ele>11.428571428571427</ele><time>2026-04-25T09:42:44Z</time></trkpt><trkpt lat="45.44403431778395" lon="11.911915751896489"><ele>11.571428571428571</ele><time>2026-04-25T09:42:45Z</time></trkpt><trkpt lat="45.44398896175894" lon="11.912001451727573"><ele>11.714285714285714</ele><time>2026-04-25T09:42:46Z</time></trkpt><trkpt lat="45.44394774330323" lon="11.912081090982417"><ele>11.857142857142856</ele><time>2026-04-25T09:42:47Z</time></trkpt><trkpt lat="45.4439067876959" lon="11.912160223469913"><ele>12.0</ele><time>2026-04-25T09:42:48Z</time></trkpt><trkpt lat="45.443865396110276" lon="11.912240022589012"><ele>11.999999999999998</ele><time>2026-04-25T09:42:49Z</time></trkpt><trkpt lat="45.44382260916802" lon="11.912321642128752"><ele>12.0</ele><time>2026-04-25T09:42:50Z</time></trkpt><trkpt lat="45.44377917740282" lon="11.912404491698972"><ele>12.0</ele><time>2026-04-25T09:42:51Z</time></trkpt><trkpt lat="45.44374028434719" lon="11.912478683286269"><ele>12.0</ele><time>2026-04-25T09:42:52Z</time></trkpt><trkpt lat="45.4436908970391" lon="11.91257292150351"><ele>12.0</ele><time>2026-04-25T09:42:53Z</time></trkpt><trkpt lat="45.443647798819455" lon="11.912656420320562"><ele>11.999999999999998</ele><time>2026-04-25T09:42:54Z</time></trkpt><trkpt lat="45.44360834420663" lon="11.912732860372122"><ele>12.0</ele><time>2026-04-25T09:42:55Z</time></trkpt><trkpt lat="45.44356921176732" lon="11.91280867622678"><ele>11.857142857142856</ele><time>2026-04-25T09:42:56Z</time></trkpt><trkpt lat="45.4435287104733" lon="11.912887144136718"><ele>11.714285714285714</ele><time>2026-04-25T09:42:57Z</time></trkpt><trkpt lat="45.44348217468536" lon="11.912977303374614"><ele>11.571428571428571</ele><time>2026-04-25T09:42:58Z</time></trkpt><trkpt lat="45.44343948248204" lon="11.913060015987423"><ele>11.428571428571427</ele><time>2026-04-25T09:42:59Z</time></trkpt><trkpt lat="45.44339696342755" lon="11.91314239314221"><ele>11.285714285714285</ele><time>2026-04-25T09:43:00Z</time></trkpt><trkpt lat="45.44335666160459" lon="11.913220474597368"><ele>11.142857142857142</ele><time>2026-04-25T09:43:01Z</time></trkpt><trkpt lat="45.44331389382664" lon="11.913303333626702"><ele>11.0</ele><time>2026-04-25T09:43:02Z</time></trkpt><trkpt lat="45.443270330214425" lon="11.913387734525458"><ele>10.857142857142858</ele><time>2026-04-25T09:43:03Z</time></trkpt><trkpt lat="45.443228515277035" lon="11.913468747499332"><ele>10.714285714285714</ele><time>2026-04-25T09:43:04Z</time></trkpt><trkpt lat="45.44318682253185" lon="11.91354952374111"><ele>10.571428571428571</ele><time>2026-04-25T09:43:05Z</time></trkpt><trkpt lat="45.44314409221566" lon="11.913632310444978"><ele>10.428571428571429</ele><time>2026-04-25T09:43:06Z</time></trkpt><trkpt lat="45.44310184881613" lon="11.913713259748"><ele>10.285714285714286</ele><time>2026-04-25T09:43:07Z</time></trkpt><trkpt lat="45.443058807695415" lon="11.913796018346057"><ele>10.142857142857142</ele><time>2026-04-25T09:43:08Z</time></trkpt><trkpt lat="45.443015717167455" lon="11.91387887195176"><ele>10.0</ele><time>2026-04-25T09:43:09Z</time></trkpt><trkpt lat="45.44297287302054" lon="11.913961251813783"><ele>10.0</ele><time>2026-04-25T09:43:10Z</time></trkpt><trkpt lat="45.44293323361915" lon="11.914037469663237"><ele>10.0</ele><time>2026-04-25T09:43:11Z</time></trkpt><trkpt lat="45.44289244447081" lon="11.914115898217378"><ele>10.0</ele><time>2026-04-25T09:43:12Z</time></trkpt><trkpt lat="45.44285126092788" lon="11.914195085111777"><ele>10.0</ele><time>2026-04-25T09:43:13Z</time></trkpt><trkpt lat="45.4428103688349" lon="11.914273711607219"><ele>10.0</ele><time>2026-04-25T09:43:14Z</time></trkpt><trkpt lat="45.44277277781351" lon="11.914345990865522"><ele>10.0</ele><time>2026-04-25T09:43:15Z</time></trkpt><trkpt lat="45.4427339195224" lon="11.91442070680881"><ele>10.0</ele><time>2026-04-25T09:43:16Z</time></trkpt><trkpt lat="45.44269061036829" lon="11.9145039807775"><ele>10.0</ele><time>2026-04-25T09:43:17Z</time></trkpt><trkpt lat="45.44265083039733" lon="11.91458046891981"><ele>10.0</ele><time>2026-04-25T09:43:18Z</time></trkpt><trkpt lat="45.4426114710134" lon="11.914656148347627"><ele>10.0</ele><time>2026-04-25T09:43:19Z</time></trkpt><trkpt lat="45.442571508862564" lon="11.914732986764006"><ele>10.0</ele><time>2026-04-25T09:43:20Z</time></trkpt><trkpt lat="45.44253238364122" lon="11.914808216408732"><ele>10.0</ele><time>2026-04-25T09:43:21Z</time></trkpt><trkpt lat="45.4424938293512" lon="11.91487981442817"><ele>10.0</ele><time>2026-04-25T09:43:22Z</time></trkpt><trkpt lat="45.442455166442606" lon="11.91495282097109"><ele>10.0</ele><time>2026-04-25T09:43:23Z</time></trkpt><trkpt lat="45.44241597228887" lon="11.915026830638423"><ele>10.2</ele><time>2026-04-25T09:43:24Z</time></trkpt><trkpt lat="45.44234333714378" lon="11.915163986446428"><ele>10.4</ele><time>2026-04-25T09:43:26Z</time></trkpt><trkpt lat="45.442289111628945" lon="11.915264763730304"><ele>10.600000000000001</ele><time>2026-04-25T09:43:28Z</time></trkpt><trkpt lat="45.44224138081241" lon="11.915354510753708"><ele>10.8</ele><time>2026-04-25T09:43:31Z</time></trkpt><trkpt lat="45.44217459685382" lon="11.91547648903543"><ele>11.0</ele><time>2026-04-25T09:43:33Z</time></trkpt><trkpt lat="45.44210467080147" lon="11.915604516643096"><ele>11.0</ele><time>2026-04-25T09:43:35Z</time></trkpt><trkpt lat="45.4420326733523" lon="11.915736336748415"><ele>11.0</ele><time>2026-04-25T09:43:37Z</time></trkpt><trkpt lat="45.441957908369304" lon="11.915873223953739"><ele>11.0</ele><time>2026-04-25T09:43:39Z</time></trkpt><trkpt lat="45.441918479435024" lon="11.915945414812365"><ele>11.0</ele><time>2026-04-25T09:43:40Z</time></trkpt><trkpt lat="45.44185136018064" lon="11.9160680975053"><ele>11.0</ele><time>2026-04-25T09:43:42Z</time></trkpt><trkpt lat="45.44179146138078" lon="11.916177244601862"><ele>10.8</ele><time>2026-04-25T09:43:44Z</time></trkpt><trkpt lat="45.44172146846256" lon="11.916302905466829"><ele>10.600000000000001</ele><time>2026-04-25T09:43:46Z</time></trkpt><trkpt lat="45.44164842214807" lon="11.916434267703462"><ele>10.4</ele><time>2026-04-25T09:43:48Z</time></trkpt><trkpt lat="45.44158680496794" lon="11.91654523618953"><ele>10.2</ele><time>2026-04-25T09:43:50Z</time></trkpt><trkpt lat="45.44151962931302" lon="11.916666215107304"><ele>10.0</ele><time>2026-04-25T09:43:52Z</time></trkpt><trkpt lat="45.441478971388285" lon="11.916739401708796"><ele>10.0</ele><time>2026-04-25T09:43:53Z</time></trkpt><trkpt lat="45.44139261008793" lon="11.916893528409416"><ele>10.0</ele><time>2026-04-25T09:43:55Z</time></trkpt><trkpt lat="45.441350705071756" lon="11.916968315162034"><ele>10.0</ele><time>2026-04-25T09:43:56Z</time></trkpt><trkpt lat="45.441311094017344" lon="11.917039007955776"><ele>10.0</ele><time>2026-04-25T09:43:57Z</time></trkpt><trkpt lat="45.44126935049704" lon="11.917113597867768"><ele>10.0</ele><time>2026-04-25T09:43:58Z</time></trkpt><trkpt lat="45.441189668170104" lon="11.917256997359456"><ele>10.333333333333334</ele><time>2026-04-25T09:44:00Z</time></trkpt><trkpt lat="45.44111215220517" lon="11.917396498165559"><ele>10.666666666666668</ele><time>2026-04-25T09:44:02Z</time></trkpt><trkpt lat="45.441068948932276" lon="11.917474248483968"><ele>11.0</ele><time>2026-04-25T09:44:03Z</time></trkpt><trkpt lat="45.44102823347559" lon="11.917549088034551"><ele>11.333333333333334</ele><time>2026-04-25T09:44:04Z</time></trkpt><trkpt lat="45.440988904266376" lon="11.917622329075705"><ele>11.666666666666666</ele><time>2026-04-25T09:44:05Z</time></trkpt><trkpt lat="45.44094816020703" lon="11.917699015970918"><ele>12.0</ele><time>2026-04-25T09:44:06Z</time></trkpt><trkpt lat="45.440909233389775" lon="11.917773988868934"><ele>12.0</ele><time>2026-04-25T09:44:07Z</time></trkpt><trkpt lat="45.44086988411027" lon="11.917849775437826"><ele>12.0</ele><time>2026-04-25T09:44:08Z</time></trkpt><trkpt lat="45.440830686732454" lon="11.917925269439264"><ele>12.0</ele><time>2026-04-25T09:44:09Z</time></trkpt><trkpt lat="45.440791757682184" lon="11.917999858326262"><ele>12.0</ele><time>2026-04-25T09:44:10Z</time></trkpt><trkpt lat="45.44075168718997" lon="11.91807561814509"><ele>12.0</ele><time>2026-04-25T09:44:11Z</time></trkpt><trkpt lat="45.44071198643227" lon="11.918150678906688"><ele>12.0</ele><time>2026-04-25T09:44:12Z</time></trkpt><trkpt lat="45.44063674278701" lon="11.918292939315114"><ele>11.999999999999998</ele><time>2026-04-25T09:44:14Z</time></trkpt><trkpt lat="45.440596728369115" lon="11.918368593106678"><ele>12.0</ele><time>2026-04-25T09:44:15Z</time></trkpt><trkpt lat="45.440556076427725" lon="11.91844545225874"><ele>12.0</ele><time>2026-04-25T09:44:16Z</time></trkpt><trkpt lat="45.44051568401773" lon="11.918521820703026"><ele>12.0</ele><time>2026-04-25T09:44:17Z</time></trkpt><trkpt lat="45.44047291017989" lon="11.918602890198867"><ele>12.0</ele><time>2026-04-25T09:44:18Z</time></trkpt><trkpt lat="45.4404342277148" lon="11.918677844303042"><ele>11.999999999999998</ele><time>2026-04-25T09:44:19Z</time></trkpt><trkpt lat="45.440394501485905" lon="11.918754820910253"><ele>12.0</ele><time>2026-04-25T09:44:20Z</time></trkpt><trkpt lat="45.44035406462232" lon="11.918833174489645"><ele>11.833333333333334</ele><time>2026-04-25T09:44:21Z</time></trkpt><trkpt lat="45.44031481938317" lon="11.918909784416455"><ele>11.666666666666666</ele><time>2026-04-25T09:44:22Z</time></trkpt><trkpt lat="45.44027478207689" lon="11.91898844038628"><ele>11.5</ele><time>2026-04-25T09:44:23Z</time></trkpt><trkpt lat="45.44023598288703" lon="11.919064663988552"><ele>11.333333333333332</ele><time>2026-04-25T09:44:24Z</time></trkpt><trkpt lat="45.44015740460406" lon="11.91921714346239"><ele>11.166666666666666</ele><time>2026-04-25T09:44:26Z</time></trkpt><trkpt lat="45.440117627769865" lon="11.919293824352637"><ele>11.0</ele><time>2026-04-25T09:44:27Z</time></trkpt><trkpt lat="45.44007687722587" lon="11.919372382322955"><ele>11.0</ele><time>2026-04-25T09:44:28Z</time></trkpt><trkpt lat="45.44003480421561" lon="11.919452510742925"><ele>11.0</ele><time>2026-04-25T09:44:29Z</time></trkpt><trkpt lat="45.439991006710294" lon="11.919535519752671"><ele>11.0</ele><time>2026-04-25T09:44:30Z</time></trkpt><trkpt lat="45.439950840189844" lon="11.919611646958868"><ele>11.0</ele><time>2026-04-25T09:44:31Z</time></trkpt><trkpt lat="45.439911358976325" lon="11.919686475331453"><ele>11.0</ele><time>2026-04-25T09:44:32Z</time></trkpt><trkpt lat="45.43987315071674" lon="11.919758891092888"><ele>11.0</ele><time>2026-04-25T09:44:33Z</time></trkpt><trkpt lat="45.4398330077834" lon="11.919834974036597"><ele>11.0</ele><time>2026-04-25T09:44:34Z</time></trkpt><trkpt lat="45.439790208535044" lon="11.919912841951348"><ele>11.0</ele><time>2026-04-25T09:44:35Z</time></trkpt><trkpt lat="45.43974844835929" lon="11.919990186201613"><ele>11.0</ele><time>2026-04-25T09:44:36Z</time></trkpt><trkpt lat="45.4397081092663" lon="11.920064898462673"><ele>11.0</ele><time>2026-04-25T09:44:37Z</time></trkpt><trkpt lat="45.439666273584024" lon="11.920142382581897"><ele>11.0</ele><time>2026-04-25T09:44:38Z</time></trkpt><trkpt lat="45.43962469461399" lon="11.920219148780875"><ele>11.0</ele><time>2026-04-25T09:44:39Z</time></trkpt><trkpt lat="45.43958263104871" lon="11.92029677635796"><ele>11.0</ele><time>2026-04-25T09:44:40Z</time></trkpt><trkpt lat="45.43954230384631" lon="11.920371199501332"><ele>11.0</ele><time>2026-04-25T09:44:41Z</time></trkpt><trkpt lat="45.439462864171226" lon="11.920517804108012"><ele>10.833333333333332</ele><time>2026-04-25T09:44:43Z</time></trkpt><trkpt lat="45.439421679946285" lon="11.920594627753744"><ele>10.666666666666666</ele><time>2026-04-25T09:44:44Z</time></trkpt><trkpt lat="45.439381847297646" lon="11.920668813924513"><ele>10.5</ele><time>2026-04-25T09:44:45Z</time></trkpt><trkpt lat="45.43934344362978" lon="11.920740210082775"><ele>10.333333333333334</ele><time>2026-04-25T09:44:46Z</time></trkpt><trkpt lat="45.43927212197075" lon="11.92087280397202"><ele>10.166666666666668</ele><time>2026-04-25T09:44:48Z</time></trkpt><trkpt lat="45.43921105954553" lon="11.920986326170851"><ele>10.0</ele><time>2026-04-25T09:44:50Z</time></trkpt><trkpt lat="45.43917057691811" lon="11.921061586797364"><ele>10.4</ele><time>2026-04-25T09:44:52Z</time></trkpt><trkpt lat="45.43910233373161" lon="11.921192326974682"><ele>10.8</ele><time>2026-04-25T09:44:54Z</time></trkpt><trkpt lat="45.43903157475799" lon="11.921327711173353"><ele>11.2</ele><time>2026-04-25T09:44:56Z</time></trkpt><trkpt lat="45.43896037068191" lon="11.921469204229398"><ele>11.6</ele><time>2026-04-25T09:44:58Z</time></trkpt><trkpt lat="45.43892446436505" lon="11.921546493224962"><ele>12.0</ele><time>2026-04-25T09:44:59Z</time></trkpt><trkpt lat="45.43885868551522" lon="11.921703627954656"><ele>12.2</ele><time>2026-04-25T09:45:01Z</time></trkpt><trkpt lat="45.4388056073392" lon="11.921861230600612"><ele>12.399999999999999</ele><time>2026-04-25T09:45:03Z</time></trkpt><trkpt lat="45.438780160887994" lon="11.921949347737874"><ele>12.600000000000001</ele><time>2026-04-25T09:45:04Z</time></trkpt><trkpt lat="45.43873775551908" lon="11.922114380521876"><ele>12.8</ele><time>2026-04-25T09:45:06Z</time></trkpt><trkpt lat="45.43871835658763" lon="11.922199847232708"><ele>13.0</ele><time>2026-04-25T09:45:07Z</time></trkpt><trkpt lat="45.43868285075365" lon="11.922364741626085"><ele>13.0</ele><time>2026-04-25T09:45:09Z</time></trkpt><trkpt lat="45.43865143847125" lon="11.922526899578154"><ele>13.0</ele><time>2026-04-25T09:45:11Z</time></trkpt><trkpt lat="45.43863421294047" lon="11.922615821753828"><ele>13.0</ele><time>2026-04-25T09:45:12Z</time></trkpt><trkpt lat="45.43860437363472" lon="11.92276660620174"><ele>13.0</ele><time>2026-04-25T09:45:14Z</time></trkpt><trkpt lat="45.43857506777627" lon="11.922911576674867"><ele>13.0</ele><time>2026-04-25T09:45:16Z</time></trkpt><trkpt lat="45.43855735468011" lon="11.92299934232024"><ele>13.0</ele><time>2026-04-25T09:45:17Z</time></trkpt><trkpt lat="45.43852410980271" lon="11.923164622570082"><ele>13.0</ele><time>2026-04-25T09:45:19Z</time></trkpt><trkpt lat="45.438494209364045" lon="11.923313275724952"><ele>13.0</ele><time>2026-04-25T09:45:21Z</time></trkpt><trkpt lat="45.43846735682553" lon="11.92346236463763"><ele>13.0</ele><time>2026-04-25T09:45:23Z</time></trkpt><trkpt lat="45.438447013510036" lon="11.923574523271864"><ele>13.0</ele><time>2026-04-25T09:45:25Z</time></trkpt><trkpt lat="45.43844259983979" lon="11.923669572046718"><ele>13.0</ele><time>2026-04-25T09:45:27Z</time></trkpt><trkpt lat="45.438430912133164" lon="11.923852998718843"><ele>13.0</ele><time>2026-04-25T09:45:30Z</time></trkpt><trkpt lat="45.438363353992074" lon="11.92397786974236"><ele>13.0</ele><time>2026-04-25T09:45:32Z</time></trkpt><trkpt lat="45.438339211399" lon="11.924062056839963"><ele>13.0</ele><time>2026-04-25T09:45:33Z</time></trkpt><trkpt lat="45.438322688726714" lon="11.924149066231168"><ele>13.0</ele><time>2026-04-25T09:45:34Z</time></trkpt><trkpt lat="45.438273241452976" lon="11.92430542604248"><ele>13.0</ele><time>2026-04-25T09:45:36Z</time></trkpt><trkpt lat="45.43824805179956" lon="11.924388013054681"><ele>13.0</ele><time>2026-04-25T09:45:37Z</time></trkpt><trkpt lat="45.43822304545706" lon="11.924471104346427"><ele>13.0</ele><time>2026-04-25T09:45:38Z</time></trkpt><trkpt lat="45.43820786136934" lon="11.924561449742724"><ele>13.0</ele><time>2026-04-25T09:45:39Z</time></trkpt><trkpt lat="45.438189710256204" lon="11.924649318196392"><ele>13.0</ele><time>2026-04-25T09:45:40Z</time></trkpt><trkpt lat="45.438168435062565" lon="11.924738093733463"><ele>13.0</ele><time>2026-04-25T09:45:41Z</time></trkpt><trkpt lat="45.438152416192885" lon="11.924824980452687"><ele>13.0</ele><time>2026-04-25T09:45:42Z</time></trkpt><trkpt lat="45.438126042834504" lon="11.924994863577524"><ele>12.8</ele><time>2026-04-25T09:45:44Z</time></trkpt><trkpt lat="45.43810573624062" lon="11.925081281540288"><ele>12.600000000000001</ele><time>2026-04-25T09:45:45Z</time></trkpt><trkpt lat="45.43804977970524" lon="11.925233254838195"><ele>12.399999999999999</ele><time>2026-04-25T09:45:47Z</time></trkpt><trkpt lat="45.438013285696705" lon="11.92539171664615"><ele>12.2</ele><time>2026-04-25T09:45:49Z</time></trkpt><trkpt lat="45.437990013231456" lon="11.925540962077367"><ele>12.0</ele><time>2026-04-25T09:45:51Z</time></trkpt><trkpt lat="45.43795838307159" lon="11.925635266806113"><ele>11.6</ele><time>2026-04-25T09:45:53Z</time></trkpt><trkpt lat="45.437795125299736" lon="11.925565905294103"><ele>11.2</ele><time>2026-04-25T09:45:58Z</time></trkpt><trkpt lat="45.437743336711485" lon="11.925504007618882"><ele>10.8</ele><time>2026-04-25T09:46:01Z</time></trkpt><trkpt lat="45.43767149767004" lon="11.925511996948577"><ele>10.4</ele><time>2026-04-25T09:46:05Z</time></trkpt><trkpt lat="45.43765473262526" lon="11.925601717476866"><ele>10.0</ele><time>2026-04-25T09:46:07Z</time></trkpt><trkpt lat="45.43763467370681" lon="11.925713498627488"><ele>10.0</ele><time>2026-04-25T09:46:09Z</time></trkpt><trkpt lat="45.43760029368491" lon="11.92584113595967"><ele>10.0</ele><time>2026-04-25T09:46:11Z</time></trkpt><trkpt lat="45.43757338593156" lon="11.9259796444808"><ele>10.0</ele><time>2026-04-25T09:46:13Z</time></trkpt><trkpt lat="45.437534499920226" lon="11.926126248530881"><ele>10.0</ele><time>2026-04-25T09:46:15Z</time></trkpt><trkpt lat="45.43749899628804" lon="11.926282426638291"><ele>10.0</ele><time>2026-04-25T09:46:17Z</time></trkpt><trkpt lat="45.43746296644603" lon="11.926442453360742"><ele>9.4</ele><time>2026-04-25T09:46:19Z</time></trkpt><trkpt lat="45.43742008087489" lon="11.926599087876372"><ele>8.8</ele><time>2026-04-25T09:46:21Z</time></trkpt><trkpt lat="45.43738262460356" lon="11.92676324559973"><ele>8.2</ele><time>2026-04-25T09:46:23Z</time></trkpt><trkpt lat="45.437363303271425" lon="11.92684959384308"><ele>7.6</ele><time>2026-04-25T09:46:24Z</time></trkpt><trkpt lat="45.437344259279165" lon="11.926935706133792"><ele>7.0</ele><time>2026-04-25T09:46:25Z</time></trkpt><trkpt lat="45.437308206444236" lon="11.927108398286475"><ele>7.000000000000001</ele><time>2026-04-25T09:46:27Z</time></trkpt><trkpt lat="45.437273887679225" lon="11.927282665201663"><ele>7.0</ele><time>2026-04-25T09:46:29Z</time></trkpt><trkpt lat="45.4372559779633" lon="11.92737695879962"><ele>7.0</ele><time>2026-04-25T09:46:30Z</time></trkpt><trkpt lat="45.43724056368344" lon="11.927472739899452"><ele>7.0</ele><time>2026-04-25T09:46:31Z</time></trkpt><trkpt lat="45.43722503336333" lon="11.9275641992426"><ele>7.000000000000001</ele><time>2026-04-25T09:46:32Z</time></trkpt><trkpt lat="45.43720338277322" lon="11.92765140541225"><ele>7.0</ele><time>2026-04-25T09:46:33Z</time></trkpt><trkpt lat="45.43719741133899" lon="11.927743270483605"><ele>7.375</ele><time>2026-04-25T09:46:34Z</time></trkpt><trkpt lat="45.43718341298793" lon="11.92783183019831"><ele>7.75</ele><time>2026-04-25T09:46:35Z</time></trkpt><trkpt lat="45.437174914003364" lon="11.927924187618896"><ele>8.125</ele><time>2026-04-25T09:46:36Z</time></trkpt><trkpt lat="45.43716433363765" lon="11.928012644000328"><ele>8.5</ele><time>2026-04-25T09:46:37Z</time></trkpt><trkpt lat="45.437156797263405" lon="11.928104018468325"><ele>8.875</ele><time>2026-04-25T09:46:38Z</time></trkpt><trkpt lat="45.437146394035864" lon="11.928192786887715"><ele>9.25</ele><time>2026-04-25T09:46:39Z</time></trkpt><trkpt lat="45.43713933277974" lon="11.928284516729219"><ele>9.625</ele><time>2026-04-25T09:46:40Z</time></trkpt><trkpt lat="45.43713261578048" lon="11.928373743629123"><ele>10.0</ele><time>2026-04-25T09:46:41Z</time></trkpt><trkpt lat="45.43713343552059" lon="11.928464060529471"><ele>10.0</ele><time>2026-04-25T09:46:42Z</time></trkpt><trkpt lat="45.43713075411527" lon="11.928556804095216"><ele>10.0</ele><time>2026-04-25T09:46:43Z</time></trkpt><trkpt lat="45.43712671493486" lon="11.928648543421259"><ele>10.0</ele><time>2026-04-25T09:46:44Z</time></trkpt><trkpt lat="45.43712663823178" lon="11.92873862705283"><ele>10.0</ele><time>2026-04-25T09:46:45Z</time></trkpt><trkpt lat="45.437127846313956" lon="11.928833805423897"><ele>10.0</ele><time>2026-04-25T09:46:46Z</time></trkpt><trkpt lat="45.43712768120211" lon="11.929010745018143"><ele>10.0</ele><time>2026-04-25T09:46:48Z</time></trkpt><trkpt lat="45.43713715863236" lon="11.929180179922446"><ele>10.166666666666668</ele><time>2026-04-25T09:46:50Z</time></trkpt><trkpt lat="45.437137001726946" lon="11.929271649522029"><ele>10.333333333333334</ele><time>2026-04-25T09:46:51Z</time></trkpt><trkpt lat="45.43713701783344" lon="11.929453856659672"><ele>10.5</ele><time>2026-04-25T09:46:53Z</time></trkpt><trkpt lat="45.43713923016279" lon="11.929545480172044"><ele>10.666666666666666</ele><time>2026-04-25T09:46:54Z</time></trkpt><trkpt lat="45.43714470737426" lon="11.929640046170542"><ele>10.833333333333332</ele><time>2026-04-25T09:46:55Z</time></trkpt><trkpt lat="45.437140714527715" lon="11.929734467478564"><ele>11.0</ele><time>2026-04-25T09:46:56Z</time></trkpt><trkpt lat="45.4371509345539" lon="11.92991258373698"><ele>11.0</ele><time>2026-04-25T09:46:58Z</time></trkpt><trkpt lat="45.43716023144526" lon="11.930004118389068"><ele>11.0</ele><time>2026-04-25T09:46:59Z</time></trkpt><trkpt lat="45.43717794369189" lon="11.930183211885145"><ele>11.0</ele><time>2026-04-25T09:47:01Z</time></trkpt><trkpt lat="45.43718387922548" lon="11.93027469636836"><ele>11.0</ele><time>2026-04-25T09:47:02Z</time></trkpt><trkpt lat="45.43719415705" lon="11.930367030786096"><ele>11.0</ele><time>2026-04-25T09:47:03Z</time></trkpt><trkpt lat="45.437211738973126" lon="11.930455307305378"><ele>11.0</ele><time>2026-04-25T09:47:04Z</time></trkpt><trkpt lat="45.437227382456996" lon="11.930627952615211"><ele>10.600000000000001</ele><time>2026-04-25T09:47:06Z</time></trkpt><trkpt lat="45.43725199574883" lon="11.930792475724706"><ele>10.200000000000001</ele><time>2026-04-25T09:47:08Z</time></trkpt><trkpt lat="45.43728363845207" lon="11.930950002445028"><ele>9.8</ele><time>2026-04-25T09:47:10Z</time></trkpt><trkpt lat="45.437322363016385" lon="11.931086639993563"><ele>9.4</ele><time>2026-04-25T09:47:12Z</time></trkpt><trkpt lat="45.437354010838476" lon="11.931236123914985"><ele>9.0</ele><time>2026-04-25T09:47:14Z</time></trkpt><trkpt lat="45.43739842561365" lon="11.931400985578028"><ele>8.833333333333334</ele><time>2026-04-25T09:47:16Z</time></trkpt><trkpt lat="45.43742164810613" lon="11.931485710026596"><ele>8.666666666666666</ele><time>2026-04-25T09:47:17Z</time></trkpt><trkpt lat="45.43744439345624" lon="11.931570461889494"><ele>8.5</ele><time>2026-04-25T09:47:18Z</time></trkpt><trkpt lat="45.43749351734277" lon="11.931741056313284"><ele>8.333333333333332</ele><time>2026-04-25T09:47:20Z</time></trkpt><trkpt lat="45.43751901595847" lon="11.931829793117226"><ele>8.166666666666666</ele><time>2026-04-25T09:47:21Z</time></trkpt><trkpt lat="45.43754761026997" lon="11.93192151520757"><ele>8.0</ele><time>2026-04-25T09:47:22Z</time></trkpt><trkpt lat="45.43757087270466" lon="11.932012586092693"><ele>8.4</ele><time>2026-04-25T09:47:23Z</time></trkpt><trkpt lat="45.43771905305958" lon="11.932082418026136"><ele>8.8</ele><time>2026-04-25T09:47:24Z</time></trkpt><trkpt lat="45.43772793429218" lon="11.932175186330323"><ele>9.2</ele><time>2026-04-25T09:47:25Z</time></trkpt><trkpt lat="45.437737026153705" lon="11.932270154747917"><ele>9.6</ele><time>2026-04-25T09:47:26Z</time></trkpt><trkpt lat="45.43774584153241" lon="11.932362235195706"><ele>10.0</ele><time>2026-04-25T09:47:27Z</time></trkpt><trkpt lat="45.43776705876773" lon="11.932542421649147"><ele>9.833333333333334</ele><time>2026-04-25T09:47:29Z</time></trkpt><trkpt lat="45.43777857022268" lon="11.932633288191816"><ele>9.666666666666668</ele><time>2026-04-25T09:47:30Z</time></trkpt><trkpt lat="45.43780199794757" lon="11.932812342912841"><ele>9.5</ele><time>2026-04-25T09:47:32Z</time></trkpt><trkpt lat="45.43781421065032" lon="11.932905682814825"><ele>9.333333333333334</ele><time>2026-04-25T09:47:33Z</time></trkpt><trkpt lat="45.43782672743548" lon="11.933001346887258"><ele>9.166666666666666</ele><time>2026-04-25T09:47:34Z</time></trkpt><trkpt lat="45.43783070601629" lon="11.933097552671999"><ele>9.0</ele><time>2026-04-25T09:47:35Z</time></trkpt><trkpt lat="45.43783447580028" lon="11.933191981139954"><ele>9.000000000000002</ele><time>2026-04-25T09:47:36Z</time></trkpt><trkpt lat="45.43784790404666" lon="11.933285146253057"><ele>9.0</ele><time>2026-04-25T09:47:37Z</time></trkpt><trkpt lat="45.43786337252115" lon="11.933381039367193"><ele>9.0</ele><time>2026-04-25T09:47:38Z</time></trkpt><trkpt lat="45.43787784596432" lon="11.933477966220316"><ele>9.0</ele><time>2026-04-25T09:47:39Z</time></trkpt><trkpt lat="45.43788906125689" lon="11.933574552760758"><ele>9.0</ele><time>2026-04-25T09:47:40Z</time></trkpt><trkpt lat="45.43789740983605" lon="11.93367009333544"><ele>9.000000000000002</ele><time>2026-04-25T09:47:41Z</time></trkpt><trkpt lat="45.43790477626183" lon="11.933767688851075"><ele>9.0</ele><time>2026-04-25T09:47:42Z</time></trkpt><trkpt lat="45.437909693644045" lon="11.933865440564547"><ele>8.857142857142858</ele><time>2026-04-25T09:47:43Z</time></trkpt><trkpt lat="45.43791414514217" lon="11.933963938179234"><ele>8.714285714285715</ele><time>2026-04-25T09:47:44Z</time></trkpt><trkpt lat="45.437919376027935" lon="11.934062704860418"><ele>8.571428571428571</ele><time>2026-04-25T09:47:45Z</time></trkpt><trkpt lat="45.43791995099964" lon="11.934163417148632"><ele>8.428571428571429</ele><time>2026-04-25T09:47:46Z</time></trkpt><trkpt lat="45.43792084901895" lon="11.934262392090751"><ele>8.285714285714285</ele><time>2026-04-25T09:47:47Z</time></trkpt><trkpt lat="45.43792723412144" lon="11.934366985955652"><ele>8.142857142857142</ele><time>2026-04-25T09:47:48Z</time></trkpt><trkpt lat="45.437929427535195" lon="11.934467871228067"><ele>8.0</ele><time>2026-04-25T09:47:49Z</time></trkpt><trkpt lat="45.43792070997972" lon="11.934571791480654"><ele>8.0</ele><time>2026-04-25T09:47:50Z</time></trkpt><trkpt lat="45.43791460622026" lon="11.93467396316496"><ele>7.999999999999999</ele><time>2026-04-25T09:47:51Z</time></trkpt><trkpt lat="45.43790824608335" lon="11.934772615753733"><ele>8.0</ele><time>2026-04-25T09:47:52Z</time></trkpt><trkpt lat="45.43789991969663" lon="11.934874775575555"><ele>8.0</ele><time>2026-04-25T09:47:53Z</time></trkpt><trkpt lat="45.43789222418613" lon="11.93497475554629"><ele>7.999999999999999</ele><time>2026-04-25T09:47:54Z</time></trkpt><trkpt lat="45.437876944143426" lon="11.935072808762332"><ele>8.0</ele><time>2026-04-25T09:47:55Z</time></trkpt><trkpt lat="45.43786965071764" lon="11.935169795927033"><ele>8.0</ele><time>2026-04-25T09:47:56Z</time></trkpt><trkpt lat="45.437854961491034" lon="11.935263403461317"><ele>7.999999999999999</ele><time>2026-04-25T09:47:57Z</time></trkpt><trkpt lat="45.437841850293" lon="11.935356969350657"><ele>8.0</ele><time>2026-04-25T09:47:58Z</time></trkpt><trkpt lat="45.43784588828141" lon="11.935452427081845"><ele>8.0</ele><time>2026-04-25T09:47:59Z</time></trkpt><trkpt lat="45.437835119010366" lon="11.935543822913626"><ele>8.0</ele><time>2026-04-25T09:48:00Z</time></trkpt><trkpt lat="45.43782433157311" lon="11.935635372951584"><ele>7.999999999999999</ele><time>2026-04-25T09:48:01Z</time></trkpt><trkpt lat="45.43780382790356" lon="11.935812335143687"><ele>8.0</ele><time>2026-04-25T09:48:03Z</time></trkpt><trkpt lat="45.437784261569924" lon="11.935985540877416"><ele>7.833333333333333</ele><time>2026-04-25T09:48:05Z</time></trkpt><trkpt lat="45.43776304927053" lon="11.936158179075925"><ele>7.666666666666666</ele><time>2026-04-25T09:48:07Z</time></trkpt><trkpt lat="45.43775156078898" lon="11.936251736385623"><ele>7.5</ele><time>2026-04-25T09:48:08Z</time></trkpt><trkpt lat="45.437738308467004" lon="11.936340599608421"><ele>7.333333333333334</ele><time>2026-04-25T09:48:09Z</time></trkpt><trkpt lat="45.4377253288403" lon="11.936429823482957"><ele>7.166666666666667</ele><time>2026-04-25T09:48:10Z</time></trkpt><trkpt lat="45.43769616002698" lon="11.93660073095325"><ele>7.0</ele><time>2026-04-25T09:48:12Z</time></trkpt><trkpt lat="45.43768036549693" lon="11.93668806337697"><ele>7.428571428571429</ele><time>2026-04-25T09:48:13Z</time></trkpt><trkpt lat="45.437663704278776" lon="11.936782350044059"><ele>7.857142857142858</ele><time>2026-04-25T09:48:14Z</time></trkpt><trkpt lat="45.43764620338963" lon="11.936871363457197"><ele>8.285714285714285</ele><time>2026-04-25T09:48:15Z</time></trkpt><trkpt lat="45.437629080174034" lon="11.936958455647236"><ele>8.714285714285715</ele><time>2026-04-25T09:48:16Z</time></trkpt><trkpt lat="45.437609189571155" lon="11.93705375647885"><ele>9.142857142857142</ele><time>2026-04-25T09:48:17Z</time></trkpt><trkpt lat="45.43758989275567" lon="11.937144438118647"><ele>9.571428571428571</ele><time>2026-04-25T09:48:18Z</time></trkpt><trkpt lat="45.4375707352161" lon="11.9372344653708"><ele>10.0</ele><time>2026-04-25T09:48:19Z</time></trkpt><trkpt lat="45.4375517894158" lon="11.937323497545684"><ele>10.0</ele><time>2026-04-25T09:48:20Z</time></trkpt><trkpt lat="45.43751615487814" lon="11.937496658611108"><ele>10.0</ele><time>2026-04-25T09:48:22Z</time></trkpt><trkpt lat="45.437497615888184" lon="11.937586732419682"><ele>10.0</ele><time>2026-04-25T09:48:23Z</time></trkpt><trkpt lat="45.43747953309341" lon="11.937674589827461"><ele>10.0</ele><time>2026-04-25T09:48:24Z</time></trkpt><trkpt lat="45.437442713398575" lon="11.937850601593311"><ele>10.0</ele><time>2026-04-25T09:48:26Z</time></trkpt><trkpt lat="45.437423700522224" lon="11.937938552615424"><ele>10.0</ele><time>2026-04-25T09:48:27Z</time></trkpt><trkpt lat="45.43738747049713" lon="11.938106147867199"><ele>10.0</ele><time>2026-04-25T09:48:29Z</time></trkpt><trkpt lat="45.43735161430598" lon="11.93827201375711"><ele>10.0</ele><time>2026-04-25T09:48:31Z</time></trkpt><trkpt lat="45.437316999869815" lon="11.93843239251373"><ele>10.0</ele><time>2026-04-25T09:48:33Z</time></trkpt><trkpt lat="45.43728190916425" lon="11.938595805075085"><ele>10.0</ele><time>2026-04-25T09:48:35Z</time></trkpt><trkpt lat="45.437248218730645" lon="11.938752696785118"><ele>10.0</ele><time>2026-04-25T09:48:37Z</time></trkpt><trkpt lat="45.43721474622006" lon="11.938908573717448"><ele>10.0</ele><time>2026-04-25T09:48:39Z</time></trkpt><trkpt lat="45.436801749636295" lon="11.938813716193405"><ele>10.0</ele><time>2026-04-25T09:48:40Z</time></trkpt><trkpt lat="45.43675442013082" lon="11.938960156705054"><ele>10.0</ele><time>2026-04-25T09:48:42Z</time></trkpt><trkpt lat="45.43669456115399" lon="11.939106244497015"><ele>10.0</ele><time>2026-04-25T09:48:44Z</time></trkpt><trkpt lat="45.436634830636514" lon="11.939262215595292"><ele>10.0</ele><time>2026-04-25T09:48:46Z</time></trkpt><trkpt lat="45.43657473441728" lon="11.939411474287299"><ele>10.0</ele><time>2026-04-25T09:48:48Z</time></trkpt><trkpt lat="45.43651896864494" lon="11.939562481269395"><ele>10.0</ele><time>2026-04-25T09:48:50Z</time></trkpt><trkpt lat="45.436458847444875" lon="11.939714245307528"><ele>10.0</ele><time>2026-04-25T09:48:52Z</time></trkpt><trkpt lat="45.43646247883796" lon="11.939944425124063"><ele>10.0</ele><time>2026-04-25T09:48:54Z</time></trkpt><trkpt lat="45.436390640647566" lon="11.940057271728573"><ele>10.0</ele><time>2026-04-25T09:48:56Z</time></trkpt><trkpt lat="45.43631851700769" lon="11.94019779220888"><ele>10.0</ele><time>2026-04-25T09:48:58Z</time></trkpt><trkpt lat="45.436279699780314" lon="11.940272273992743"><ele>10.0</ele><time>2026-04-25T09:48:59Z</time></trkpt><trkpt lat="45.43624172218344" lon="11.940344716818933"><ele>10.0</ele><time>2026-04-25T09:49:00Z</time></trkpt><trkpt lat="45.43620096305753" lon="11.9404213125969"><ele>10.0</ele><time>2026-04-25T09:49:01Z</time></trkpt><trkpt lat="45.43615951777199" lon="11.940498034628124"><ele>10.0</ele><time>2026-04-25T09:49:02Z</time></trkpt><trkpt lat="45.436079576604456" lon="11.94064470086555"><ele>10.0</ele><time>2026-04-25T09:49:04Z</time></trkpt><trkpt lat="45.43603850876911" lon="11.94071657881841"><ele>10.0</ele><time>2026-04-25T09:49:05Z</time></trkpt><trkpt lat="45.4359979688159" lon="11.940787532792502"><ele>10.0</ele><time>2026-04-25T09:49:06Z</time></trkpt><trkpt lat="45.43595805793792" lon="11.940857385768842"><ele>10.0</ele><time>2026-04-25T09:49:07Z</time></trkpt><trkpt lat="45.43591751256048" lon="11.94092834928914"><ele>10.0</ele><time>2026-04-25T09:49:08Z</time></trkpt><trkpt lat="45.43587573542237" lon="11.94100146863842"><ele>10.0</ele><time>2026-04-25T09:49:09Z</time></trkpt><trkpt lat="45.43579645413683" lon="11.941141306631414"><ele>10.0</ele><time>2026-04-25T09:49:11Z</time></trkpt><trkpt lat="45.43575568109183" lon="11.941213268279652"><ele>10.0</ele><time>2026-04-25T09:49:12Z</time></trkpt><trkpt lat="45.435679380589534" lon="11.94134793330776"><ele>10.0</ele><time>2026-04-25T09:49:14Z</time></trkpt><trkpt lat="45.43560255979674" lon="11.941483516684324"><ele>10.0</ele><time>2026-04-25T09:49:16Z</time></trkpt><trkpt lat="45.4355258713759" lon="11.941619106628547"><ele>10.0</ele><time>2026-04-25T09:49:18Z</time></trkpt><trkpt lat="45.43548601324439" lon="11.941689625615371"><ele>10.0</ele><time>2026-04-25T09:49:19Z</time></trkpt><trkpt lat="45.43540835501131" lon="11.941827022421856"><ele>9.0</ele><time>2026-04-25T09:49:21Z</time></trkpt><trkpt lat="45.435368851397705" lon="11.941896914177772"><ele>8.0</ele><time>2026-04-25T09:49:22Z</time></trkpt><trkpt lat="45.43518428875072" lon="11.94190499555113"><ele>7.0</ele><time>2026-04-25T09:49:24Z</time></trkpt><trkpt lat="45.43510266289678" lon="11.942030213953323"><ele>6.0</ele><time>2026-04-25T09:49:26Z</time></trkpt><trkpt lat="45.435018070814486" lon="11.942155617745906"><ele>6.0</ele><time>2026-04-25T09:49:28Z</time></trkpt><trkpt lat="45.43497287307563" lon="11.94222042340073"><ele>6.0</ele><time>2026-04-25T09:49:29Z</time></trkpt><trkpt lat="45.43488805433028" lon="11.942352953230431"><ele>6.0</ele><time>2026-04-25T09:49:31Z</time></trkpt><trkpt lat="45.43480563732062" lon="11.94248482098355"><ele>6.0</ele><time>2026-04-25T09:49:33Z</time></trkpt><trkpt lat="45.43472534344376" lon="11.942620022103394"><ele>6.0</ele><time>2026-04-25T09:49:35Z</time></trkpt><trkpt lat="45.434680579146765" lon="11.942683124917766"><ele>5.75</ele><time>2026-04-25T09:49:36Z</time></trkpt><trkpt lat="45.43459572730999" lon="11.942811440173989"><ele>5.5</ele><time>2026-04-25T09:49:38Z</time></trkpt><trkpt lat="45.4345132707989" lon="11.942936080583129"><ele>5.25</ele><time>2026-04-25T09:49:40Z</time></trkpt><trkpt lat="45.434433053351746" lon="11.9430565017689"><ele>5.0</ele><time>2026-04-25T09:49:42Z</time></trkpt><trkpt lat="45.43435107949626" lon="11.943179474799498"><ele>5.0</ele><time>2026-04-25T09:49:44Z</time></trkpt><trkpt lat="45.434268630296565" lon="11.943309996445814"><ele>5.0</ele><time>2026-04-25T09:49:46Z</time></trkpt><trkpt lat="45.434186340286615" lon="11.94344177778092"><ele>5.0</ele><time>2026-04-25T09:49:48Z</time></trkpt><trkpt lat="45.434142596639866" lon="11.943508100683964"><ele>5.0</ele><time>2026-04-25T09:49:49Z</time></trkpt><trkpt lat="45.43410067957578" lon="11.943577819840353"><ele>5.0</ele><time>2026-04-25T09:49:50Z</time></trkpt><trkpt lat="45.43401588478927" lon="11.943706267134784"><ele>5.25</ele><time>2026-04-25T09:49:52Z</time></trkpt><trkpt lat="45.43393630876429" lon="11.943832965068397"><ele>5.5</ele><time>2026-04-25T09:49:54Z</time></trkpt><trkpt lat="45.433856419705386" lon="11.943953053158426"><ele>5.75</ele><time>2026-04-25T09:49:56Z</time></trkpt><trkpt lat="45.43378223886209" lon="11.944080419285894"><ele>6.0</ele><time>2026-04-25T09:49:58Z</time></trkpt><trkpt lat="45.43370302509816" lon="11.944213482254831"><ele>6.666666666666667</ele><time>2026-04-25T09:50:00Z</time></trkpt><trkpt lat="45.43365709820016" lon="11.944281350138192"><ele>7.333333333333334</ele><time>2026-04-25T09:50:01Z</time></trkpt><trkpt lat="45.433575420369294" lon="11.944406442685665"><ele>8.0</ele><time>2026-04-25T09:50:03Z</time></trkpt><trkpt lat="45.433534274020865" lon="11.944474561030937"><ele>8.666666666666668</ele><time>2026-04-25T09:50:04Z</time></trkpt><trkpt lat="45.43348560987023" lon="11.944534569437298"><ele>9.333333333333334</ele><time>2026-04-25T09:50:05Z</time></trkpt><trkpt lat="45.43344096233244" lon="11.944597902386407"><ele>10.0</ele><time>2026-04-25T09:50:06Z</time></trkpt><trkpt lat="45.4333562192053" lon="11.94472587845459"><ele>10.0</ele><time>2026-04-25T09:50:08Z</time></trkpt><trkpt lat="45.43331132385014" lon="11.944796141827137"><ele>10.0</ele><time>2026-04-25T09:50:09Z</time></trkpt><trkpt lat="45.43326491256961" lon="11.944861904046082"><ele>10.0</ele><time>2026-04-25T09:50:10Z</time></trkpt><trkpt lat="45.4331781858533" lon="11.944991782951446"><ele>10.0</ele><time>2026-04-25T09:50:12Z</time></trkpt><trkpt lat="45.433131538264085" lon="11.945061846113438"><ele>10.0</ele><time>2026-04-25T09:50:13Z</time></trkpt><trkpt lat="45.43304861198706" lon="11.945198056735075"><ele>10.2</ele><time>2026-04-25T09:50:15Z</time></trkpt><trkpt lat="45.433005428918705" lon="11.945271643419277"><ele>10.4</ele><time>2026-04-25T09:50:16Z</time></trkpt><trkpt lat="45.43292286520566" lon="11.945402608215561"><ele>10.600000000000001</ele><time>2026-04-25T09:50:18Z</time></trkpt><trkpt lat="45.43287740922226" lon="11.945470482378289"><ele>10.8</ele><time>2026-04-25T09:50:19Z</time></trkpt><trkpt lat="45.43278821858238" lon="11.945604579251706"><ele>11.0</ele><time>2026-04-25T09:50:21Z</time></trkpt><trkpt lat="45.43274618904044" lon="11.94567348055005"><ele>10.600000000000001</ele><time>2026-04-25T09:50:22Z</time></trkpt><trkpt lat="45.43265963270759" lon="11.945798482364326"><ele>10.200000000000001</ele><time>2026-04-25T09:50:24Z</time></trkpt><trkpt lat="45.43261722522726" lon="11.945868555210444"><ele>9.8</ele><time>2026-04-25T09:50:25Z</time></trkpt><trkpt lat="45.43253140962039" lon="11.945995220712035"><ele>9.4</ele><time>2026-04-25T09:50:27Z</time></trkpt><trkpt lat="45.43244463449735" lon="11.946122207404162"><ele>9.0</ele><time>2026-04-25T09:50:29Z</time></trkpt><trkpt lat="45.43240120074375" lon="11.946190335243847"><ele>9.0</ele><time>2026-04-25T09:50:30Z</time></trkpt><trkpt lat="45.43231451969771" lon="11.946312313686136"><ele>9.0</ele><time>2026-04-25T09:50:32Z</time></trkpt><trkpt lat="45.432233417094956" lon="11.946445865650183"><ele>9.0</ele><time>2026-04-25T09:50:34Z</time></trkpt><trkpt lat="45.43215468183892" lon="11.946574375199345"><ele>9.0</ele><time>2026-04-25T09:50:36Z</time></trkpt><trkpt lat="45.43210910573303" lon="11.946642657944498"><ele>9.0</ele><time>2026-04-25T09:50:37Z</time></trkpt><trkpt lat="45.432022304609426" lon="11.946771122353141"><ele>8.75</ele><time>2026-04-25T09:50:39Z</time></trkpt><trkpt lat="45.431944297508174" lon="11.946903445954128"><ele>8.5</ele><time>2026-04-25T09:50:41Z</time></trkpt><trkpt lat="45.43186477152814" lon="11.947028150968206"><ele>8.25</ele><time>2026-04-25T09:50:43Z</time></trkpt><trkpt lat="45.431781677389964" lon="11.9471564005477"><ele>8.0</ele><time>2026-04-25T09:50:45Z</time></trkpt><trkpt lat="45.43170495665734" lon="11.947286003021445"><ele>7.999999999999999</ele><time>2026-04-25T09:50:47Z</time></trkpt><trkpt lat="45.43161878321159" lon="11.94742114024645"><ele>8.0</ele><time>2026-04-25T09:50:49Z</time></trkpt><trkpt lat="45.431573835095705" lon="11.947488622110178"><ele>8.0</ele><time>2026-04-25T09:50:50Z</time></trkpt><trkpt lat="45.43152810001388" lon="11.947557004028374"><ele>8.0</ele><time>2026-04-25T09:50:51Z</time></trkpt><trkpt lat="45.43148446586744" lon="11.947627949785582"><ele>7.999999999999999</ele><time>2026-04-25T09:50:52Z</time></trkpt><trkpt lat="45.43144138926749" lon="11.947696520930986"><ele>8.0</ele><time>2026-04-25T09:50:53Z</time></trkpt><trkpt lat="45.43139675050726" lon="11.947765240604268"><ele>7.999999999999999</ele><time>2026-04-25T09:50:54Z</time></trkpt><trkpt lat="45.431351670644524" lon="11.947833098499428"><ele>8.0</ele><time>2026-04-25T09:50:55Z</time></trkpt><trkpt lat="45.43127096829202" lon="11.94796752814649"><ele>8.0</ele><time>2026-04-25T09:50:57Z</time></trkpt><trkpt lat="45.43122568255659" lon="11.948031332888924"><ele>8.0</ele><time>2026-04-25T09:50:58Z</time></trkpt><trkpt lat="45.43117545789402" lon="11.948102663759663"><ele>7.999999999999999</ele><time>2026-04-25T09:50:59Z</time></trkpt><trkpt lat="45.43108896618957" lon="11.948222425709728"><ele>8.0</ele><time>2026-04-25T09:51:01Z</time></trkpt><trkpt lat="45.431039310355786" lon="11.948289788625768"><ele>8.0</ele><time>2026-04-25T09:51:02Z</time></trkpt><trkpt lat="45.43099169663175" lon="11.948353276040214"><ele>7.999999999999999</ele><time>2026-04-25T09:51:03Z</time></trkpt><trkpt lat="45.430940994331564" lon="11.948411348541887"><ele>8.0</ele><time>2026-04-25T09:51:04Z</time></trkpt><trkpt lat="45.43089111870603" lon="11.948472356303384"><ele>8.0</ele><time>2026-04-25T09:51:05Z</time></trkpt><trkpt lat="45.430839936382" lon="11.948532519773021"><ele>7.999999999999999</ele><time>2026-04-25T09:51:06Z</time></trkpt><trkpt lat="45.43078673456745" lon="11.94859189176542"><ele>8.0</ele><time>2026-04-25T09:51:07Z</time></trkpt><trkpt lat="45.43073770341605" lon="11.948650730474291"><ele>8.0</ele><time>2026-04-25T09:51:08Z</time></trkpt><trkpt lat="45.43064143206171" lon="11.94876957766936"><ele>7.666666666666666</ele><time>2026-04-25T09:51:10Z</time></trkpt><trkpt lat="45.43059248043275" lon="11.948830386776418"><ele>7.333333333333333</ele><time>2026-04-25T09:51:11Z</time></trkpt><trkpt lat="45.43051070710911" lon="11.948962143722065"><ele>7.0</ele><time>2026-04-25T09:51:13Z</time></trkpt><trkpt lat="45.430432119142154" lon="11.94909750791349"><ele>6.666666666666666</ele><time>2026-04-25T09:51:15Z</time></trkpt><trkpt lat="45.4303869368875" lon="11.949165424420912"><ele>6.333333333333333</ele><time>2026-04-25T09:51:16Z</time></trkpt><trkpt lat="45.43033744409073" lon="11.949238560822355"><ele>6.0</ele><time>2026-04-25T09:51:17Z</time></trkpt><trkpt lat="45.43029445738612" lon="11.949314166323282"><ele>6.666666666666667</ele><time>2026-04-25T09:51:18Z</time></trkpt><trkpt lat="45.430257290116046" lon="11.949396272909663"><ele>7.333333333333334</ele><time>2026-04-25T09:51:19Z</time></trkpt><trkpt lat="45.430222868600325" lon="11.949475953032875"><ele>8.0</ele><time>2026-04-25T09:51:20Z</time></trkpt><trkpt lat="45.43017798744962" lon="11.94956510145863"><ele>8.666666666666668</ele><time>2026-04-25T09:51:22Z</time></trkpt><trkpt lat="45.430244244813125" lon="11.949626914908002"><ele>9.333333333333334</ele><time>2026-04-25T09:51:36Z</time></trkpt><trkpt lat="45.430178471589436" lon="11.949682537070867"><ele>10.0</ele><time>2026-04-25T09:51:49Z</time></trkpt><trkpt lat="45.43009126968989" lon="11.94971131678069"><ele>10.0</ele><time>2026-04-25T09:51:53Z</time></trkpt><trkpt lat="45.430026078080154" lon="11.94982146570265"><ele>10.0</ele><time>2026-04-25T09:51:55Z</time></trkpt><trkpt lat="45.42997769993314" lon="11.949881365620161"><ele>10.0</ele><time>2026-04-25T09:51:57Z</time></trkpt><trkpt lat="45.4299177987007" lon="11.949929326221365"><ele>10.0</ele><time>2026-04-25T09:52:06Z</time></trkpt><trkpt lat="45.42986792239986" lon="11.95000148452861"><ele>10.0</ele><time>2026-04-25T09:52:12.014Z</time></trkpt><trkpt lat="45.42961712930857" lon="11.950471708562178"><ele>10.2</ele><time>2026-04-25T09:52:18Z</time></trkpt><trkpt lat="45.42947013221899" lon="11.950455547549087"><ele>10.4</ele><time>2026-04-25T09:52:19Z</time></trkpt><trkpt lat="45.42937023450951" lon="11.950485057865073"><ele>10.600000000000001</ele><time>2026-04-25T09:52:21Z</time></trkpt><trkpt lat="45.429311570376655" lon="11.950536138242954"><ele>10.8</ele><time>2026-04-25T09:52:23Z</time></trkpt><trkpt lat="45.429245983919145" lon="11.950607726905627"><ele>11.0</ele><time>2026-04-25T09:52:25Z</time></trkpt><trkpt lat="45.42917875053168" lon="11.950653460296621"><ele>11.0</ele><time>2026-04-25T09:52:27Z</time></trkpt><trkpt lat="45.4291241375514" lon="11.950699965692522"><ele>11.0</ele><time>2026-04-25T09:52:29Z</time></trkpt><trkpt lat="45.42903519656843" lon="11.950730422964915"><ele>11.0</ele><time>2026-04-25T09:52:32Z</time></trkpt><trkpt lat="45.428971185133754" lon="11.95076870413611"><ele>11.0</ele><time>2026-04-25T09:52:34Z</time></trkpt><trkpt lat="45.428905644807664" lon="11.950866519152395"><ele>11.0</ele><time>2026-04-25T09:52:36Z</time></trkpt><trkpt lat="45.42883051255903" lon="11.950942028728845"><ele>11.0</ele><time>2026-04-25T09:52:38Z</time></trkpt><trkpt lat="45.42875894864378" lon="11.951019697711931"><ele>10.833333333333332</ele><time>2026-04-25T09:52:40Z</time></trkpt><trkpt lat="45.428687201152094" lon="11.951085950016616"><ele>10.666666666666666</ele><time>2026-04-25T09:52:42Z</time></trkpt><trkpt lat="45.42862479466421" lon="11.95114765258226"><ele>10.5</ele><time>2026-04-25T09:52:44Z</time></trkpt><trkpt lat="45.428565444202846" lon="11.951227023647728"><ele>10.333333333333334</ele><time>2026-04-25T09:52:46Z</time></trkpt><trkpt lat="45.428502341755824" lon="11.951291495296864"><ele>10.166666666666668</ele><time>2026-04-25T09:52:48Z</time></trkpt><trkpt lat="45.42843510749671" lon="11.951357985744439"><ele>10.0</ele><time>2026-04-25T09:52:50Z</time></trkpt><trkpt lat="45.428370546101405" lon="11.951413992957708"><ele>10.0</ele><time>2026-04-25T09:52:52Z</time></trkpt><trkpt lat="45.42832344523617" lon="11.951481953368859"><ele>10.0</ele><time>2026-04-25T09:52:54Z</time></trkpt><trkpt lat="45.42827264299101" lon="11.951554393642986"><ele>10.0</ele><time>2026-04-25T09:52:56Z</time></trkpt><trkpt lat="45.428214870620344" lon="11.9516086153712"><ele>10.0</ele><time>2026-04-25T09:52:58Z</time></trkpt><trkpt lat="45.42816828684193" lon="11.95167420424262"><ele>10.0</ele><time>2026-04-25T09:53:00Z</time></trkpt><trkpt lat="45.42811320248922" lon="11.951725450665657"><ele>10.0</ele><time>2026-04-25T09:53:02Z</time></trkpt><trkpt lat="45.42806601194713" lon="11.951791910108966"><ele>10.0</ele><time>2026-04-25T09:53:04Z</time></trkpt><trkpt lat="45.42801939706078" lon="11.951854334238647"><ele>10.166666666666668</ele><time>2026-04-25T09:53:06Z</time></trkpt><trkpt lat="45.42794267569851" lon="11.951941106551024"><ele>10.333333333333334</ele><time>2026-04-25T09:53:09Z</time></trkpt><trkpt lat="45.42786496760386" lon="11.952020812288229"><ele>10.5</ele><time>2026-04-25T09:53:12Z</time></trkpt><trkpt lat="45.42780540357783" lon="11.952084030580192"><ele>10.666666666666666</ele><time>2026-04-25T09:53:14Z</time></trkpt><trkpt lat="45.4277515306477" lon="11.952142297408047"><ele>10.833333333333332</ele><time>2026-04-25T09:53:16Z</time></trkpt><trkpt lat="45.42768908389439" lon="11.952176087945146"><ele>11.0</ele><time>2026-04-25T09:53:19Z</time></trkpt><trkpt lat="45.42761469465755" lon="11.95224313536906"><ele>11.0</ele><time>2026-04-25T09:53:22Z</time></trkpt><trkpt lat="45.42758025170405" lon="11.95216463471806"><ele>11.0</ele><time>2026-04-25T09:53:25Z</time></trkpt><trkpt lat="45.42754244188218" lon="11.952076712915963"><ele>11.0</ele><time>2026-04-25T09:53:29Z</time></trkpt><trkpt lat="45.42750668587442" lon="11.952002466841302"><ele>11.0</ele><time>2026-04-25T09:53:35Z</time></trkpt><trkpt lat="45.427459048723414" lon="11.951913100822557"><ele>11.0</ele><time>2026-04-25T09:53:47Z</time></trkpt><trkpt lat="45.42740922555485" lon="11.951821120626189"><ele>11.0</ele><time>2026-04-25T09:53:51Z</time></trkpt><trkpt lat="45.42736910266701" lon="11.951749898292043"><ele>11.0</ele><time>2026-04-25T09:53:53Z</time></trkpt><trkpt lat="45.42732779962209" lon="11.951673119315203"><ele>11.0</ele><time>2026-04-25T09:53:55Z</time></trkpt><trkpt lat="45.42728690751077" lon="11.951597378550963"><ele>11.0</ele><time>2026-04-25T09:53:57Z</time></trkpt><trkpt lat="45.427228659150366" lon="11.95149366414017"><ele>11.0</ele><time>2026-04-25T09:54:00Z</time></trkpt><trkpt lat="45.427181675070244" lon="11.95139648544234"><ele>11.0</ele><time>2026-04-25T09:54:02Z</time></trkpt><trkpt lat="45.4271356828051" lon="11.95131461825327"><ele>11.0</ele><time>2026-04-25T09:54:04Z</time></trkpt><trkpt lat="45.42707107534046" lon="11.951262320017165"><ele>11.0</ele><time>2026-04-25T09:54:08Z</time></trkpt><trkpt lat="45.42699886480298" lon="11.95134716022775"><ele>11.0</ele><time>2026-04-25T09:54:11Z</time></trkpt><trkpt lat="45.42691967051666" lon="11.951434202561481"><ele>11.0</ele><time>2026-04-25T09:54:13Z</time></trkpt><trkpt lat="45.42684020777778" lon="11.951520420661433"><ele>11.0</ele><time>2026-04-25T09:54:15Z</time></trkpt><trkpt lat="45.42676876826557" lon="11.951599343920313"><ele>11.0</ele><time>2026-04-25T09:54:17Z</time></trkpt><trkpt lat="45.426695988664335" lon="11.95167858421866"><ele>11.0</ele><time>2026-04-25T09:54:20Z</time></trkpt><trkpt lat="45.42663086250693" lon="11.951744703624145"><ele>11.0</ele><time>2026-04-25T09:54:22Z</time></trkpt><trkpt lat="45.42653751660769" lon="11.951836033866128"><ele>11.0</ele><time>2026-04-25T09:54:24Z</time></trkpt><trkpt lat="45.426431741675046" lon="11.951883082003942"><ele>11.0</ele><time>2026-04-25T09:54:26Z</time></trkpt><trkpt lat="45.426362834286735" lon="11.952023117689826"><ele>11.0</ele><time>2026-04-25T09:54:28Z</time></trkpt><trkpt lat="45.42624166517034" lon="11.952062978719063"><ele>11.0</ele><time>2026-04-25T09:54:30Z</time></trkpt><trkpt lat="45.42615991515841" lon="11.952155899950384"><ele>11.0</ele><time>2026-04-25T09:54:32Z</time></trkpt><trkpt lat="45.42608695715123" lon="11.952241763083551"><ele>11.0</ele><time>2026-04-25T09:54:34Z</time></trkpt><trkpt lat="45.42602963262669" lon="11.952311026710596"><ele>11.0</ele><time>2026-04-25T09:54:36Z</time></trkpt><trkpt lat="45.425968388711816" lon="11.952387577644512"><ele>11.0</ele><time>2026-04-25T09:54:41Z</time></trkpt><trkpt lat="45.42591592645221" lon="11.952456612500367"><ele>11.0</ele><time>2026-04-25T09:54:43Z</time></trkpt><trkpt lat="45.42583688035608" lon="11.952562864546639"><ele>10.666666666666666</ele><time>2026-04-25T09:54:45Z</time></trkpt><trkpt lat="45.425759629185386" lon="11.952674943721362"><ele>10.333333333333332</ele><time>2026-04-25T09:54:47Z</time></trkpt><trkpt lat="45.42567530921107" lon="11.952805273740172"><ele>10.0</ele><time>2026-04-25T09:54:49Z</time></trkpt><trkpt lat="45.42563173698823" lon="11.95287341623869"><ele>9.666666666666666</ele><time>2026-04-25T09:54:50Z</time></trkpt><trkpt lat="45.425587387471964" lon="11.9529459328325"><ele>9.333333333333334</ele><time>2026-04-25T09:54:51Z</time></trkpt><trkpt lat="45.425545534356345" lon="11.953015464045079"><ele>9.0</ele><time>2026-04-25T09:54:52Z</time></trkpt><trkpt lat="45.42550255344986" lon="11.953086868862561"><ele>9.0</ele><time>2026-04-25T09:54:53Z</time></trkpt><trkpt lat="45.42545992930391" lon="11.95315791741831"><ele>9.0</ele><time>2026-04-25T09:54:54Z</time></trkpt><trkpt lat="45.42537845450389" lon="11.953296194382386"><ele>9.0</ele><time>2026-04-25T09:54:56Z</time></trkpt><trkpt lat="45.425336861559565" lon="11.953366784876962"><ele>9.0</ele><time>2026-04-25T09:54:57Z</time></trkpt><trkpt lat="45.42529564245141" lon="11.953436740907474"><ele>9.0</ele><time>2026-04-25T09:54:58Z</time></trkpt><trkpt lat="45.42521468786449" lon="11.953573601915691"><ele>9.0</ele><time>2026-04-25T09:55:00Z</time></trkpt><trkpt lat="45.42517194263756" lon="11.9536446490984"><ele>8.8</ele><time>2026-04-25T09:55:01Z</time></trkpt><trkpt lat="45.42513049230856" lon="11.953713544014839"><ele>8.600000000000001</ele><time>2026-04-25T09:55:02Z</time></trkpt><trkpt lat="45.425049740214746" lon="11.953842802341299"><ele>8.4</ele><time>2026-04-25T09:55:04Z</time></trkpt><trkpt lat="45.42496760481202" lon="11.95397205152739"><ele>8.200000000000001</ele><time>2026-04-25T09:55:06Z</time></trkpt><trkpt lat="45.42492429005396" lon="11.954041436469584"><ele>8.0</ele><time>2026-04-25T09:55:07Z</time></trkpt><trkpt lat="45.42484367993224" lon="11.95416440893886"><ele>8.0</ele><time>2026-04-25T09:55:09Z</time></trkpt><trkpt lat="45.42479953353628" lon="11.954231013346174"><ele>7.999999999999999</ele><time>2026-04-25T09:55:10Z</time></trkpt><trkpt lat="45.42474824162071" lon="11.954314294189967"><ele>8.0</ele><time>2026-04-25T09:55:11Z</time></trkpt><trkpt lat="45.4247083652437" lon="11.954385883279189"><ele>8.0</ele><time>2026-04-25T09:55:12Z</time></trkpt><trkpt lat="45.424665019064236" lon="11.954470166981853"><ele>7.999999999999999</ele><time>2026-04-25T09:55:13Z</time></trkpt><trkpt lat="45.42462488828209" lon="11.954552415416236"><ele>8.0</ele><time>2026-04-25T09:55:14Z</time></trkpt><trkpt lat="45.42458845163159" lon="11.95462966479602"><ele>8.0</ele><time>2026-04-25T09:55:15Z</time></trkpt><trkpt lat="45.42454974885516" lon="11.954714073274438"><ele>8.285714285714285</ele><time>2026-04-25T09:55:16Z</time></trkpt><trkpt lat="45.424514793670184" lon="11.954793952338528"><ele>8.571428571428571</ele><time>2026-04-25T09:55:17Z</time></trkpt><trkpt lat="45.42447792823741" lon="11.954878544324762"><ele>8.857142857142858</ele><time>2026-04-25T09:55:18Z</time></trkpt><trkpt lat="45.42444444923974" lon="11.954957437925534"><ele>9.142857142857142</ele><time>2026-04-25T09:55:19Z</time></trkpt><trkpt lat="45.42441096580862" lon="11.955036341987991"><ele>9.428571428571429</ele><time>2026-04-25T09:55:20Z</time></trkpt><trkpt lat="45.42437586715756" lon="11.9551220314203"><ele>9.714285714285714</ele><time>2026-04-25T09:55:21Z</time></trkpt><trkpt lat="45.42434289508331" lon="11.955203277512704"><ele>10.0</ele><time>2026-04-25T09:55:22Z</time></trkpt><trkpt lat="45.424310339136916" lon="11.955286548872378"><ele>10.0</ele><time>2026-04-25T09:55:23Z</time></trkpt><trkpt lat="45.4242510677896" lon="11.955442777507525"><ele>10.0</ele><time>2026-04-25T09:55:25Z</time></trkpt><trkpt lat="45.424191969218846" lon="11.955607046459681"><ele>10.0</ele><time>2026-04-25T09:55:27Z</time></trkpt><trkpt lat="45.42413463369996" lon="11.955772702877082"><ele>10.0</ele><time>2026-04-25T09:55:29Z</time></trkpt><trkpt lat="45.42408367952815" lon="11.955927155598769"><ele>10.2</ele><time>2026-04-25T09:55:31Z</time></trkpt><trkpt lat="45.42403264792604" lon="11.956085804534851"><ele>10.4</ele><time>2026-04-25T09:55:33Z</time></trkpt><trkpt lat="45.423982098039396" lon="11.956249791475532"><ele>10.600000000000001</ele><time>2026-04-25T09:55:35Z</time></trkpt><trkpt lat="45.42395745143812" lon="11.956333105639013"><ele>10.8</ele><time>2026-04-25T09:55:36Z</time></trkpt><trkpt lat="45.42391145686327" lon="11.956492203157195"><ele>11.0</ele><time>2026-04-25T09:55:38Z</time></trkpt><trkpt lat="45.42388702814146" lon="11.956578292929825"><ele>10.833333333333332</ele><time>2026-04-25T09:55:39Z</time></trkpt><trkpt lat="45.42384240268513" lon="11.95674549294436"><ele>10.666666666666666</ele><time>2026-04-25T09:55:41Z</time></trkpt><trkpt lat="45.42381989360223" lon="11.956831450850276"><ele>10.5</ele><time>2026-04-25T09:55:42Z</time></trkpt><trkpt lat="45.42379765500331" lon="11.956917208407456"><ele>10.333333333333334</ele><time>2026-04-25T09:55:43Z</time></trkpt><trkpt lat="45.42377427101208" lon="11.957007383377674"><ele>10.166666666666668</ele><time>2026-04-25T09:55:44Z</time></trkpt><trkpt lat="45.42375127884272" lon="11.957099906193388"><ele>10.0</ele><time>2026-04-25T09:55:45Z</time></trkpt><trkpt lat="45.42371026111921" lon="11.957262556148045"><ele>10.0</ele><time>2026-04-25T09:55:47Z</time></trkpt><trkpt lat="45.42368865301345" lon="11.957349935494564"><ele>10.0</ele><time>2026-04-25T09:55:48Z</time></trkpt><trkpt lat="45.4236470219597" lon="11.957521239965427"><ele>10.0</ele><time>2026-04-25T09:55:50Z</time></trkpt><trkpt lat="45.42362606706785" lon="11.957607465669025"><ele>10.0</ele><time>2026-04-25T09:55:51Z</time></trkpt><trkpt lat="45.423605231406114" lon="11.95769320076439"><ele>10.0</ele><time>2026-04-25T09:55:52Z</time></trkpt><trkpt lat="45.423582838663044" lon="11.957785430051516"><ele>10.0</ele><time>2026-04-25T09:55:53Z</time></trkpt><trkpt lat="45.42356205597111" lon="11.957875682465195"><ele>10.0</ele><time>2026-04-25T09:55:54Z</time></trkpt><trkpt lat="45.42352309876272" lon="11.95804486078786"><ele>10.0</ele><time>2026-04-25T09:55:56Z</time></trkpt><trkpt lat="45.4235018177373" lon="11.95813727729714"><ele>10.0</ele><time>2026-04-25T09:55:57Z</time></trkpt><trkpt lat="45.423482128062524" lon="11.958222783055389"><ele>10.0</ele><time>2026-04-25T09:55:58Z</time></trkpt><trkpt lat="45.4234434677879" lon="11.958390671920002"><ele>10.0</ele><time>2026-04-25T09:56:00Z</time></trkpt><trkpt lat="45.42340388098705" lon="11.958558832065338"><ele>10.166666666666668</ele><time>2026-04-25T09:56:02Z</time></trkpt><trkpt lat="45.4233832650229" lon="11.958645364860395"><ele>10.333333333333334</ele><time>2026-04-25T09:56:03Z</time></trkpt><trkpt lat="45.423362428577725" lon="11.958732823106443"><ele>10.5</ele><time>2026-04-25T09:56:04Z</time></trkpt><trkpt lat="45.423341555284956" lon="11.958820436067116"><ele>10.666666666666666</ele><time>2026-04-25T09:56:05Z</time></trkpt><trkpt lat="45.42330230547381" lon="11.958983806966659"><ele>10.833333333333332</ele><time>2026-04-25T09:56:07Z</time></trkpt><trkpt lat="45.42326275984293" lon="11.959147210230155"><ele>11.0</ele><time>2026-04-25T09:56:09Z</time></trkpt><trkpt lat="45.42322487489308" lon="11.959303751541434"><ele>10.25</ele><time>2026-04-25T09:56:11Z</time></trkpt><trkpt lat="45.42318814935363" lon="11.95945581625814"><ele>9.5</ele><time>2026-04-25T09:56:13Z</time></trkpt><trkpt lat="45.42315270361151" lon="11.959605562617124"><ele>8.75</ele><time>2026-04-25T09:56:15Z</time></trkpt><trkpt lat="45.42311753319999" lon="11.959754145796383"><ele>8.0</ele><time>2026-04-25T09:56:17Z</time></trkpt><trkpt lat="45.42307963032576" lon="11.959911075126694"><ele>8.166666666666666</ele><time>2026-04-25T09:56:19Z</time></trkpt><trkpt lat="45.42304065297241" lon="11.960037986445405"><ele>8.333333333333332</ele><time>2026-04-25T09:56:21Z</time></trkpt><trkpt lat="45.42299274120088" lon="11.960154580191139"><ele>8.5</ele><time>2026-04-25T09:56:23Z</time></trkpt><trkpt lat="45.42295705990627" lon="11.960237437056533"><ele>8.666666666666666</ele><time>2026-04-25T09:56:24Z</time></trkpt><trkpt lat="45.42291788427405" lon="11.960328408247955"><ele>8.833333333333334</ele><time>2026-04-25T09:56:25Z</time></trkpt><trkpt lat="45.42284701994743" lon="11.960374374286078"><ele>9.0</ele><time>2026-04-25T09:56:27Z</time></trkpt><trkpt lat="45.42280810625662" lon="11.960461211445876"><ele>9.5</ele><time>2026-04-25T09:56:28Z</time></trkpt><trkpt lat="45.4228336061183" lon="11.960356937798043"><ele>10.0</ele><time>2026-04-25T09:56:30Z</time></trkpt><trkpt lat="45.423077831083" lon="11.96122465500508"><ele>9.714285714285714</ele><time>2026-04-25T09:56:31Z</time></trkpt><trkpt lat="45.42306582451473" lon="11.961325193084495"><ele>9.428571428571429</ele><time>2026-04-25T09:56:32Z</time></trkpt><trkpt lat="45.423051488913835" lon="11.96142568681051"><ele>9.142857142857142</ele><time>2026-04-25T09:56:33Z</time></trkpt><trkpt lat="45.42303984279448" lon="11.961527664520418"><ele>8.857142857142858</ele><time>2026-04-25T09:56:34Z</time></trkpt><trkpt lat="45.42303000099279" lon="11.961630565673408"><ele>8.571428571428571</ele><time>2026-04-25T09:56:35Z</time></trkpt><trkpt lat="45.42301718241653" lon="11.961745579290007"><ele>8.285714285714285</ele><time>2026-04-25T09:56:36Z</time></trkpt><trkpt lat="45.423006116212946" lon="11.961856715836973"><ele>8.0</ele><time>2026-04-25T09:56:37Z</time></trkpt><trkpt lat="45.422995293816285" lon="11.96196349176414"><ele>7.857142857142857</ele><time>2026-04-25T09:56:38Z</time></trkpt><trkpt lat="45.42290780571104" lon="11.961988793574015"><ele>7.7142857142857135</ele><time>2026-04-25T09:56:39Z</time></trkpt><trkpt lat="45.42294843288018" lon="11.962090252264153"><ele>7.571428571428571</ele><time>2026-04-25T09:56:40Z</time></trkpt><trkpt lat="45.42294005393041" lon="11.962189223035308"><ele>7.428571428571429</ele><time>2026-04-25T09:56:41Z</time></trkpt><trkpt lat="45.42291325160929" lon="11.962277010614478"><ele>7.285714285714286</ele><time>2026-04-25T09:56:42Z</time></trkpt><trkpt lat="45.42289102935568" lon="11.962371771095116"><ele>7.142857142857142</ele><time>2026-04-25T09:56:43Z</time></trkpt><trkpt lat="45.42287855671002" lon="11.962468046954145"><ele>7.0</ele><time>2026-04-25T09:56:44Z</time></trkpt><trkpt lat="45.42285400239083" lon="11.962552485849626"><ele>6.666666666666667</ele><time>2026-04-25T09:56:45Z</time></trkpt><trkpt lat="45.422831870810924" lon="11.962640525976624"><ele>6.333333333333334</ele><time>2026-04-25T09:56:46Z</time></trkpt><trkpt lat="45.42277079621344" lon="11.962803301318992"><ele>6.0</ele><time>2026-04-25T09:56:48Z</time></trkpt><trkpt lat="45.42272979222367" lon="11.962964234666238"><ele>5.666666666666667</ele><time>2026-04-25T09:56:50Z</time></trkpt><trkpt lat="45.422685250199166" lon="11.9630326885587"><ele>5.333333333333334</ele><time>2026-04-25T09:56:51Z</time></trkpt><trkpt lat="45.422644356943685" lon="11.963101464431094"><ele>5.0</ele><time>2026-04-25T09:56:52Z</time></trkpt><trkpt lat="45.42261173450857" lon="11.963187952833074"><ele>5.0</ele><time>2026-04-25T09:56:53Z</time></trkpt><trkpt lat="45.422564545747875" lon="11.963342736830283"><ele>5.0</ele><time>2026-04-25T09:56:55Z</time></trkpt><trkpt lat="45.42252573979087" lon="11.963468696057944"><ele>5.0</ele><time>2026-04-25T09:56:57Z</time></trkpt><trkpt lat="45.42248763704846" lon="11.96359113650092"><ele>5.0</ele><time>2026-04-25T09:56:59Z</time></trkpt><trkpt lat="45.422452318004204" lon="11.96370385585445"><ele>5.0</ele><time>2026-04-25T09:57:01Z</time></trkpt><trkpt lat="45.42241357368271" lon="11.963801574982838"><ele>4.833333333333334</ele><time>2026-04-25T09:57:03Z</time></trkpt><trkpt lat="45.42237310990776" lon="11.963910401070118"><ele>4.666666666666667</ele><time>2026-04-25T09:57:05Z</time></trkpt><trkpt lat="45.42231673275745" lon="11.963999124327925"><ele>4.5</ele><time>2026-04-25T09:57:07Z</time></trkpt><trkpt lat="45.42226637900733" lon="11.964091223180272"><ele>4.333333333333333</ele><time>2026-04-25T09:57:09Z</time></trkpt><trkpt lat="45.422241033573506" lon="11.96420519564834"><ele>4.166666666666666</ele><time>2026-04-25T09:57:11Z</time></trkpt><trkpt lat="45.422207863540656" lon="11.96432690063706"><ele>4.0</ele><time>2026-04-25T09:57:13Z</time></trkpt><trkpt lat="45.42217577940689" lon="11.964453269767873"><ele>4.4</ele><time>2026-04-25T09:57:15Z</time></trkpt><trkpt lat="45.422144309908326" lon="11.964588535502175"><ele>4.800000000000001</ele><time>2026-04-25T09:57:17Z</time></trkpt><trkpt lat="45.42211230340314" lon="11.964720218396211"><ele>5.199999999999999</ele><time>2026-04-25T09:57:19Z</time></trkpt><trkpt lat="45.42207898362478" lon="11.96485242731721"><ele>5.6</ele><time>2026-04-25T09:57:21Z</time></trkpt><trkpt lat="45.422038443742665" lon="11.96498943279321"><ele>6.0</ele><time>2026-04-25T09:57:23Z</time></trkpt><trkpt lat="45.42200388521575" lon="11.965128537228104"><ele>6.199999999999999</ele><time>2026-04-25T09:57:25Z</time></trkpt><trkpt lat="45.421979923479704" lon="11.96527022881862"><ele>6.3999999999999995</ele><time>2026-04-25T09:57:27Z</time></trkpt><trkpt lat="45.421948117382485" lon="11.965419778602108"><ele>6.6</ele><time>2026-04-25T09:57:29Z</time></trkpt><trkpt lat="45.42190862581663" lon="11.965568556728984"><ele>6.8</ele><time>2026-04-25T09:57:31Z</time></trkpt><trkpt lat="45.42187204871981" lon="11.965723146845454"><ele>7.0</ele><time>2026-04-25T09:57:33Z</time></trkpt><trkpt lat="45.42183582266953" lon="11.965876274490407"><ele>6.5</ele><time>2026-04-25T09:57:35Z</time></trkpt><trkpt lat="45.42180447681185" lon="11.966026944909034"><ele>6.0</ele><time>2026-04-25T09:57:37Z</time></trkpt><trkpt lat="45.421769366572946" lon="11.96617893681121"><ele>5.5</ele><time>2026-04-25T09:57:39Z</time></trkpt><trkpt lat="45.42172809619517" lon="11.966332103576173"><ele>5.0</ele><time>2026-04-25T09:57:41Z</time></trkpt><trkpt lat="45.42169013493583" lon="11.96648449001321"><ele>5.0</ele><time>2026-04-25T09:57:43Z</time></trkpt><trkpt lat="45.42165943756233" lon="11.966641780359923"><ele>5.0</ele><time>2026-04-25T09:57:45Z</time></trkpt><trkpt lat="45.42162366563956" lon="11.966786866406911"><ele>5.0</ele><time>2026-04-25T09:57:47Z</time></trkpt><trkpt lat="45.421585927107806" lon="11.96693262215988"><ele>5.0</ele><time>2026-04-25T09:57:49Z</time></trkpt><trkpt lat="45.42154608632738" lon="11.967080987502523"><ele>5.0</ele><time>2026-04-25T09:57:51Z</time></trkpt><trkpt lat="45.421508581998964" lon="11.967234930616787"><ele>5.25</ele><time>2026-04-25T09:57:53Z</time></trkpt><trkpt lat="45.421467619303925" lon="11.96738528309181"><ele>5.5</ele><time>2026-04-25T09:57:55Z</time></trkpt><trkpt lat="45.4214324657558" lon="11.967536579510151"><ele>5.75</ele><time>2026-04-25T09:57:57Z</time></trkpt><trkpt lat="45.42139594162737" lon="11.9676859788317"><ele>6.0</ele><time>2026-04-25T09:57:59Z</time></trkpt><trkpt lat="45.421362868023714" lon="11.96784112584623"><ele>6.0</ele><time>2026-04-25T09:58:01Z</time></trkpt><trkpt lat="45.4213238317487" lon="11.967989031552564"><ele>6.0</ele><time>2026-04-25T09:58:03Z</time></trkpt><trkpt lat="45.42128940357462" lon="11.96813638690072"><ele>6.0</ele><time>2026-04-25T09:58:05Z</time></trkpt><trkpt lat="45.42125184947725" lon="11.968284291757401"><ele>6.0</ele><time>2026-04-25T09:58:07Z</time></trkpt><trkpt lat="45.42121857304685" lon="11.968430358744211"><ele>6.0</ele><time>2026-04-25T09:58:09Z</time></trkpt><trkpt lat="45.42118539957082" lon="11.968572622048956"><ele>6.199999999999999</ele><time>2026-04-25T09:58:11Z</time></trkpt><trkpt lat="45.42114647290542" lon="11.968712997401452"><ele>6.3999999999999995</ele><time>2026-04-25T09:58:13Z</time></trkpt><trkpt lat="45.42110709270789" lon="11.968861012846464"><ele>6.6</ele><time>2026-04-25T09:58:15Z</time></trkpt><trkpt lat="45.42106963093848" lon="11.969016223624775"><ele>6.8</ele><time>2026-04-25T09:58:17Z</time></trkpt><trkpt lat="45.421027634299335" lon="11.969167772238414"><ele>7.0</ele><time>2026-04-25T09:58:19Z</time></trkpt><trkpt lat="45.420987146937186" lon="11.969328296483441"><ele>7.0</ele><time>2026-04-25T09:58:21Z</time></trkpt><trkpt lat="45.420952445467876" lon="11.969489125221093"><ele>7.0</ele><time>2026-04-25T09:58:23Z</time></trkpt><trkpt lat="45.4209139755218" lon="11.969651113272585"><ele>7.0</ele><time>2026-04-25T09:58:25Z</time></trkpt><trkpt lat="45.42087860218929" lon="11.969809102028796"><ele>7.0</ele><time>2026-04-25T09:58:27Z</time></trkpt><trkpt lat="45.42083830508797" lon="11.969964452762422"><ele>7.25</ele><time>2026-04-25T09:58:29Z</time></trkpt><trkpt lat="45.42080238728637" lon="11.97013124112524"><ele>7.5</ele><time>2026-04-25T09:58:31Z</time></trkpt><trkpt lat="45.42075984515241" lon="11.970297556457117"><ele>7.75</ele><time>2026-04-25T09:58:33Z</time></trkpt><trkpt lat="45.4207235762085" lon="11.970458236574844"><ele>8.0</ele><time>2026-04-25T09:58:35Z</time></trkpt><trkpt lat="45.42068583684953" lon="11.970615163679476"><ele>8.0</ele><time>2026-04-25T09:58:37Z</time></trkpt><trkpt lat="45.42064893792234" lon="11.970773170877871"><ele>8.0</ele><time>2026-04-25T09:58:39Z</time></trkpt><trkpt lat="45.42060613039553" lon="11.970935218944195"><ele>8.0</ele><time>2026-04-25T09:58:41Z</time></trkpt><trkpt lat="45.42056785338974" lon="11.971098825042382"><ele>8.0</ele><time>2026-04-25T09:58:43Z</time></trkpt><trkpt lat="45.42052496811896" lon="11.971265049491775"><ele>8.0</ele><time>2026-04-25T09:58:45Z</time></trkpt><trkpt lat="45.42048393796699" lon="11.971430183783093"><ele>8.0</ele><time>2026-04-25T09:58:47Z</time></trkpt><trkpt lat="45.42044796339709" lon="11.971598541776222"><ele>8.0</ele><time>2026-04-25T09:58:49Z</time></trkpt><trkpt lat="45.420413011928204" lon="11.97176472940752"><ele>8.0</ele><time>2026-04-25T09:58:51Z</time></trkpt><trkpt lat="45.42037022471376" lon="11.971928830337262"><ele>8.0</ele><time>2026-04-25T09:58:53Z</time></trkpt><trkpt lat="45.42033363310269" lon="11.972095160469594"><ele>8.0</ele><time>2026-04-25T09:58:55Z</time></trkpt><trkpt lat="45.42029232259089" lon="11.972263459332648"><ele>8.0</ele><time>2026-04-25T09:58:57Z</time></trkpt><trkpt lat="45.42025344186964" lon="11.972439665370501"><ele>8.0</ele><time>2026-04-25T09:58:59Z</time></trkpt><trkpt lat="45.42023287574839" lon="11.97252548193754"><ele>8.0</ele><time>2026-04-25T09:59:00Z</time></trkpt><trkpt lat="45.420193072518465" lon="11.972698930760524"><ele>8.200000000000001</ele><time>2026-04-25T09:59:02Z</time></trkpt><trkpt lat="45.42015232827365" lon="11.972855852286369"><ele>8.4</ele><time>2026-04-25T09:59:04Z</time></trkpt><trkpt lat="45.420133615125984" lon="11.972944907424987"><ele>8.600000000000001</ele><time>2026-04-25T09:59:05Z</time></trkpt><trkpt lat="45.420091972320755" lon="11.973105661441934"><ele>8.8</ele><time>2026-04-25T09:59:07Z</time></trkpt><trkpt lat="45.420053692006746" lon="11.973274977650652"><ele>9.0</ele><time>2026-04-25T09:59:09Z</time></trkpt><trkpt lat="45.42001332284644" lon="11.973442433589167"><ele>9.25</ele><time>2026-04-25T09:59:11Z</time></trkpt><trkpt lat="45.419971055290766" lon="11.973605047231468"><ele>9.5</ele><time>2026-04-25T09:59:13Z</time></trkpt><trkpt lat="45.41993083932902" lon="11.97376558568211"><ele>9.75</ele><time>2026-04-25T09:59:15Z</time></trkpt><trkpt lat="45.41975653216687" lon="11.973805060122176"><ele>10.0</ele><time>2026-04-25T09:59:16Z</time></trkpt><trkpt lat="45.4197347883238" lon="11.973960499969078"><ele>10.0</ele><time>2026-04-25T09:59:18Z</time></trkpt><trkpt lat="45.41970162046674" lon="11.974117734850113"><ele>10.0</ele><time>2026-04-25T09:59:20Z</time></trkpt><trkpt lat="45.419666782731916" lon="11.974271233380874"><ele>10.0</ele><time>2026-04-25T09:59:22Z</time></trkpt><trkpt lat="45.41963018556605" lon="11.974429233482248"><ele>10.0</ele><time>2026-04-25T09:59:24Z</time></trkpt><trkpt lat="45.419592532052306" lon="11.974591794171104"><ele>9.75</ele><time>2026-04-25T09:59:26Z</time></trkpt><trkpt lat="45.419555180812274" lon="11.974753049892907"><ele>9.5</ele><time>2026-04-25T09:59:28Z</time></trkpt><trkpt lat="45.4195172683223" lon="11.974916081519936"><ele>9.25</ele><time>2026-04-25T09:59:30Z</time></trkpt><trkpt lat="45.41947970268221" lon="11.97507737003324"><ele>9.0</ele><time>2026-04-25T09:59:32Z</time></trkpt><trkpt lat="45.41944303995415" lon="11.975234607653984"><ele>9.0</ele><time>2026-04-25T09:59:34Z</time></trkpt><trkpt lat="45.41940598937671" lon="11.975393493038162"><ele>9.0</ele><time>2026-04-25T09:59:36Z</time></trkpt><trkpt lat="45.41937090543887" lon="11.975548377238885"><ele>9.0</ele><time>2026-04-25T09:59:38Z</time></trkpt><trkpt lat="45.419351646573446" lon="11.975633862993256"><ele>9.0</ele><time>2026-04-25T09:59:39Z</time></trkpt><trkpt lat="45.419315164912575" lon="11.97579579658955"><ele>9.0</ele><time>2026-04-25T09:59:41Z</time></trkpt><trkpt lat="45.41927803428596" lon="11.975960610762584"><ele>8.5</ele><time>2026-04-25T09:59:43Z</time></trkpt><trkpt lat="45.41924286223678" lon="11.976116733701073"><ele>8.0</ele><time>2026-04-25T09:59:45Z</time></trkpt><trkpt lat="45.419202456597006" lon="11.976268455969223"><ele>7.5</ele><time>2026-04-25T09:59:47Z</time></trkpt><trkpt lat="45.419262520066624" lon="11.976470538158726"><ele>7.0</ele><time>2026-04-25T09:59:49Z</time></trkpt><trkpt lat="45.41921684842736" lon="11.976629362889177"><ele>6.25</ele><time>2026-04-25T09:59:51Z</time></trkpt><trkpt lat="45.4190770699774" lon="11.976737769206949"><ele>5.5</ele><time>2026-04-25T09:59:53Z</time></trkpt><trkpt lat="45.41903420151758" lon="11.976896384313381"><ele>4.75</ele><time>2026-04-25T09:59:55Z</time></trkpt><trkpt lat="45.41898949372219" lon="11.977056027891058"><ele>4.0</ele><time>2026-04-25T09:59:57Z</time></trkpt><trkpt lat="45.41894513540957" lon="11.977208611495472"><ele>4.0</ele><time>2026-04-25T09:59:59Z</time></trkpt><trkpt lat="45.41889791746079" lon="11.977367838989887"><ele>4.0</ele><time>2026-04-25T10:00:01Z</time></trkpt><trkpt lat="45.41884907282886" lon="11.97753255189355"><ele>4.0</ele><time>2026-04-25T10:00:03Z</time></trkpt><trkpt lat="45.41882439660872" lon="11.97761576456761"><ele>4.0</ele><time>2026-04-25T10:00:04Z</time></trkpt><trkpt lat="45.418776740426885" lon="11.977776469801539"><ele>4.0</ele><time>2026-04-25T10:00:06Z</time></trkpt><trkpt lat="45.418728199213696" lon="11.977928750918691"><ele>4.800000000000001</ele><time>2026-04-25T10:00:08Z</time></trkpt><trkpt lat="45.418700380589634" lon="11.97800941947303"><ele>5.6000000000000005</ele><time>2026-04-25T10:00:09Z</time></trkpt><trkpt lat="45.41864630817999" lon="11.978171287577547"><ele>6.4</ele><time>2026-04-25T10:00:11Z</time></trkpt><trkpt lat="45.418594078760655" lon="11.978331539617141"><ele>7.2</ele><time>2026-04-25T10:00:13Z</time></trkpt><trkpt lat="45.418542941741265" lon="11.97848868616677"><ele>8.0</ele><time>2026-04-25T10:00:15Z</time></trkpt><trkpt lat="45.41849269111045" lon="11.978643108852662"><ele>8.0</ele><time>2026-04-25T10:00:17Z</time></trkpt><trkpt lat="45.41844341170279" lon="11.978791982692764"><ele>8.0</ele><time>2026-04-25T10:00:19Z</time></trkpt><trkpt lat="45.41839381733556" lon="11.978937418726185"><ele>8.0</ele><time>2026-04-25T10:00:21Z</time></trkpt><trkpt lat="45.418340657753824" lon="11.979087266161837"><ele>8.0</ele><time>2026-04-25T10:00:23Z</time></trkpt><trkpt lat="45.41840723027562" lon="11.979228100898641"><ele>8.0</ele><time>2026-04-25T10:00:24Z</time></trkpt><trkpt lat="45.41834219829252" lon="11.979379923418369"><ele>8.0</ele><time>2026-04-25T10:00:26Z</time></trkpt><trkpt lat="45.418204436132484" lon="11.979469615408153"><ele>8.0</ele><time>2026-04-25T10:00:28Z</time></trkpt><trkpt lat="45.41814956990309" lon="11.979612004830754"><ele>8.0</ele><time>2026-04-25T10:00:30Z</time></trkpt><trkpt lat="45.418086937409754" lon="11.97976703676646"><ele>8.0</ele><time>2026-04-25T10:00:32Z</time></trkpt><trkpt lat="45.41802921291156" lon="11.979914258701417"><ele>8.0</ele><time>2026-04-25T10:00:34Z</time></trkpt><trkpt lat="45.417972386788996" lon="11.980059189331893"><ele>8.0</ele><time>2026-04-25T10:00:36Z</time></trkpt><trkpt lat="45.417914069116954" lon="11.98020166207057"><ele>8.0</ele><time>2026-04-25T10:00:38Z</time></trkpt><trkpt lat="45.417850583807606" lon="11.980356560568778"><ele>8.0</ele><time>2026-04-25T10:00:40Z</time></trkpt><trkpt lat="45.417787576177275" lon="11.980510293656963"><ele>8.0</ele><time>2026-04-25T10:00:42Z</time></trkpt><trkpt lat="45.417728638135806" lon="11.980654097292984"><ele>8.0</ele><time>2026-04-25T10:00:44Z</time></trkpt><trkpt lat="45.41766784964697" lon="11.980804160379911"><ele>8.0</ele><time>2026-04-25T10:00:46Z</time></trkpt><trkpt lat="45.417635303686986" lon="11.980885411754647"><ele>8.0</ele><time>2026-04-25T10:00:47Z</time></trkpt><trkpt lat="45.41757688399461" lon="11.981031257234589"><ele>8.0</ele><time>2026-04-25T10:00:49Z</time></trkpt><trkpt lat="45.417516916650975" lon="11.9811809664294"><ele>8.0</ele><time>2026-04-25T10:00:51Z</time></trkpt><trkpt lat="45.41745767663224" lon="11.981328859893868"><ele>8.0</ele><time>2026-04-25T10:00:53Z</time></trkpt><trkpt lat="45.41740028082582" lon="11.981472149237906"><ele>8.0</ele><time>2026-04-25T10:00:55Z</time></trkpt><trkpt lat="45.417342634220326" lon="11.981607747516431"><ele>8.0</ele><time>2026-04-25T10:00:57Z</time></trkpt><trkpt lat="45.41727786034798" lon="11.981760715655316"><ele>8.0</ele><time>2026-04-25T10:00:59Z</time></trkpt><trkpt lat="45.41724698321512" lon="11.981839126790998"><ele>8.0</ele><time>2026-04-25T10:01:00Z</time></trkpt><trkpt lat="45.41718630828942" lon="11.981973006756965"><ele>8.0</ele><time>2026-04-25T10:01:02Z</time></trkpt><trkpt lat="45.41711563561227" lon="11.982099277868263"><ele>8.0</ele><time>2026-04-25T10:01:04Z</time></trkpt><trkpt lat="45.41707378186805" lon="11.982173335408156"><ele>8.200000000000001</ele><time>2026-04-25T10:01:05Z</time></trkpt><trkpt lat="45.41703591279023" lon="11.982246518213355"><ele>8.4</ele><time>2026-04-25T10:01:06Z</time></trkpt><trkpt lat="45.41696259762114" lon="11.982396705847028"><ele>8.600000000000001</ele><time>2026-04-25T10:01:08Z</time></trkpt><trkpt lat="45.416898266137046" lon="11.982519041902751"><ele>8.8</ele><time>2026-04-25T10:01:10Z</time></trkpt><trkpt lat="45.41683937998042" lon="11.982583389288338"><ele>9.0</ele><time>2026-04-25T10:01:12Z</time></trkpt><trkpt lat="45.41675138751619" lon="11.982687736038871"><ele>9.0</ele><time>2026-04-25T10:01:14Z</time></trkpt><trkpt lat="45.41680392555425" lon="11.983239382337304"><ele>9.0</ele><time>2026-04-25T10:01:18Z</time></trkpt><trkpt lat="45.416746138022134" lon="11.983390853712779"><ele>8.25</ele><time>2026-04-25T10:01:20Z</time></trkpt><trkpt lat="45.41668399655409" lon="11.983529739712244"><ele>7.5</ele><time>2026-04-25T10:01:22Z</time></trkpt><trkpt lat="45.41662484873817" lon="11.983675857747798"><ele>6.75</ele><time>2026-04-25T10:01:24Z</time></trkpt><trkpt lat="45.41656206066207" lon="11.983821293882007"><ele>6.0</ele><time>2026-04-25T10:01:26Z</time></trkpt><trkpt lat="45.416499775337726" lon="11.983969420689164"><ele>6.0</ele><time>2026-04-25T10:01:28Z</time></trkpt><trkpt lat="45.416441099465615" lon="11.984126679420346"><ele>6.0</ele><time>2026-04-25T10:01:30Z</time></trkpt><trkpt lat="45.41637967463633" lon="11.984276069192273"><ele>6.0</ele><time>2026-04-25T10:01:32Z</time></trkpt><trkpt lat="45.41632229593186" lon="11.984423332074934"><ele>6.0</ele><time>2026-04-25T10:01:34Z</time></trkpt><trkpt lat="45.416260896693025" lon="11.984575262506151"><ele>6.199999999999999</ele><time>2026-04-25T10:01:36Z</time></trkpt><trkpt lat="45.41620390004986" lon="11.984726612708855"><ele>6.3999999999999995</ele><time>2026-04-25T10:01:38Z</time></trkpt><trkpt lat="45.416174505226245" lon="11.984807454246576"><ele>6.6</ele><time>2026-04-25T10:01:39Z</time></trkpt><trkpt lat="45.41611132284329" lon="11.984951576117325"><ele>6.8</ele><time>2026-04-25T10:01:41Z</time></trkpt><trkpt lat="45.41605169745662" lon="11.985101221185646"><ele>7.0</ele><time>2026-04-25T10:01:43Z</time></trkpt><trkpt lat="45.415993072072254" lon="11.985251058317724"><ele>7.199999999999999</ele><time>2026-04-25T10:01:45Z</time></trkpt><trkpt lat="45.41594255500623" lon="11.98539032980682"><ele>7.3999999999999995</ele><time>2026-04-25T10:01:47Z</time></trkpt><trkpt lat="45.41591112442079" lon="11.985468879853078"><ele>7.6000000000000005</ele><time>2026-04-25T10:01:48Z</time></trkpt><trkpt lat="45.415850687429874" lon="11.985619669938568"><ele>7.800000000000001</ele><time>2026-04-25T10:01:50Z</time></trkpt><trkpt lat="45.41578945235654" lon="11.98576937167328"><ele>8.0</ele><time>2026-04-25T10:01:52Z</time></trkpt><trkpt lat="45.41573526871746" lon="11.985916403200541"><ele>8.25</ele><time>2026-04-25T10:01:54Z</time></trkpt><trkpt lat="45.415676225491644" lon="11.986068426808265"><ele>8.5</ele><time>2026-04-25T10:01:56Z</time></trkpt><trkpt lat="45.4156166431774" lon="11.986222820863805"><ele>8.75</ele><time>2026-04-25T10:01:58Z</time></trkpt><trkpt lat="45.41555518634197" lon="11.986370871115719"><ele>9.0</ele><time>2026-04-25T10:02:00Z</time></trkpt><trkpt lat="45.41549688047372" lon="11.986529188282601"><ele>9.2</ele><time>2026-04-25T10:02:02Z</time></trkpt><trkpt lat="45.415461637570886" lon="11.986605960222224"><ele>9.4</ele><time>2026-04-25T10:02:03Z</time></trkpt><trkpt lat="45.4153951071424" lon="11.986754300856871"><ele>9.6</ele><time>2026-04-25T10:02:05Z</time></trkpt><trkpt lat="45.41533045746965" lon="11.98690197872045"><ele>9.8</ele><time>2026-04-25T10:02:07Z</time></trkpt><trkpt lat="45.415271123802036" lon="11.987060691764071"><ele>10.0</ele><time>2026-04-25T10:02:09Z</time></trkpt><trkpt lat="45.41523830782644" lon="11.987137990393983"><ele>10.0</ele><time>2026-04-25T10:02:10Z</time></trkpt><trkpt lat="45.41517656807321" lon="11.987284122310664"><ele>10.0</ele><time>2026-04-25T10:02:12Z</time></trkpt><trkpt lat="45.41514699517864" lon="11.987365024593888"><ele>10.0</ele><time>2026-04-25T10:02:13Z</time></trkpt><trkpt lat="45.41508283481467" lon="11.987519825773244"><ele>10.0</ele><time>2026-04-25T10:02:15Z</time></trkpt><trkpt lat="45.41505174263447" lon="11.987600321761468"><ele>10.0</ele><time>2026-04-25T10:02:16Z</time></trkpt><trkpt lat="45.415018705613264" lon="11.9876812300765"><ele>10.0</ele><time>2026-04-25T10:02:17Z</time></trkpt><trkpt lat="45.41495520977935" lon="11.98783417349201"><ele>9.8</ele><time>2026-04-25T10:02:19Z</time></trkpt><trkpt lat="45.41489077534291" lon="11.98798168252327"><ele>9.6</ele><time>2026-04-25T10:02:21Z</time></trkpt><trkpt lat="45.41482550120596" lon="11.988122056390203"><ele>9.4</ele><time>2026-04-25T10:02:23Z</time></trkpt><trkpt lat="45.4147925788978" lon="11.98819971011095"><ele>9.2</ele><time>2026-04-25T10:02:24Z</time></trkpt><trkpt lat="45.414726743782126" lon="11.988340867440023"><ele>9.0</ele><time>2026-04-25T10:02:26Z</time></trkpt><trkpt lat="45.41466548964815" lon="11.988485633949335"><ele>8.25</ele><time>2026-04-25T10:02:28Z</time></trkpt><trkpt lat="45.41460245702023" lon="11.98862941921595"><ele>7.5</ele><time>2026-04-25T10:02:30Z</time></trkpt><trkpt lat="45.414535199471956" lon="11.988756057437962"><ele>6.75</ele><time>2026-04-25T10:02:32Z</time></trkpt><trkpt lat="45.41446741255857" lon="11.988895062206552"><ele>6.0</ele><time>2026-04-25T10:02:34Z</time></trkpt><trkpt lat="45.41439613812521" lon="11.989021144985282"><ele>6.0</ele><time>2026-04-25T10:02:36Z</time></trkpt><trkpt lat="45.41432622480367" lon="11.989160312392382"><ele>6.0</ele><time>2026-04-25T10:02:38Z</time></trkpt><trkpt lat="45.41425685428917" lon="11.989304197791078"><ele>6.0</ele><time>2026-04-25T10:02:40Z</time></trkpt><trkpt lat="45.41418541039342" lon="11.989446665385275"><ele>6.0</ele><time>2026-04-25T10:02:42Z</time></trkpt><trkpt lat="45.41398613626585" lon="11.989389961316013"><ele>6.0</ele><time>2026-04-25T10:02:43Z</time></trkpt><trkpt lat="45.413932307210196" lon="11.989516456821363"><ele>6.0</ele><time>2026-04-25T10:02:45Z</time></trkpt><trkpt lat="45.41387153532815" lon="11.989632383369342"><ele>6.0</ele><time>2026-04-25T10:02:47Z</time></trkpt><trkpt lat="45.41380355602311" lon="11.989758333245167"><ele>6.0</ele><time>2026-04-25T10:02:49Z</time></trkpt><trkpt lat="45.41373317725166" lon="11.989891385328773"><ele>6.0</ele><time>2026-04-25T10:02:51Z</time></trkpt><trkpt lat="45.41366865096389" lon="11.990031390796908"><ele>5.8</ele><time>2026-04-25T10:02:53Z</time></trkpt><trkpt lat="45.41363357158803" lon="11.990167384227396"><ele>5.6</ele><time>2026-04-25T10:02:55Z</time></trkpt><trkpt lat="45.41360920153471" lon="11.99025318433548"><ele>5.4</ele><time>2026-04-25T10:02:57Z</time></trkpt><trkpt lat="45.41356473998892" lon="11.990364705720918"><ele>5.2</ele><time>2026-04-25T10:02:59Z</time></trkpt><trkpt lat="45.41349793806953" lon="11.990488437248475"><ele>5.0</ele><time>2026-04-25T10:03:01Z</time></trkpt><trkpt lat="45.41344082673286" lon="11.990583016567387"><ele>5.0</ele><time>2026-04-25T10:03:02Z</time></trkpt><trkpt lat="45.413398799597324" lon="11.99065104006311"><ele>5.0</ele><time>2026-04-25T10:03:03Z</time></trkpt><trkpt lat="45.413356849670116" lon="11.990718938516633"><ele>5.0</ele><time>2026-04-25T10:03:04Z</time></trkpt><trkpt lat="45.413277237929165" lon="11.990847794948722"><ele>5.0</ele><time>2026-04-25T10:03:06Z</time></trkpt><trkpt lat="45.413198269318485" lon="11.990975610480202"><ele>5.0</ele><time>2026-04-25T10:03:08Z</time></trkpt><trkpt lat="45.41312217947158" lon="11.991093228489284"><ele>5.25</ele><time>2026-04-25T10:03:10Z</time></trkpt><trkpt lat="45.41304017238953" lon="11.991220254886281"><ele>5.5</ele><time>2026-04-25T10:03:12Z</time></trkpt><trkpt lat="45.41296681749746" lon="11.991337140976103"><ele>5.75</ele><time>2026-04-25T10:03:14Z</time></trkpt><trkpt lat="45.41289034736294" lon="11.991458990908281"><ele>6.0</ele><time>2026-04-25T10:03:16Z</time></trkpt><trkpt lat="45.41281236369515" lon="11.991580621670257"><ele>6.4</ele><time>2026-04-25T10:03:18Z</time></trkpt><trkpt lat="45.41273364239176" lon="11.99169921494953"><ele>6.8</ele><time>2026-04-25T10:03:20Z</time></trkpt><trkpt lat="45.41265784386382" lon="11.991801668349988"><ele>7.200000000000001</ele><time>2026-04-25T10:03:22Z</time></trkpt><trkpt lat="45.41256133804097" lon="11.991895399257507"><ele>7.6000000000000005</ele><time>2026-04-25T10:03:24Z</time></trkpt><trkpt lat="45.41248159331074" lon="11.992006550291508"><ele>8.0</ele><time>2026-04-25T10:03:26Z</time></trkpt><trkpt lat="45.41240496047178" lon="11.992118056175757"><ele>8.0</ele><time>2026-04-25T10:03:28Z</time></trkpt><trkpt lat="45.41231908439966" lon="11.992236551586293"><ele>8.0</ele><time>2026-04-25T10:03:30Z</time></trkpt><trkpt lat="45.41222760410023" lon="11.992362779869442"><ele>8.0</ele><time>2026-04-25T10:03:32Z</time></trkpt><trkpt lat="45.41214564898085" lon="11.992475865821413"><ele>8.0</ele><time>2026-04-25T10:03:34Z</time></trkpt><trkpt lat="45.412101157966006" lon="11.99254360883629"><ele>8.0</ele><time>2026-04-25T10:03:35Z</time></trkpt><trkpt lat="45.41201744044378" lon="11.992667444985326"><ele>7.800000000000001</ele><time>2026-04-25T10:03:37Z</time></trkpt><trkpt lat="45.41193506763116" lon="11.992778868416908"><ele>7.6000000000000005</ele><time>2026-04-25T10:03:39Z</time></trkpt><trkpt lat="45.41188793516859" lon="11.992842309006718"><ele>7.3999999999999995</ele><time>2026-04-25T10:03:40Z</time></trkpt><trkpt lat="45.41179921247103" lon="11.99296119405346"><ele>7.199999999999999</ele><time>2026-04-25T10:03:42Z</time></trkpt><trkpt lat="45.41171262558877" lon="11.99307101199798"><ele>7.0</ele><time>2026-04-25T10:03:44Z</time></trkpt><trkpt lat="45.4116214651218" lon="11.993184224456199"><ele>7.0</ele><time>2026-04-25T10:03:46Z</time></trkpt><trkpt lat="45.411531680192994" lon="11.993291951156344"><ele>7.0</ele><time>2026-04-25T10:03:48Z</time></trkpt><trkpt lat="45.41143863119573" lon="11.993398160405235"><ele>7.0</ele><time>2026-04-25T10:03:50Z</time></trkpt><trkpt lat="45.41134431762851" lon="11.99350341340365"><ele>7.0</ele><time>2026-04-25T10:03:52Z</time></trkpt><trkpt lat="45.41124814657282" lon="11.993605209086851"><ele>6.8</ele><time>2026-04-25T10:03:54Z</time></trkpt><trkpt lat="45.411196815178215" lon="11.99366497354444"><ele>6.6</ele><time>2026-04-25T10:03:55Z</time></trkpt><trkpt lat="45.41110358093392" lon="11.993774263010971"><ele>6.3999999999999995</ele><time>2026-04-25T10:03:57Z</time></trkpt><trkpt lat="45.41101158964613" lon="11.993881883475938"><ele>6.199999999999999</ele><time>2026-04-25T10:03:59Z</time></trkpt><trkpt lat="45.410922288653836" lon="11.993982049576076"><ele>6.0</ele><time>2026-04-25T10:04:01Z</time></trkpt><trkpt lat="45.41082798224309" lon="11.994080327682688"><ele>6.0</ele><time>2026-04-25T10:04:03Z</time></trkpt><trkpt lat="45.410735083684465" lon="11.99417713873982"><ele>6.0</ele><time>2026-04-25T10:04:05Z</time></trkpt><trkpt lat="45.41064260818335" lon="11.994274065347442"><ele>6.0</ele><time>2026-04-25T10:04:07Z</time></trkpt><trkpt lat="45.41055229591945" lon="11.994368393215368"><ele>6.0</ele><time>2026-04-25T10:04:09Z</time></trkpt><trkpt lat="45.410456791659875" lon="11.994461092731758"><ele>6.0</ele><time>2026-04-25T10:04:11Z</time></trkpt><trkpt lat="45.410360074619234" lon="11.994554969389954"><ele>6.0</ele><time>2026-04-25T10:04:13Z</time></trkpt><trkpt lat="45.410268961587114" lon="11.994643408206995"><ele>6.0</ele><time>2026-04-25T10:04:15Z</time></trkpt><trkpt lat="45.41017387607453" lon="11.994736649788104"><ele>6.0</ele><time>2026-04-25T10:04:17Z</time></trkpt><trkpt lat="45.41007977909142" lon="11.994829832593686"><ele>6.0</ele><time>2026-04-25T10:04:19Z</time></trkpt><trkpt lat="45.40998835640258" lon="11.994921029518403"><ele>6.0</ele><time>2026-04-25T10:04:21Z</time></trkpt><trkpt lat="45.40989418056814" lon="11.995015077270319"><ele>6.0</ele><time>2026-04-25T10:04:23Z</time></trkpt><trkpt lat="45.409803879861684" lon="11.9951036611483"><ele>6.0</ele><time>2026-04-25T10:04:25Z</time></trkpt><trkpt lat="45.409708918955694" lon="11.995195018684614"><ele>6.6</ele><time>2026-04-25T10:04:27Z</time></trkpt><trkpt lat="45.40961701533198" lon="11.99528343506979"><ele>7.199999999999999</ele><time>2026-04-25T10:04:29Z</time></trkpt><trkpt lat="45.409528073107296" lon="11.995369002296624"><ele>7.800000000000001</ele><time>2026-04-25T10:04:31Z</time></trkpt><trkpt lat="45.40943669585968" lon="11.995456912224697"><ele>8.4</ele><time>2026-04-25T10:04:33Z</time></trkpt><trkpt lat="45.40934892448853" lon="11.995536646518868"><ele>9.0</ele><time>2026-04-25T10:04:35Z</time></trkpt><trkpt lat="45.40925863390366" lon="11.995617137511918"><ele>9.0</ele><time>2026-04-25T10:04:37Z</time></trkpt><trkpt lat="45.409168848357616" lon="11.995697178172293"><ele>9.0</ele><time>2026-04-25T10:04:39Z</time></trkpt><trkpt lat="45.409078586859195" lon="11.995782467005323"><ele>9.0</ele><time>2026-04-25T10:04:41Z</time></trkpt><trkpt lat="45.409001033843964" lon="11.995859001241827"><ele>9.0</ele><time>2026-04-25T10:04:43Z</time></trkpt><trkpt lat="45.40892297677001" lon="11.995941595079843"><ele>9.0</ele><time>2026-04-25T10:04:45Z</time></trkpt><trkpt lat="45.40884531162758" lon="11.996029567878875"><ele>8.6</ele><time>2026-04-25T10:04:47Z</time></trkpt><trkpt lat="45.408772528774676" lon="11.996120532375373"><ele>8.2</ele><time>2026-04-25T10:04:49Z</time></trkpt><trkpt lat="45.40870849515796" lon="11.99619150620335"><ele>7.799999999999999</ele><time>2026-04-25T10:04:51Z</time></trkpt><trkpt lat="45.408645897873036" lon="11.996259211707063"><ele>7.3999999999999995</ele><time>2026-04-25T10:04:53Z</time></trkpt><trkpt lat="45.40855974493486" lon="11.996134604115579"><ele>7.0</ele><time>2026-04-25T10:04:56Z</time></trkpt><trkpt lat="45.4085105640938" lon="11.99603255873325"><ele>7.000000000000001</ele><time>2026-04-25T10:04:58Z</time></trkpt><trkpt lat="45.40849902909159" lon="11.995911700619521"><ele>7.0</ele><time>2026-04-25T10:05:00Z</time></trkpt><trkpt lat="45.40848473571813" lon="11.995787248325573"><ele>7.0</ele><time>2026-04-25T10:05:02Z</time></trkpt><trkpt lat="45.40848332899393" lon="11.995694515434392"><ele>7.0</ele><time>2026-04-25T10:05:04Z</time></trkpt><trkpt lat="45.408480749130966" lon="11.995604563049431"><ele>7.000000000000001</ele><time>2026-04-25T10:05:45Z</time></trkpt><trkpt lat="45.4084747837379" lon="11.995438935751293"><ele>7.0</ele><time>2026-04-25T10:06:18Z</time></trkpt><trkpt lat="45.40847111268904" lon="11.995329495665334"><ele>7.0</ele><time>2026-04-25T10:06:20Z</time></trkpt><trkpt lat="45.40846768988927" lon="11.995204889740556"><ele>6.999999999999999</ele><time>2026-04-25T10:06:22Z</time></trkpt><trkpt lat="45.4084653185787" lon="11.995068117268366"><ele>6.999999999999999</ele><time>2026-04-25T10:06:24Z</time></trkpt><trkpt lat="45.40846353721341" lon="11.9949247414055"><ele>7.0</ele><time>2026-04-25T10:06:26Z</time></trkpt><trkpt lat="45.40846204566182" lon="11.994781065960245"><ele>7.0</ele><time>2026-04-25T10:06:28Z</time></trkpt><trkpt lat="45.408462045660855" lon="11.994637702534446"><ele>7.0</ele><time>2026-04-25T10:06:30Z</time></trkpt><trkpt lat="45.40846204566101" lon="11.994491370259432"><ele>6.999999999999999</ele><time>2026-04-25T10:06:32Z</time></trkpt><trkpt lat="45.408466613270384" lon="11.994346660578671"><ele>6.999999999999999</ele><time>2026-04-25T10:06:34Z</time></trkpt><trkpt lat="45.4084764512748" lon="11.99420451371735"><ele>7.0</ele><time>2026-04-25T10:06:36Z</time></trkpt><trkpt lat="45.408494246749676" lon="11.994074750478738"><ele>7.0</ele><time>2026-04-25T10:06:38Z</time></trkpt><trkpt lat="45.408512784067426" lon="11.993957239034346"><ele>7.0</ele><time>2026-04-25T10:06:40Z</time></trkpt><trkpt lat="45.408538732777465" lon="11.99382721586316"><ele>6.999999999999999</ele><time>2026-04-25T10:06:42Z</time></trkpt><trkpt lat="45.40856549217543" lon="11.993698087392914"><ele>6.999999999999999</ele><time>2026-04-25T10:06:44Z</time></trkpt><trkpt lat="45.40859933016062" lon="11.99359499131929"><ele>7.0</ele><time>2026-04-25T10:06:46Z</time></trkpt><trkpt lat="45.40863846005702" lon="11.99347499701131"><ele>7.0</ele><time>2026-04-25T10:06:48Z</time></trkpt><trkpt lat="45.408681020455724" lon="11.993348439598616"><ele>7.0</ele><time>2026-04-25T10:06:50Z</time></trkpt><trkpt lat="45.40872382003937" lon="11.993224615270881"><ele>6.999999999999999</ele><time>2026-04-25T10:06:52Z</time></trkpt><trkpt lat="45.40875708294402" lon="11.993089119836275"><ele>6.999999999999999</ele><time>2026-04-25T10:06:54Z</time></trkpt><trkpt lat="45.40878068283308" lon="11.992928000464211"><ele>7.0</ele><time>2026-04-25T10:06:56Z</time></trkpt><trkpt lat="45.40880095215149" lon="11.992757835769241"><ele>7.0</ele><time>2026-04-25T10:06:58Z</time></trkpt><trkpt lat="45.40831272430047" lon="11.992232838161254"><ele>7.000000000000001</ele><time>2026-04-25T10:07:00Z</time></trkpt><trkpt lat="45.40831033557296" lon="11.992139814003338"><ele>7.0</ele><time>2026-04-25T10:07:01Z</time></trkpt><trkpt lat="45.40831074061318" lon="11.992047119413034"><ele>7.0</ele><time>2026-04-25T10:07:02Z</time></trkpt><trkpt lat="45.40830885019711" lon="11.991951674187302"><ele>7.0</ele><time>2026-04-25T10:07:03Z</time></trkpt><trkpt lat="45.408306341136914" lon="11.99185817900105"><ele>7.000000000000001</ele><time>2026-04-25T10:07:04Z</time></trkpt><trkpt lat="45.40829902522857" lon="11.991764527460061"><ele>7.0</ele><time>2026-04-25T10:07:05Z</time></trkpt><trkpt lat="45.40829720081007" lon="11.991581910466433"><ele>7.0</ele><time>2026-04-25T10:07:07Z</time></trkpt><trkpt lat="45.40829639899712" lon="11.99148645712006"><ele>7.0</ele><time>2026-04-25T10:07:08Z</time></trkpt><trkpt lat="45.40829960539059" lon="11.991393891966725"><ele>7.0</ele><time>2026-04-25T10:07:09Z</time></trkpt><trkpt lat="45.40829990829843" lon="11.991299309603493"><ele>7.0</ele><time>2026-04-25T10:07:10Z</time></trkpt><trkpt lat="45.408302514811886" lon="11.991203472711993"><ele>7.0</ele><time>2026-04-25T10:07:11Z</time></trkpt><trkpt lat="45.4082992654732" lon="11.991103017864946"><ele>7.0</ele><time>2026-04-25T10:07:12Z</time></trkpt><trkpt lat="45.40829620586856" lon="11.99100252594809"><ele>7.0</ele><time>2026-04-25T10:07:13Z</time></trkpt><trkpt lat="45.40829549532603" lon="11.990904785415017"><ele>7.142857142857142</ele><time>2026-04-25T10:07:14Z</time></trkpt><trkpt lat="45.40829768695459" lon="11.990804393938394"><ele>7.285714285714286</ele><time>2026-04-25T10:07:15Z</time></trkpt><trkpt lat="45.40829781698675" lon="11.990702969854699"><ele>7.428571428571429</ele><time>2026-04-25T10:07:16Z</time></trkpt><trkpt lat="45.408294759624184" lon="11.99060431436938"><ele>7.571428571428571</ele><time>2026-04-25T10:07:17Z</time></trkpt><trkpt lat="45.408294155838995" lon="11.990505789288129"><ele>7.7142857142857135</ele><time>2026-04-25T10:07:18Z</time></trkpt><trkpt lat="45.40829362104226" lon="11.990405956735009"><ele>7.857142857142857</ele><time>2026-04-25T10:07:19Z</time></trkpt><trkpt lat="45.40829278456198" lon="11.990305317380132"><ele>8.0</ele><time>2026-04-25T10:07:20Z</time></trkpt><trkpt lat="45.4082884140693" lon="11.990204468552328"><ele>8.0</ele><time>2026-04-25T10:07:21Z</time></trkpt><trkpt lat="45.40828610809184" lon="11.99010571423659"><ele>7.999999999999999</ele><time>2026-04-25T10:07:22Z</time></trkpt><trkpt lat="45.4082850697312" lon="11.990005700777045"><ele>8.0</ele><time>2026-04-25T10:07:23Z</time></trkpt><trkpt lat="45.408281805415854" lon="11.989905752255074"><ele>8.0</ele><time>2026-04-25T10:07:24Z</time></trkpt><trkpt lat="45.40827973471953" lon="11.989804406265614"><ele>7.999999999999999</ele><time>2026-04-25T10:07:25Z</time></trkpt><trkpt lat="45.40827898923287" lon="11.989702116692767"><ele>8.0</ele><time>2026-04-25T10:07:26Z</time></trkpt><trkpt lat="45.408277690938085" lon="11.989595975153387"><ele>8.0</ele><time>2026-04-25T10:07:27Z</time></trkpt><trkpt lat="45.4082742443798" lon="11.98949172670986"><ele>7.857142857142857</ele><time>2026-04-25T10:07:28Z</time></trkpt><trkpt lat="45.40827249825259" lon="11.989387573907168"><ele>7.7142857142857135</ele><time>2026-04-25T10:07:29Z</time></trkpt><trkpt lat="45.40827204424203" lon="11.989283525501353"><ele>7.571428571428571</ele><time>2026-04-25T10:07:30Z</time></trkpt><trkpt lat="45.408268174848665" lon="11.989179596641492"><ele>7.428571428571429</ele><time>2026-04-25T10:07:31Z</time></trkpt><trkpt lat="45.40826577326182" lon="11.989076988539791"><ele>7.285714285714286</ele><time>2026-04-25T10:07:32Z</time></trkpt><trkpt lat="45.40826722206766" lon="11.988971789925689"><ele>7.142857142857142</ele><time>2026-04-25T10:07:33Z</time></trkpt><trkpt lat="45.408266384579456" lon="11.988867576622654"><ele>7.0</ele><time>2026-04-25T10:07:34Z</time></trkpt><trkpt lat="45.408264398388006" lon="11.988766437731659"><ele>6.857142857142857</ele><time>2026-04-25T10:07:35Z</time></trkpt><trkpt lat="45.40825832374318" lon="11.988663603032036"><ele>6.714285714285714</ele><time>2026-04-25T10:07:36Z</time></trkpt><trkpt lat="45.40825815436748" lon="11.988555634567186"><ele>6.571428571428571</ele><time>2026-04-25T10:07:37Z</time></trkpt><trkpt lat="45.40825509518263" lon="11.988451540136353"><ele>6.428571428571429</ele><time>2026-04-25T10:07:38Z</time></trkpt><trkpt lat="45.40825633377687" lon="11.988350011429826"><ele>6.285714285714286</ele><time>2026-04-25T10:07:39Z</time></trkpt><trkpt lat="45.408255233491786" lon="11.988248810995808"><ele>6.142857142857142</ele><time>2026-04-25T10:07:40Z</time></trkpt><trkpt lat="45.4082515163655" lon="11.98814835075256"><ele>6.0</ele><time>2026-04-25T10:07:41Z</time></trkpt><trkpt lat="45.40824834054604" lon="11.9880451253419"><ele>5.857142857142857</ele><time>2026-04-25T10:07:42Z</time></trkpt><trkpt lat="45.40824872460576" lon="11.98794327723164"><ele>5.714285714285714</ele><time>2026-04-25T10:07:43Z</time></trkpt><trkpt lat="45.40824807240836" lon="11.987837368203653"><ele>5.571428571428571</ele><time>2026-04-25T10:07:44Z</time></trkpt><trkpt lat="45.40824938135351" lon="11.987733689175624"><ele>5.428571428571429</ele><time>2026-04-25T10:07:45Z</time></trkpt><trkpt lat="45.40824951897552" lon="11.987628667532254"><ele>5.285714285714286</ele><time>2026-04-25T10:07:46Z</time></trkpt><trkpt lat="45.40824781337937" lon="11.987521444357915"><ele>5.142857142857142</ele><time>2026-04-25T10:07:47Z</time></trkpt><trkpt lat="45.40824768108111" lon="11.987415637309327"><ele>5.0</ele><time>2026-04-25T10:07:48Z</time></trkpt><trkpt lat="45.408247236745176" lon="11.987312629804324"><ele>5.142857142857142</ele><time>2026-04-25T10:07:49Z</time></trkpt><trkpt lat="45.40824341475809" lon="11.987204355074615"><ele>5.285714285714286</ele><time>2026-04-25T10:07:50Z</time></trkpt><trkpt lat="45.40823968109644" lon="11.98709743977896"><ele>5.428571428571429</ele><time>2026-04-25T10:07:51Z</time></trkpt><trkpt lat="45.40823632561839" lon="11.986991123293992"><ele>5.571428571428571</ele><time>2026-04-25T10:07:52Z</time></trkpt><trkpt lat="45.40823103456858" lon="11.986886819712613"><ele>5.714285714285714</ele><time>2026-04-25T10:07:53Z</time></trkpt><trkpt lat="45.408229693832205" lon="11.986780784924912"><ele>5.857142857142857</ele><time>2026-04-25T10:07:54Z</time></trkpt><trkpt lat="45.408231162914795" lon="11.986678640735045"><ele>6.0</ele><time>2026-04-25T10:07:55Z</time></trkpt><trkpt lat="45.40822875400475" lon="11.986576814775546"><ele>5.999999999999999</ele><time>2026-04-25T10:07:56Z</time></trkpt><trkpt lat="45.40823014992715" lon="11.986473966783521"><ele>6.0</ele><time>2026-04-25T10:07:57Z</time></trkpt><trkpt lat="45.40822641696736" lon="11.98637243537789"><ele>6.0</ele><time>2026-04-25T10:07:58Z</time></trkpt><trkpt lat="45.40821906632161" lon="11.986270337895371"><ele>6.0</ele><time>2026-04-25T10:07:59Z</time></trkpt><trkpt lat="45.40821546459011" lon="11.986165093128713"><ele>6.0</ele><time>2026-04-25T10:08:00Z</time></trkpt><trkpt lat="45.40821124462852" lon="11.986058280631521"><ele>5.999999999999999</ele><time>2026-04-25T10:08:01Z</time></trkpt><trkpt lat="45.408203876738106" lon="11.985951812232479"><ele>6.0</ele><time>2026-04-25T10:08:02Z</time></trkpt><trkpt lat="45.40820260758052" lon="11.985846602353051"><ele>5.999999999999999</ele><time>2026-04-25T10:08:03Z</time></trkpt><trkpt lat="45.408207884129226" lon="11.985745198056346"><ele>6.0</ele><time>2026-04-25T10:08:04Z</time></trkpt><trkpt lat="45.408209281423694" lon="11.985645361935562"><ele>6.0</ele><time>2026-04-25T10:08:05Z</time></trkpt><trkpt lat="45.40820452255854" lon="11.985547908495976"><ele>6.0</ele><time>2026-04-25T10:08:06Z</time></trkpt><trkpt lat="45.40819986867633" lon="11.98544809684963"><ele>6.0</ele><time>2026-04-25T10:08:07Z</time></trkpt><trkpt lat="45.40819631770099" lon="11.985346766284012"><ele>5.999999999999999</ele><time>2026-04-25T10:08:08Z</time></trkpt><trkpt lat="45.408192716023756" lon="11.98523635650216"><ele>6.0</ele><time>2026-04-25T10:08:09Z</time></trkpt><trkpt lat="45.40818878256932" lon="11.985123368898142"><ele>6.0</ele><time>2026-04-25T10:08:10Z</time></trkpt><trkpt lat="45.40818732449991" lon="11.98501487760805"><ele>6.0</ele><time>2026-04-25T10:08:11Z</time></trkpt><trkpt lat="45.40818482763373" lon="11.984904859411794"><ele>6.0</ele><time>2026-04-25T10:08:12Z</time></trkpt><trkpt lat="45.40818082993525" lon="11.984798543084246"><ele>6.0</ele><time>2026-04-25T10:08:13Z</time></trkpt><trkpt lat="45.40817834151259" lon="11.984692853649797"><ele>6.0</ele><time>2026-04-25T10:08:14Z</time></trkpt><trkpt lat="45.40817707848075" lon="11.984583296121162"><ele>6.0</ele><time>2026-04-25T10:08:15Z</time></trkpt><trkpt lat="45.408173647778796" lon="11.984474792528106"><ele>6.166666666666667</ele><time>2026-04-25T10:08:16Z</time></trkpt><trkpt lat="45.40817407067276" lon="11.984366704684787"><ele>6.333333333333334</ele><time>2026-04-25T10:08:17Z</time></trkpt><trkpt lat="45.40817133207257" lon="11.984257018898404"><ele>6.5</ele><time>2026-04-25T10:08:18Z</time></trkpt><trkpt lat="45.40816843309928" lon="11.984148374633461"><ele>6.666666666666667</ele><time>2026-04-25T10:08:19Z</time></trkpt><trkpt lat="45.408166233678976" lon="11.984037750127964"><ele>6.833333333333334</ele><time>2026-04-25T10:08:20Z</time></trkpt><trkpt lat="45.40816497455034" lon="11.983930452572714"><ele>7.0</ele><time>2026-04-25T10:08:21Z</time></trkpt><trkpt lat="45.40816424481879" lon="11.983819748963061"><ele>6.833333333333334</ele><time>2026-04-25T10:08:22Z</time></trkpt><trkpt lat="45.40816183980228" lon="11.983711474316666"><ele>6.666666666666667</ele><time>2026-04-25T10:08:23Z</time></trkpt><trkpt lat="45.40816012686459" lon="11.983603437682895"><ele>6.5</ele><time>2026-04-25T10:08:24Z</time></trkpt><trkpt lat="45.40815673226507" lon="11.983494024257768"><ele>6.333333333333334</ele><time>2026-04-25T10:08:25Z</time></trkpt><trkpt lat="45.40815551654957" lon="11.983382904114452"><ele>6.166666666666667</ele><time>2026-04-25T10:08:26Z</time></trkpt><trkpt lat="45.40815398673237" lon="11.983272932564738"><ele>6.0</ele><time>2026-04-25T10:08:27Z</time></trkpt><trkpt lat="45.40815148676556" lon="11.983163348117417"><ele>6.0</ele><time>2026-04-25T10:08:28Z</time></trkpt><trkpt lat="45.40814756332175" lon="11.98305338024459"><ele>6.0</ele><time>2026-04-25T10:08:29Z</time></trkpt><trkpt lat="45.4081430518429" lon="11.982943701931818"><ele>6.0</ele><time>2026-04-25T10:08:30Z</time></trkpt><trkpt lat="45.4081393086215" lon="11.98283397033301"><ele>6.0</ele><time>2026-04-25T10:08:31Z</time></trkpt><trkpt lat="45.40813831302866" lon="11.982725421863297"><ele>6.0</ele><time>2026-04-25T10:08:32Z</time></trkpt><trkpt lat="45.40813538718647" lon="11.982614064678941"><ele>6.0</ele><time>2026-04-25T10:08:33Z</time></trkpt><trkpt lat="45.4081361296834" lon="11.982507350605962"><ele>5.999999999999999</ele><time>2026-04-25T10:08:34Z</time></trkpt><trkpt lat="45.40813655581829" lon="11.982400092735585"><ele>6.0</ele><time>2026-04-25T10:08:35Z</time></trkpt><trkpt lat="45.40813318038137" lon="11.98229456685299"><ele>6.0</ele><time>2026-04-25T10:08:36Z</time></trkpt><trkpt lat="45.408129395063746" lon="11.98218956589009"><ele>6.0</ele><time>2026-04-25T10:08:37Z</time></trkpt><trkpt lat="45.40812738220383" lon="11.98208535536467"><ele>6.0</ele><time>2026-04-25T10:08:38Z</time></trkpt><trkpt lat="45.40812453294594" lon="11.981982708756137"><ele>5.999999999999999</ele><time>2026-04-25T10:08:39Z</time></trkpt><trkpt lat="45.40811959082461" lon="11.981878844811582"><ele>6.0</ele><time>2026-04-25T10:08:40Z</time></trkpt><trkpt lat="45.4081135601957" lon="11.98177606282091"><ele>6.285714285714285</ele><time>2026-04-25T10:08:41Z</time></trkpt><trkpt lat="45.4081136679823" lon="11.981674085948901"><ele>6.571428571428571</ele><time>2026-04-25T10:08:42Z</time></trkpt><trkpt lat="45.408115229372264" lon="11.98157258272478"><ele>6.857142857142857</ele><time>2026-04-25T10:08:43Z</time></trkpt><trkpt lat="45.40811167426096" lon="11.98147108821641"><ele>7.142857142857142</ele><time>2026-04-25T10:08:44Z</time></trkpt><trkpt lat="45.40810689236966" lon="11.981373228675585"><ele>7.428571428571428</ele><time>2026-04-25T10:08:45Z</time></trkpt><trkpt lat="45.408105294036915" lon="11.981272359299062"><ele>7.7142857142857135</ele><time>2026-04-25T10:08:46Z</time></trkpt><trkpt lat="45.40810528978067" lon="11.981176874769057"><ele>8.0</ele><time>2026-04-25T10:08:47Z</time></trkpt><trkpt lat="45.4081074233017" lon="11.981082027835297"><ele>8.0</ele><time>2026-04-25T10:08:48Z</time></trkpt><trkpt lat="45.40810334498403" lon="11.98098748925577"><ele>7.999999999999999</ele><time>2026-04-25T10:08:49Z</time></trkpt><trkpt lat="45.408095644337536" lon="11.980893737070206"><ele>8.0</ele><time>2026-04-25T10:08:50Z</time></trkpt><trkpt lat="45.40809276125717" lon="11.980796340614054"><ele>8.0</ele><time>2026-04-25T10:08:51Z</time></trkpt><trkpt lat="45.408091208251804" lon="11.980698278935282"><ele>7.999999999999999</ele><time>2026-04-25T10:08:52Z</time></trkpt><trkpt lat="45.40808715985195" lon="11.980606788464927"><ele>8.0</ele><time>2026-04-25T10:08:53Z</time></trkpt><trkpt lat="45.40808668968819" lon="11.980514376432854"><ele>8.0</ele><time>2026-04-25T10:08:54Z</time></trkpt><trkpt lat="45.408085563117936" lon="11.980422180310072"><ele>7.833333333333333</ele><time>2026-04-25T10:08:55Z</time></trkpt><trkpt lat="45.40808078094533" lon="11.980329512041882"><ele>7.666666666666666</ele><time>2026-04-25T10:08:56Z</time></trkpt><trkpt lat="45.40808020783077" lon="11.980239354156105"><ele>7.5</ele><time>2026-04-25T10:08:57Z</time></trkpt><trkpt lat="45.408080443024076" lon="11.98014723939652"><ele>7.333333333333334</ele><time>2026-04-25T10:08:58Z</time></trkpt><trkpt lat="45.40807700381628" lon="11.97996844577039"><ele>7.166666666666667</ele><time>2026-04-25T10:09:00Z</time></trkpt><trkpt lat="45.408075573544004" lon="11.97987746750475"><ele>7.0</ele><time>2026-04-25T10:09:01Z</time></trkpt><trkpt lat="45.408076921154255" lon="11.979698100313088"><ele>6.8</ele><time>2026-04-25T10:09:03Z</time></trkpt><trkpt lat="45.40806862806947" lon="11.979519755174392"><ele>6.6</ele><time>2026-04-25T10:09:05Z</time></trkpt><trkpt lat="45.40806574859401" lon="11.979430118716325"><ele>6.3999999999999995</ele><time>2026-04-25T10:09:06Z</time></trkpt><trkpt lat="45.40806011427158" lon="11.979258707605021"><ele>6.199999999999999</ele><time>2026-04-25T10:09:08Z</time></trkpt><trkpt lat="45.408055365935645" lon="11.979088871032657"><ele>6.0</ele><time>2026-04-25T10:09:10Z</time></trkpt><trkpt lat="45.408050634411254" lon="11.978917994161183"><ele>6.0</ele><time>2026-04-25T10:09:12Z</time></trkpt><trkpt lat="45.40804369684847" lon="11.978742474419843"><ele>6.0</ele><time>2026-04-25T10:09:14Z</time></trkpt><trkpt lat="45.408047419810764" lon="11.978573518002344"><ele>6.0</ele><time>2026-04-25T10:09:16Z</time></trkpt><trkpt lat="45.40804110891788" lon="11.978404582676111"><ele>6.0</ele><time>2026-04-25T10:09:18Z</time></trkpt><trkpt lat="45.40804189959685" lon="11.978246571680765"><ele>6.0</ele><time>2026-04-25T10:09:20Z</time></trkpt><trkpt lat="45.40803289822355" lon="11.978101395081193"><ele>6.0</ele><time>2026-04-25T10:09:22Z</time></trkpt><trkpt lat="45.40804138824453" lon="11.97797139883847"><ele>6.0</ele><time>2026-04-25T10:09:24Z</time></trkpt><trkpt lat="45.40804377238823" lon="11.977874927206233"><ele>6.0</ele><time>2026-04-25T10:09:26Z</time></trkpt><trkpt lat="45.40803120634455" lon="11.97799874082818"><ele>6.0</ele><time>2026-04-25T10:10:44Z</time></trkpt><trkpt lat="45.408039380659545" lon="11.978107692954984"><ele>6.0</ele><time>2026-04-25T10:10:46Z</time></trkpt><trkpt lat="45.40804521053676" lon="11.97822744056945"><ele>6.0</ele><time>2026-04-25T10:10:48Z</time></trkpt><trkpt lat="45.40804730767384" lon="11.978402893275296"><ele>6.0</ele><time>2026-04-25T10:10:50Z</time></trkpt><trkpt lat="45.40804977751685" lon="11.97850816290528"><ele>6.0</ele><time>2026-04-25T10:10:51Z</time></trkpt><trkpt lat="45.408050100814194" lon="11.97867517174693"><ele>6.0</ele><time>2026-04-25T10:10:53Z</time></trkpt><trkpt lat="45.40804880456583" lon="11.978845559195472"><ele>6.0</ele><time>2026-04-25T10:10:55Z</time></trkpt><trkpt lat="45.40804650344597" lon="11.979013077543494"><ele>6.0</ele><time>2026-04-25T10:10:57Z</time></trkpt><trkpt lat="45.40805212261441" lon="11.979189811976935"><ele>6.0</ele><time>2026-04-25T10:10:59Z</time></trkpt><trkpt lat="45.40805566652414" lon="11.979361326646778"><ele>6.0</ele><time>2026-04-25T10:11:01Z</time></trkpt><trkpt lat="45.40805503641886" lon="11.979530129816448"><ele>6.0</ele><time>2026-04-25T10:11:03Z</time></trkpt><trkpt lat="45.40805967713305" lon="11.979700199649534"><ele>6.0</ele><time>2026-04-25T10:11:05Z</time></trkpt><trkpt lat="45.40806333070627" lon="11.97986315039341"><ele>6.0</ele><time>2026-04-25T10:11:07Z</time></trkpt><trkpt lat="45.408065925464896" lon="11.980033529626969"><ele>6.0</ele><time>2026-04-25T10:11:09Z</time></trkpt><trkpt lat="45.408068919357326" lon="11.980197674526451"><ele>6.0</ele><time>2026-04-25T10:11:11Z</time></trkpt><trkpt lat="45.4080717461842" lon="11.980376415170701"><ele>6.25</ele><time>2026-04-25T10:11:13Z</time></trkpt><trkpt lat="45.408079859141004" lon="11.980549700782642"><ele>6.5</ele><time>2026-04-25T10:11:15Z</time></trkpt><trkpt lat="45.40808329981199" lon="11.980722482555684"><ele>6.75</ele><time>2026-04-25T10:11:17Z</time></trkpt><trkpt lat="45.40808716943274" lon="11.980897885531247"><ele>7.0</ele><time>2026-04-25T10:11:19Z</time></trkpt><trkpt lat="45.40808684903378" lon="11.981070491548845"><ele>7.166666666666667</ele><time>2026-04-25T10:11:21Z</time></trkpt><trkpt lat="45.408091108995286" lon="11.981243212975917"><ele>7.333333333333334</ele><time>2026-04-25T10:11:23Z</time></trkpt><trkpt lat="45.408093704105674" lon="11.981333302282199"><ele>7.5</ele><time>2026-04-25T10:11:24Z</time></trkpt><trkpt lat="45.408096822583886" lon="11.981423089348853"><ele>7.666666666666666</ele><time>2026-04-25T10:11:25Z</time></trkpt><trkpt lat="45.4081015668832" lon="11.981597852169957"><ele>7.833333333333333</ele><time>2026-04-25T10:11:27Z</time></trkpt><trkpt lat="45.40810154661965" lon="11.981687686875393"><ele>8.0</ele><time>2026-04-25T10:11:28Z</time></trkpt><trkpt lat="45.40810643514364" lon="11.981856257449385"><ele>7.5</ele><time>2026-04-25T10:11:30Z</time></trkpt><trkpt lat="45.40811157182301" lon="11.982023113743887"><ele>7.0</ele><time>2026-04-25T10:11:32Z</time></trkpt><trkpt lat="45.40811548568282" lon="11.98219560040318"><ele>6.5</ele><time>2026-04-25T10:11:34Z</time></trkpt><trkpt lat="45.40812060520299" lon="11.982372792558687"><ele>6.0</ele><time>2026-04-25T10:11:36Z</time></trkpt><trkpt lat="45.40812335494618" lon="11.982548514747664"><ele>6.0</ele><time>2026-04-25T10:11:38Z</time></trkpt><trkpt lat="45.40813206785144" lon="11.982714815386908"><ele>6.0</ele><time>2026-04-25T10:11:40Z</time></trkpt><trkpt lat="45.40813910037182" lon="11.982885283835731"><ele>6.0</ele><time>2026-04-25T10:11:42Z</time></trkpt><trkpt lat="45.408140487341946" lon="11.982975778932026"><ele>6.0</ele><time>2026-04-25T10:11:43Z</time></trkpt><trkpt lat="45.40814121242687" lon="11.98314618833025"><ele>6.0</ele><time>2026-04-25T10:11:45Z</time></trkpt><trkpt lat="45.40813597877396" lon="11.983239508336936"><ele>6.0</ele><time>2026-04-25T10:11:46Z</time></trkpt><trkpt lat="45.40813124435676" lon="11.98333890428609"><ele>6.0</ele><time>2026-04-25T10:11:47Z</time></trkpt><trkpt lat="45.40813485419152" lon="11.983431428268364"><ele>6.0</ele><time>2026-04-25T10:11:48Z</time></trkpt><trkpt lat="45.408141195825266" lon="11.983522365520315"><ele>6.0</ele><time>2026-04-25T10:11:49Z</time></trkpt><trkpt lat="45.40815154440777" lon="11.983705048593514"><ele>6.0</ele><time>2026-04-25T10:11:51Z</time></trkpt><trkpt lat="45.40815864573534" lon="11.983796505209474"><ele>6.0</ele><time>2026-04-25T10:11:52Z</time></trkpt><trkpt lat="45.408166144518695" lon="11.983888307096333"><ele>5.8</ele><time>2026-04-25T10:11:53Z</time></trkpt><trkpt lat="45.40817124095691" lon="11.984070639006532"><ele>5.6</ele><time>2026-04-25T10:11:55Z</time></trkpt><trkpt lat="45.40817408698987" lon="11.984162319389123"><ele>5.4</ele><time>2026-04-25T10:11:56Z</time></trkpt><trkpt lat="45.40817610203011" lon="11.984256354444023"><ele>5.2</ele><time>2026-04-25T10:11:57Z</time></trkpt><trkpt lat="45.408180718306205" lon="11.984434707054387"><ele>5.0</ele><time>2026-04-25T10:11:59Z</time></trkpt><trkpt lat="45.408184789128306" lon="11.984612512983794"><ele>5.2</ele><time>2026-04-25T10:12:01Z</time></trkpt><trkpt lat="45.4081842549379" lon="11.984704236707556"><ele>5.4</ele><time>2026-04-25T10:12:02Z</time></trkpt><trkpt lat="45.40817967249941" lon="11.984881305649974"><ele>5.6</ele><time>2026-04-25T10:12:04Z</time></trkpt><trkpt lat="45.408185798333975" lon="11.985055978105414"><ele>5.8</ele><time>2026-04-25T10:12:06Z</time></trkpt><trkpt lat="45.408182801766344" lon="11.985225588217643"><ele>6.0</ele><time>2026-04-25T10:12:08Z</time></trkpt><trkpt lat="45.40818949948834" lon="11.985394003090274"><ele>6.0</ele><time>2026-04-25T10:12:10Z</time></trkpt><trkpt lat="45.408197070677936" lon="11.985553947022968"><ele>6.0</ele><time>2026-04-25T10:12:12Z</time></trkpt><trkpt lat="45.408198311374804" lon="11.985703694422757"><ele>6.0</ele><time>2026-04-25T10:12:14Z</time></trkpt><trkpt lat="45.40820733422714" lon="11.985867782727562"><ele>6.0</ele><time>2026-04-25T10:12:16Z</time></trkpt><trkpt lat="45.40820901978467" lon="11.986041423216118"><ele>6.0</ele><time>2026-04-25T10:12:18Z</time></trkpt><trkpt lat="45.408215743316994" lon="11.98621844122407"><ele>6.0</ele><time>2026-04-25T10:12:20Z</time></trkpt><trkpt lat="45.408220708144206" lon="11.986310473194074"><ele>6.0</ele><time>2026-04-25T10:12:21Z</time></trkpt><trkpt lat="45.40822094629401" lon="11.986483055071288"><ele>6.0</ele><time>2026-04-25T10:12:23Z</time></trkpt><trkpt lat="45.40822686696105" lon="11.986658249710088"><ele>6.0</ele><time>2026-04-25T10:12:25Z</time></trkpt><trkpt lat="45.408228796111935" lon="11.986835065149128"><ele>6.25</ele><time>2026-04-25T10:12:27Z</time></trkpt><trkpt lat="45.40823679375779" lon="11.987008478326311"><ele>6.5</ele><time>2026-04-25T10:12:29Z</time></trkpt><trkpt lat="45.408233442568346" lon="11.987183705191974"><ele>6.75</ele><time>2026-04-25T10:12:31Z</time></trkpt><trkpt lat="45.40823950142221" lon="11.987353272295897"><ele>7.0</ele><time>2026-04-25T10:12:33Z</time></trkpt><trkpt lat="45.40824624362968" lon="11.987522644548019"><ele>6.5</ele><time>2026-04-25T10:12:35Z</time></trkpt><trkpt lat="45.408249825528024" lon="11.987687412282202"><ele>6.0</ele><time>2026-04-25T10:12:37Z</time></trkpt><trkpt lat="45.4082466035766" lon="11.987855049497432"><ele>5.5</ele><time>2026-04-25T10:12:39Z</time></trkpt><trkpt lat="45.408247713223744" lon="11.988026297941234"><ele>5.0</ele><time>2026-04-25T10:12:41Z</time></trkpt><trkpt lat="45.40825191373523" lon="11.988193778415745"><ele>5.25</ele><time>2026-04-25T10:12:43Z</time></trkpt><trkpt lat="45.40825080933072" lon="11.988362977698918"><ele>5.5</ele><time>2026-04-25T10:12:45Z</time></trkpt><trkpt lat="45.40825543648192" lon="11.988532684241484"><ele>5.75</ele><time>2026-04-25T10:12:47Z</time></trkpt><trkpt lat="45.40825868287473" lon="11.988703381018087"><ele>6.0</ele><time>2026-04-25T10:12:49Z</time></trkpt><trkpt lat="45.408258581636325" lon="11.98887197963333"><ele>6.0</ele><time>2026-04-25T10:12:51Z</time></trkpt><trkpt lat="45.4082597390618" lon="11.989050933668592"><ele>6.0</ele><time>2026-04-25T10:12:53Z</time></trkpt><trkpt lat="45.40825762350907" lon="11.989142797472281"><ele>6.0</ele><time>2026-04-25T10:12:54Z</time></trkpt><trkpt lat="45.408263698725165" lon="11.989314868956734"><ele>6.0</ele><time>2026-04-25T10:12:56Z</time></trkpt><trkpt lat="45.40826250977957" lon="11.989407473515627"><ele>6.0</ele><time>2026-04-25T10:12:57Z</time></trkpt><trkpt lat="45.40826450995215" lon="11.989583632301102"><ele>6.25</ele><time>2026-04-25T10:12:59Z</time></trkpt><trkpt lat="45.40827029616947" lon="11.989754324195761"><ele>6.5</ele><time>2026-04-25T10:13:01Z</time></trkpt><trkpt lat="45.40827295166708" lon="11.989928855763285"><ele>6.75</ele><time>2026-04-25T10:13:03Z</time></trkpt><trkpt lat="45.40827479186583" lon="11.99009056243994"><ele>7.0</ele><time>2026-04-25T10:13:05Z</time></trkpt><trkpt lat="45.40827377201049" lon="11.990255504688246"><ele>7.0</ele><time>2026-04-25T10:13:07Z</time></trkpt><trkpt lat="45.408283274841686" lon="11.990423998026726"><ele>7.0</ele><time>2026-04-25T10:13:09Z</time></trkpt><trkpt lat="45.40828263215988" lon="11.990593392133349"><ele>7.0</ele><time>2026-04-25T10:13:11Z</time></trkpt><trkpt lat="45.4082857427151" lon="11.990754587538936"><ele>7.0</ele><time>2026-04-25T10:13:13Z</time></trkpt><trkpt lat="45.40829160335815" lon="11.990920649260524"><ele>7.0</ele><time>2026-04-25T10:13:15Z</time></trkpt><trkpt lat="45.408294489025906" lon="11.991010336623528"><ele>6.999999999999999</ele><time>2026-04-25T10:13:16Z</time></trkpt><trkpt lat="45.40829764421741" lon="11.99118177695667"><ele>6.999999999999999</ele><time>2026-04-25T10:13:18Z</time></trkpt><trkpt lat="45.40829732046859" lon="11.991356926465455"><ele>7.0</ele><time>2026-04-25T10:13:20Z</time></trkpt><trkpt lat="45.408301118385026" lon="11.991522354961418"><ele>7.0</ele><time>2026-04-25T10:13:22Z</time></trkpt><trkpt lat="45.408300580367424" lon="11.991695784386511"><ele>6.75</ele><time>2026-04-25T10:13:24Z</time></trkpt><trkpt lat="45.40830749121386" lon="11.99185804095746"><ele>6.5</ele><time>2026-04-25T10:13:26Z</time></trkpt><trkpt lat="45.40830996066454" lon="11.992031145538208"><ele>6.25</ele><time>2026-04-25T10:13:28Z</time></trkpt><trkpt lat="45.40831064650731" lon="11.992197640702605"><ele>6.0</ele><time>2026-04-25T10:13:30Z</time></trkpt><trkpt lat="45.40831908011442" lon="11.992365104765362"><ele>6.25</ele><time>2026-04-25T10:13:32Z</time></trkpt><trkpt lat="45.40832232386893" lon="11.992529218896195"><ele>6.5</ele><time>2026-04-25T10:13:34Z</time></trkpt><trkpt lat="45.40832369179265" lon="11.992694800053517"><ele>6.75</ele><time>2026-04-25T10:13:36Z</time></trkpt><trkpt lat="45.408324758132714" lon="11.992861293661267"><ele>7.0</ele><time>2026-04-25T10:13:38Z</time></trkpt><trkpt lat="45.4083289685072" lon="11.993017984506642"><ele>7.0</ele><time>2026-04-25T10:13:40Z</time></trkpt><trkpt lat="45.408327996209245" lon="11.99318395208227"><ele>7.0</ele><time>2026-04-25T10:13:42Z</time></trkpt><trkpt lat="45.40833287762438" lon="11.993344748147994"><ele>7.0</ele><time>2026-04-25T10:13:44Z</time></trkpt><trkpt lat="45.40834622589146" lon="11.99350705365575"><ele>7.0</ele><time>2026-04-25T10:13:46Z</time></trkpt><trkpt lat="45.40835366941931" lon="11.99366307541133"><ele>7.0</ele><time>2026-04-25T10:13:48Z</time></trkpt><trkpt lat="45.40837503748881" lon="11.993819110519487"><ele>6.999999999999999</ele><time>2026-04-25T10:13:50Z</time></trkpt><trkpt lat="45.408358949186905" lon="11.993974615021667"><ele>6.999999999999999</ele><time>2026-04-25T10:13:52Z</time></trkpt><trkpt lat="45.40835016414942" lon="11.994136852106273"><ele>7.0</ele><time>2026-04-25T10:13:54Z</time></trkpt><trkpt lat="45.408362239723274" lon="11.994288602984973"><ele>7.0</ele><time>2026-04-25T10:13:56Z</time></trkpt><trkpt lat="45.40836791593272" lon="11.994445234913023"><ele>7.0</ele><time>2026-04-25T10:13:58Z</time></trkpt><trkpt lat="45.408369225643064" lon="11.994591899945823"><ele>6.999999999999999</ele><time>2026-04-25T10:14:00Z</time></trkpt><trkpt lat="45.408379302863004" lon="11.994735239562873"><ele>6.999999999999999</ele><time>2026-04-25T10:14:02Z</time></trkpt><trkpt lat="45.40838441752935" lon="11.994875372985845"><ele>7.0</ele><time>2026-04-25T10:14:04Z</time></trkpt><trkpt lat="45.40839326645072" lon="11.995004559798298"><ele>7.0</ele><time>2026-04-25T10:14:06Z</time></trkpt><trkpt lat="45.40840338257431" lon="11.995134078911402"><ele>7.0</ele><time>2026-04-25T10:14:08Z</time></trkpt><trkpt lat="45.40841117741779" lon="11.995265298792672"><ele>6.999999999999999</ele><time>2026-04-25T10:14:10Z</time></trkpt><trkpt lat="45.408413542824256" lon="11.995406781281904"><ele>6.999999999999999</ele><time>2026-04-25T10:14:12Z</time></trkpt><trkpt lat="45.40842845440305" lon="11.995540912674025"><ele>7.0</ele><time>2026-04-25T10:14:14Z</time></trkpt><trkpt lat="45.408433117456035" lon="11.995679277286511"><ele>7.0</ele><time>2026-04-25T10:14:16Z</time></trkpt><trkpt lat="45.408437679904836" lon="11.995821024381836"><ele>7.0</ele><time>2026-04-25T10:14:18Z</time></trkpt><trkpt lat="45.408438488431194" lon="11.995960730722627"><ele>6.999999999999999</ele><time>2026-04-25T10:14:20Z</time></trkpt><trkpt lat="45.40847077889647" lon="11.99609410130803"><ele>6.999999999999999</ele><time>2026-04-25T10:14:22Z</time></trkpt><trkpt lat="45.408522184297425" lon="11.996215222444164"><ele>7.0</ele><time>2026-04-25T10:14:24Z</time></trkpt><trkpt lat="45.40856760856764" lon="11.996341444785617"><ele>7.0</ele><time>2026-04-25T10:14:26Z</time></trkpt><trkpt lat="45.408618615829916" lon="11.996450160813009"><ele>7.0</ele><time>2026-04-25T10:14:28Z</time></trkpt><trkpt lat="45.40866537310418" lon="11.996553447381833"><ele>6.999999999999999</ele><time>2026-04-25T10:14:30Z</time></trkpt><trkpt lat="45.40871335128636" lon="11.99666452008006"><ele>6.999999999999999</ele><time>2026-04-25T10:14:32Z</time></trkpt><trkpt lat="45.40876581777053" lon="11.996780401662186"><ele>7.0</ele><time>2026-04-25T10:14:34Z</time></trkpt><trkpt lat="45.40881370213179" lon="11.996888367302688"><ele>7.0</ele><time>2026-04-25T10:14:36Z</time></trkpt><trkpt lat="45.40885708088143" lon="11.997005129825185"><ele>6.8</ele><time>2026-04-25T10:14:38Z</time></trkpt><trkpt lat="45.40890870817698" lon="11.997123691319109"><ele>6.6</ele><time>2026-04-25T10:14:40Z</time></trkpt><trkpt lat="45.40895424851088" lon="11.997239449788387"><ele>6.3999999999999995</ele><time>2026-04-25T10:14:42Z</time></trkpt><trkpt lat="45.409002109572484" lon="11.997350549876773"><ele>6.199999999999999</ele><time>2026-04-25T10:14:44Z</time></trkpt><trkpt lat="45.409048355811784" lon="11.997456196369122"><ele>6.0</ele><time>2026-04-25T10:14:46Z</time></trkpt><trkpt lat="45.4090886350759" lon="11.997559548510157"><ele>6.0</ele><time>2026-04-25T10:14:48Z</time></trkpt><trkpt lat="45.40912500251492" lon="11.997651445463866"><ele>6.0</ele><time>2026-04-25T10:14:50Z</time></trkpt><trkpt lat="45.40915729114558" lon="11.99773949751096"><ele>6.0</ele><time>2026-04-25T10:14:52Z</time></trkpt><trkpt lat="45.4090792692089" lon="11.997895547790666"><ele>6.0</ele><time>2026-04-25T10:14:55Z</time></trkpt><trkpt lat="45.40900180174366" lon="11.997962048687784"><ele>6.0</ele><time>2026-04-25T10:14:57Z</time></trkpt><trkpt lat="45.408917307757164" lon="11.998034581606769"><ele>6.0</ele><time>2026-04-25T10:14:59Z</time></trkpt><trkpt lat="45.4088232716004" lon="11.998094917693935"><ele>6.0</ele><time>2026-04-25T10:15:01Z</time></trkpt><trkpt lat="45.408738499013886" lon="11.998185845932893"><ele>6.0</ele><time>2026-04-25T10:15:03Z</time></trkpt><trkpt lat="45.408661018400906" lon="11.998289025340839"><ele>6.0</ele><time>2026-04-25T10:15:05Z</time></trkpt><trkpt lat="45.40858853082831" lon="11.998417813105265"><ele>6.0</ele><time>2026-04-25T10:15:07Z</time></trkpt><trkpt lat="45.4085258791744" lon="11.998554114521106"><ele>6.0</ele><time>2026-04-25T10:15:09Z</time></trkpt><trkpt lat="45.4085026607879" lon="11.998709338275988"><ele>6.0</ele><time>2026-04-25T10:15:11Z</time></trkpt><trkpt lat="45.40849739254768" lon="11.99886795669924"><ele>6.0</ele><time>2026-04-25T10:15:13Z</time></trkpt><trkpt lat="45.408496136047745" lon="11.999025367774262"><ele>6.0</ele><time>2026-04-25T10:15:15Z</time></trkpt><trkpt lat="45.408494646942316" lon="11.99918627602104"><ele>6.0</ele><time>2026-04-25T10:15:17Z</time></trkpt><trkpt lat="45.408501102999914" lon="11.999345434830293"><ele>6.25</ele><time>2026-04-25T10:15:19Z</time></trkpt><trkpt lat="45.40849303849979" lon="11.999499554112203"><ele>6.5</ele><time>2026-04-25T10:15:21Z</time></trkpt><trkpt lat="45.408499453633105" lon="11.999656163565978"><ele>6.75</ele><time>2026-04-25T10:15:23Z</time></trkpt><trkpt lat="45.40850111691441" lon="11.999801655503271"><ele>7.0</ele><time>2026-04-25T10:15:25Z</time></trkpt><trkpt lat="45.40836717563711" lon="11.999856427568563"><ele>7.0</ele><time>2026-04-25T10:15:27Z</time></trkpt><trkpt lat="45.4082673490411" lon="11.999823453133024"><ele>7.0</ele><time>2026-04-25T10:15:29Z</time></trkpt><trkpt lat="45.408170698230805" lon="11.999837583815182"><ele>7.0</ele><time>2026-04-25T10:15:31Z</time></trkpt><trkpt lat="45.4080324558775" lon="11.999844007825475"><ele>7.0</ele><time>2026-04-25T10:15:34Z</time></trkpt><trkpt lat="45.4079796516111" lon="11.999690266340814"><ele>6.8</ele><time>2026-04-25T10:15:39Z</time></trkpt><trkpt lat="45.407985867701434" lon="11.999563750146452"><ele>6.6</ele><time>2026-04-25T10:15:41Z</time></trkpt><trkpt lat="45.407987443295305" lon="11.99943387752051"><ele>6.3999999999999995</ele><time>2026-04-25T10:15:43Z</time></trkpt><trkpt lat="45.407982254831225" lon="11.999290369568678"><ele>6.199999999999999</ele><time>2026-04-25T10:15:45Z</time></trkpt><trkpt lat="45.40800077050665" lon="11.999155361694463"><ele>6.0</ele><time>2026-04-25T10:15:47Z</time></trkpt><trkpt lat="45.407994652264414" lon="11.999009896410604"><ele>6.0</ele><time>2026-04-25T10:15:49Z</time></trkpt><trkpt lat="45.40800862815504" lon="11.998891468237847"><ele>6.0</ele><time>2026-04-25T10:15:51Z</time></trkpt><trkpt lat="45.4078272410323" lon="11.998939864929204"><ele>6.0</ele><time>2026-04-25T10:15:56Z</time></trkpt><trkpt lat="45.407762479469504" lon="11.999000222906991"><ele>6.0</ele><time>2026-04-25T10:15:58Z</time></trkpt><trkpt lat="45.40769114192153" lon="11.99905735239307"><ele>6.0</ele><time>2026-04-25T10:16:00Z</time></trkpt><trkpt lat="45.40761901001372" lon="11.999111266613616"><ele>6.8</ele><time>2026-04-25T10:16:02Z</time></trkpt><trkpt lat="45.40755109451803" lon="11.999169590265929"><ele>7.6</ele><time>2026-04-25T10:16:04Z</time></trkpt><trkpt lat="45.40747921525621" lon="11.999245841216439"><ele>8.4</ele><time>2026-04-25T10:16:06Z</time></trkpt><trkpt lat="45.40738876903651" lon="11.999320789727038"><ele>9.2</ele><time>2026-04-25T10:16:08Z</time></trkpt><trkpt lat="45.407310065274885" lon="11.999393502754941"><ele>10.0</ele><time>2026-04-25T10:16:10Z</time></trkpt><trkpt lat="45.407213439266506" lon="11.999461455499022"><ele>8.5</ele><time>2026-04-25T10:16:12Z</time></trkpt><trkpt lat="45.407114073658406" lon="11.999545072853882"><ele>7.0</ele><time>2026-04-25T10:16:14Z</time></trkpt><trkpt lat="45.40701750484339" lon="11.999621914119247"><ele>5.5</ele><time>2026-04-25T10:16:16Z</time></trkpt><trkpt lat="45.40691739108037" lon="11.999703999641042"><ele>4.0</ele><time>2026-04-25T10:16:18Z</time></trkpt><trkpt lat="45.406823082775446" lon="11.999779529191905"><ele>4.0</ele><time>2026-04-25T10:16:20Z</time></trkpt><trkpt lat="45.406729706598085" lon="11.999858685948341"><ele>4.0</ele><time>2026-04-25T10:16:22Z</time></trkpt><trkpt lat="45.406624066462065" lon="11.9999460122826"><ele>4.0</ele><time>2026-04-25T10:16:24Z</time></trkpt><trkpt lat="45.40651710445628" lon="12.000032571402697"><ele>4.0</ele><time>2026-04-25T10:16:26Z</time></trkpt><trkpt lat="45.40641973717102" lon="12.000116771943249"><ele>3.2</ele><time>2026-04-25T10:16:28Z</time></trkpt><trkpt lat="45.40631929731748" lon="12.000210502556198"><ele>2.4000000000000004</ele><time>2026-04-25T10:16:30Z</time></trkpt><trkpt lat="45.40623896755645" lon="12.000310937063984"><ele>1.6</ele><time>2026-04-25T10:16:32Z</time></trkpt><trkpt lat="45.40617245266606" lon="12.00032584893158"><ele>0.8</ele><time>2026-04-25T10:16:33Z</time></trkpt><trkpt lat="45.40611601072133" lon="12.000372869736676"><ele>0.0</ele><time>2026-04-25T10:16:34Z</time></trkpt><trkpt lat="45.406011754552814" lon="12.000459118689692"><ele>0.0</ele><time>2026-04-25T10:16:36Z</time></trkpt><trkpt lat="45.4059110869141" lon="12.000537616010948"><ele>0.0</ele><time>2026-04-25T10:16:38Z</time></trkpt><trkpt lat="45.405810916801286" lon="12.000631188802076"><ele>0.0</ele><time>2026-04-25T10:16:40Z</time></trkpt><trkpt lat="45.4057107661629" lon="12.000718189059905"><ele>0.0</ele><time>2026-04-25T10:16:42Z</time></trkpt><trkpt lat="45.405612233376495" lon="12.000795654687119"><ele>0.6</ele><time>2026-04-25T10:16:44Z</time></trkpt><trkpt lat="45.405510886632875" lon="12.000885025196787"><ele>1.2</ele><time>2026-04-25T10:16:46Z</time></trkpt><trkpt lat="45.40541048322658" lon="12.000982381718034"><ele>1.7999999999999998</ele><time>2026-04-25T10:16:48Z</time></trkpt><trkpt lat="45.40530068311309" lon="12.00107098758334"><ele>2.4</ele><time>2026-04-25T10:16:50Z</time></trkpt><trkpt lat="45.40524457130068" lon="12.00111853707491"><ele>3.0</ele><time>2026-04-25T10:16:51Z</time></trkpt><trkpt lat="45.40518921463819" lon="12.001163096498146"><ele>3.0</ele><time>2026-04-25T10:16:52Z</time></trkpt><trkpt lat="45.40513520963669" lon="12.001209664903111"><ele>3.0</ele><time>2026-04-25T10:16:53Z</time></trkpt><trkpt lat="45.40502525086324" lon="12.001303013224943"><ele>3.0</ele><time>2026-04-25T10:16:55Z</time></trkpt><trkpt lat="45.40496905699752" lon="12.001347594934124"><ele>3.0</ele><time>2026-04-25T10:16:56Z</time></trkpt><trkpt lat="45.40486714302289" lon="12.001448856480694"><ele>3.0</ele><time>2026-04-25T10:16:58Z</time></trkpt><trkpt lat="45.40476320389023" lon="12.001544164900697"><ele>3.0</ele><time>2026-04-25T10:17:00Z</time></trkpt><trkpt lat="45.40470733476064" lon="12.001591200940714"><ele>3.0</ele><time>2026-04-25T10:17:01Z</time></trkpt><trkpt lat="45.404600901127324" lon="12.001675955424579"><ele>3.0</ele><time>2026-04-25T10:17:03Z</time></trkpt><trkpt lat="45.40449365067328" lon="12.001765763610592"><ele>3.0</ele><time>2026-04-25T10:17:05Z</time></trkpt><trkpt lat="45.40438607435297" lon="12.00185722634717"><ele>3.0</ele><time>2026-04-25T10:17:07Z</time></trkpt><trkpt lat="45.40427991183379" lon="12.001950795700745"><ele>3.25</ele><time>2026-04-25T10:17:09Z</time></trkpt><trkpt lat="45.404174261168386" lon="12.002036301692737"><ele>3.5</ele><time>2026-04-25T10:17:11Z</time></trkpt><trkpt lat="45.40407120333322" lon="12.002128134726952"><ele>3.75</ele><time>2026-04-25T10:17:13Z</time></trkpt><trkpt lat="45.40396894576791" lon="12.00221419358022"><ele>4.0</ele><time>2026-04-25T10:17:15Z</time></trkpt><trkpt lat="45.403868967869556" lon="12.002300802353927"><ele>4.0</ele><time>2026-04-25T10:17:17Z</time></trkpt><trkpt lat="45.403768206032154" lon="12.002388520605118"><ele>4.0</ele><time>2026-04-25T10:17:19Z</time></trkpt><trkpt lat="45.40366544422119" lon="12.002471419468803"><ele>4.0</ele><time>2026-04-25T10:17:21Z</time></trkpt><trkpt lat="45.40365371900808" lon="12.002657517271723"><ele>4.0</ele><time>2026-04-25T10:17:22Z</time></trkpt><trkpt lat="45.40355477019161" lon="12.00271902041771"><ele>4.0</ele><time>2026-04-25T10:17:24Z</time></trkpt><trkpt lat="45.40345707426602" lon="12.002799419800976"><ele>4.0</ele><time>2026-04-25T10:17:26Z</time></trkpt><trkpt lat="45.40336224619502" lon="12.00288435580121"><ele>4.0</ele><time>2026-04-25T10:17:28Z</time></trkpt><trkpt lat="45.40326512318994" lon="12.002974269490341"><ele>4.0</ele><time>2026-04-25T10:17:30Z</time></trkpt><trkpt lat="45.403158650962105" lon="12.00307138353142"><ele>4.0</ele><time>2026-04-25T10:17:32Z</time></trkpt><trkpt lat="45.40306004150238" lon="12.003157097529547"><ele>4.0</ele><time>2026-04-25T10:17:34Z</time></trkpt><trkpt lat="45.402959170555654" lon="12.003244778240798"><ele>4.0</ele><time>2026-04-25T10:17:36Z</time></trkpt><trkpt lat="45.40286699101602" lon="12.003322520528085"><ele>4.0</ele><time>2026-04-25T10:17:38Z</time></trkpt><trkpt lat="45.40280814007589" lon="12.00337271233468"><ele>4.0</ele><time>2026-04-25T10:17:39Z</time></trkpt><trkpt lat="45.40270464794912" lon="12.00346097696348"><ele>3.5</ele><time>2026-04-25T10:17:41Z</time></trkpt><trkpt lat="45.40260559298228" lon="12.003545457245465"><ele>3.0</ele><time>2026-04-25T10:17:43Z</time></trkpt><trkpt lat="45.402509977545755" lon="12.003627185399921"><ele>2.5</ele><time>2026-04-25T10:17:45Z</time></trkpt><trkpt lat="45.402405556855236" lon="12.00371783627084"><ele>2.0</ele><time>2026-04-25T10:17:47Z</time></trkpt><trkpt lat="45.402308547284484" lon="12.003802423158353"><ele>2.0</ele><time>2026-04-25T10:17:49Z</time></trkpt><trkpt lat="45.40220705857623" lon="12.003891289571385"><ele>2.0</ele><time>2026-04-25T10:17:51Z</time></trkpt><trkpt lat="45.402113993660535" lon="12.003970783484846"><ele>2.0</ele><time>2026-04-25T10:17:53Z</time></trkpt><trkpt lat="45.40201570142404" lon="12.0040517496284"><ele>2.0</ele><time>2026-04-25T10:17:55Z</time></trkpt><trkpt lat="45.40191812411457" lon="12.004131185869937"><ele>2.25</ele><time>2026-04-25T10:17:57Z</time></trkpt><trkpt lat="45.401812850865966" lon="12.004216887269378"><ele>2.5</ele><time>2026-04-25T10:17:59Z</time></trkpt><trkpt lat="45.40171347095541" lon="12.004297790987366"><ele>2.75</ele><time>2026-04-25T10:18:01Z</time></trkpt><trkpt lat="45.401616461213564" lon="12.004377203728682"><ele>3.0</ele><time>2026-04-25T10:18:03Z</time></trkpt><trkpt lat="45.40151508739538" lon="12.004461157027375"><ele>3.0</ele><time>2026-04-25T10:18:05Z</time></trkpt><trkpt lat="45.40141530371645" lon="12.004543793452788"><ele>3.0</ele><time>2026-04-25T10:18:07Z</time></trkpt><trkpt lat="45.401316689820746" lon="12.004628102011615"><ele>3.0</ele><time>2026-04-25T10:18:09Z</time></trkpt><trkpt lat="45.40117968940527" lon="12.004746303066414"><ele>3.0</ele><time>2026-04-25T10:18:12Z</time></trkpt><trkpt lat="45.40108883988664" lon="12.004824686048098"><ele>3.0</ele><time>2026-04-25T10:18:14Z</time></trkpt><trkpt lat="45.40099436539337" lon="12.004906196706157"><ele>3.0</ele><time>2026-04-25T10:18:16Z</time></trkpt><trkpt lat="45.40090522258964" lon="12.004983107208352"><ele>3.0</ele><time>2026-04-25T10:18:18Z</time></trkpt><trkpt lat="45.40081179404595" lon="12.00506371536206"><ele>3.0</ele><time>2026-04-25T10:18:20Z</time></trkpt><trkpt lat="45.40071877099222" lon="12.005146351211186"><ele>3.0</ele><time>2026-04-25T10:18:22Z</time></trkpt><trkpt lat="45.40063292434999" lon="12.005225182063741"><ele>3.4</ele><time>2026-04-25T10:18:24Z</time></trkpt><trkpt lat="45.400558399145595" lon="12.005309394192247"><ele>3.8</ele><time>2026-04-25T10:18:26Z</time></trkpt><trkpt lat="45.400461747028146" lon="12.005421177198638"><ele>4.2</ele><time>2026-04-25T10:18:28Z</time></trkpt><trkpt lat="45.400375637339295" lon="12.005516694901916"><ele>4.6</ele><time>2026-04-25T10:18:30Z</time></trkpt><trkpt lat="45.40029285837026" lon="12.005611474416764"><ele>5.0</ele><time>2026-04-25T10:18:32Z</time></trkpt><trkpt lat="45.400211534270234" lon="12.005706076941385"><ele>5.0</ele><time>2026-04-25T10:18:34Z</time></trkpt><trkpt lat="45.40015017191788" lon="12.005803146644928"><ele>5.0</ele><time>2026-04-25T10:18:36Z</time></trkpt><trkpt lat="45.40011417607796" lon="12.005895579160818"><ele>5.0</ele><time>2026-04-25T10:18:38Z</time></trkpt><trkpt lat="45.400055336164286" lon="12.006002531774623"><ele>5.0</ele><time>2026-04-25T10:18:40Z</time></trkpt><trkpt lat="45.40005174215916" lon="12.00612762026862"><ele>5.0</ele><time>2026-04-25T10:18:44Z</time></trkpt><trkpt lat="45.399992977862155" lon="12.006219104864275"><ele>5.0</ele><time>2026-04-25T10:18:46Z</time></trkpt><trkpt lat="45.39949979181652" lon="12.006013116961535"><ele>4.6</ele><time>2026-04-25T10:18:47Z</time></trkpt><trkpt lat="45.3994074415353" lon="12.006089186289792"><ele>4.2</ele><time>2026-04-25T10:18:49Z</time></trkpt><trkpt lat="45.39932125973954" lon="12.006160838975028"><ele>3.8</ele><time>2026-04-25T10:18:51Z</time></trkpt><trkpt lat="45.399229113031375" lon="12.006230463923538"><ele>3.4</ele><time>2026-04-25T10:18:53Z</time></trkpt><trkpt lat="45.39913631483745" lon="12.006300835257045"><ele>3.0</ele><time>2026-04-25T10:18:55Z</time></trkpt><trkpt lat="45.39903964949829" lon="12.00636184853146"><ele>3.0</ele><time>2026-04-25T10:18:57Z</time></trkpt><trkpt lat="45.398950142348646" lon="12.006462225537772"><ele>3.0</ele><time>2026-04-25T10:18:59Z</time></trkpt><trkpt lat="45.39885407393551" lon="12.006544527334924"><ele>3.0</ele><time>2026-04-25T10:19:01Z</time></trkpt><trkpt lat="45.39876561634731" lon="12.006634928255714"><ele>3.0</ele><time>2026-04-25T10:19:03Z</time></trkpt><trkpt lat="45.39866742845971" lon="12.006716622135983"><ele>3.0</ele><time>2026-04-25T10:19:05Z</time></trkpt><trkpt lat="45.39857553774451" lon="12.006796495141485"><ele>3.2</ele><time>2026-04-25T10:19:07Z</time></trkpt><trkpt lat="45.39848555834268" lon="12.00688017979705"><ele>3.4</ele><time>2026-04-25T10:19:09Z</time></trkpt><trkpt lat="45.398392013135606" lon="12.006969433957835"><ele>3.6000000000000005</ele><time>2026-04-25T10:19:11Z</time></trkpt><trkpt lat="45.3983032678589" lon="12.007051096638875"><ele>3.8000000000000003</ele><time>2026-04-25T10:19:13Z</time></trkpt><trkpt lat="45.39820258138618" lon="12.007132321812842"><ele>4.0</ele><time>2026-04-25T10:19:15Z</time></trkpt><trkpt lat="45.39810766103966" lon="12.007208434622937"><ele>4.0</ele><time>2026-04-25T10:19:17Z</time></trkpt><trkpt lat="45.39801076957637" lon="12.007289696201445"><ele>4.0</ele><time>2026-04-25T10:19:19Z</time></trkpt><trkpt lat="45.39791690401508" lon="12.007360996746627"><ele>4.0</ele><time>2026-04-25T10:19:21Z</time></trkpt><trkpt lat="45.39781637153991" lon="12.007427869056293"><ele>4.0</ele><time>2026-04-25T10:19:23Z</time></trkpt><trkpt lat="45.397717993297064" lon="12.007508294639415"><ele>4.0</ele><time>2026-04-25T10:19:25Z</time></trkpt><trkpt lat="45.397625057491474" lon="12.007590218218676"><ele>4.0</ele><time>2026-04-25T10:19:27Z</time></trkpt><trkpt lat="45.39753648724103" lon="12.00767821391105"><ele>4.0</ele><time>2026-04-25T10:19:29Z</time></trkpt><trkpt lat="45.397446723098405" lon="12.007758453143092"><ele>4.0</ele><time>2026-04-25T10:19:31Z</time></trkpt><trkpt lat="45.39735890877051" lon="12.007828836096177"><ele>4.0</ele><time>2026-04-25T10:19:33Z</time></trkpt><trkpt lat="45.39734371378798" lon="12.008000768840416"><ele>4.0</ele><time>2026-04-25T10:19:34Z</time></trkpt><trkpt lat="45.397249838986745" lon="12.008042136879482"><ele>3.8000000000000003</ele><time>2026-04-25T10:19:36Z</time></trkpt><trkpt lat="45.397146000792844" lon="12.008100580770193"><ele>3.6000000000000005</ele><time>2026-04-25T10:19:38Z</time></trkpt><trkpt lat="45.39705295441438" lon="12.008157414497608"><ele>3.4</ele><time>2026-04-25T10:19:40Z</time></trkpt><trkpt lat="45.396950343100414" lon="12.008227832683739"><ele>3.2</ele><time>2026-04-25T10:19:42Z</time></trkpt><trkpt lat="45.396856032809524" lon="12.008313687192418"><ele>3.0</ele><time>2026-04-25T10:19:44Z</time></trkpt><trkpt lat="45.396764589364665" lon="12.008369475338208"><ele>3.0</ele><time>2026-04-25T10:19:46Z</time></trkpt><trkpt lat="45.39668622335312" lon="12.008475791195773"><ele>3.0</ele><time>2026-04-25T10:19:48Z</time></trkpt><trkpt lat="45.39660398918235" lon="12.00857343292866"><ele>3.0</ele><time>2026-04-25T10:19:50Z</time></trkpt><trkpt lat="45.39653815964527" lon="12.008675105474575"><ele>3.0</ele><time>2026-04-25T10:19:52Z</time></trkpt><trkpt lat="45.3964639432562" lon="12.008782322801096"><ele>3.0</ele><time>2026-04-25T10:19:54Z</time></trkpt><trkpt lat="45.39639361057175" lon="12.008883929535557"><ele>2.75</ele><time>2026-04-25T10:19:56Z</time></trkpt><trkpt lat="45.39625950625759" lon="12.008797090215634"><ele>2.5</ele><time>2026-04-25T10:19:57Z</time></trkpt><trkpt lat="45.39615777650222" lon="12.008871946993342"><ele>2.25</ele><time>2026-04-25T10:19:59Z</time></trkpt><trkpt lat="45.39606658865363" lon="12.008943255397327"><ele>2.0</ele><time>2026-04-25T10:20:01Z</time></trkpt><trkpt lat="45.39599094487565" lon="12.009015127069066"><ele>2.0</ele><time>2026-04-25T10:20:03Z</time></trkpt><trkpt lat="45.39593427826504" lon="12.009098667821725"><ele>2.0</ele><time>2026-04-25T10:20:05Z</time></trkpt><trkpt lat="45.39584469198252" lon="12.009161229136481"><ele>2.0</ele><time>2026-04-25T10:20:07Z</time></trkpt><trkpt lat="45.3957466797935" lon="12.009205289131632"><ele>2.0</ele><time>2026-04-25T10:20:09Z</time></trkpt><trkpt lat="45.3956540665516" lon="12.009285584704067"><ele>2.0</ele><time>2026-04-25T10:20:11Z</time></trkpt><trkpt lat="45.39556807342244" lon="12.009367234403042"><ele>2.0</ele><time>2026-04-25T10:20:13Z</time></trkpt><trkpt lat="45.39546751100948" lon="12.00944354537849"><ele>2.0</ele><time>2026-04-25T10:20:15Z</time></trkpt><trkpt lat="45.39537640630561" lon="12.009515227495056"><ele>2.0</ele><time>2026-04-25T10:20:17Z</time></trkpt><trkpt lat="45.39528642830035" lon="12.009594507581705"><ele>2.0</ele><time>2026-04-25T10:20:19Z</time></trkpt><trkpt lat="45.39519130430687" lon="12.009672408735037"><ele>2.0</ele><time>2026-04-25T10:20:21Z</time></trkpt><trkpt lat="45.39509797374402" lon="12.009750679979643"><ele>2.0</ele><time>2026-04-25T10:20:23Z</time></trkpt><trkpt lat="45.395004916357735" lon="12.009832328904768"><ele>2.0</ele><time>2026-04-25T10:20:25Z</time></trkpt><trkpt lat="45.394913827057735" lon="12.00990779163979"><ele>2.0</ele><time>2026-04-25T10:20:27Z</time></trkpt><trkpt lat="45.39482245706581" lon="12.009981626414422"><ele>2.0</ele><time>2026-04-25T10:20:29Z</time></trkpt><trkpt lat="45.39472915568727" lon="12.010061775451932"><ele>2.0</ele><time>2026-04-25T10:20:31Z</time></trkpt><trkpt lat="45.39463522837835" lon="12.010139637005022"><ele>2.4000000000000004</ele><time>2026-04-25T10:20:33Z</time></trkpt><trkpt lat="45.39453660651114" lon="12.010220039412419"><ele>2.8000000000000003</ele><time>2026-04-25T10:20:35Z</time></trkpt><trkpt lat="45.39445104518981" lon="12.010295364678193"><ele>3.2</ele><time>2026-04-25T10:20:37Z</time></trkpt><trkpt lat="45.39435368932326" lon="12.010378733221746"><ele>3.6</ele><time>2026-04-25T10:20:39Z</time></trkpt><trkpt lat="45.39425697638672" lon="12.01045463908152"><ele>4.0</ele><time>2026-04-25T10:20:41Z</time></trkpt><trkpt lat="45.39416991807585" lon="12.010538050562173"><ele>4.0</ele><time>2026-04-25T10:20:43Z</time></trkpt><trkpt lat="45.39409079818534" lon="12.010644022626908"><ele>4.0</ele><time>2026-04-25T10:20:45Z</time></trkpt><trkpt lat="45.39398604762055" lon="12.010704698832845"><ele>4.0</ele><time>2026-04-25T10:20:47Z</time></trkpt><trkpt lat="45.393874861472845" lon="12.010782293307875"><ele>4.0</ele><time>2026-04-25T10:20:49Z</time></trkpt><trkpt lat="45.39378526089028" lon="12.010864450930779"><ele>3.75</ele><time>2026-04-25T10:20:51Z</time></trkpt><trkpt lat="45.39368246280159" lon="12.010942077876132"><ele>3.5</ele><time>2026-04-25T10:20:53Z</time></trkpt><trkpt lat="45.39359050702347" lon="12.011024763962958"><ele>3.25</ele><time>2026-04-25T10:20:55Z</time></trkpt><trkpt lat="45.39349556319869" lon="12.011103323052124"><ele>3.0</ele><time>2026-04-25T10:20:57Z</time></trkpt><trkpt lat="45.393395181289684" lon="12.01118872315267"><ele>3.0</ele><time>2026-04-25T10:20:59Z</time></trkpt><trkpt lat="45.393302505806496" lon="12.011268124775285"><ele>3.0</ele><time>2026-04-25T10:21:01Z</time></trkpt><trkpt lat="45.39321071367822" lon="12.011357954692873"><ele>3.0</ele><time>2026-04-25T10:21:03Z</time></trkpt><trkpt lat="45.393134896557505" lon="12.01143987043771"><ele>3.0</ele><time>2026-04-25T10:21:05Z</time></trkpt><trkpt lat="45.393040192064596" lon="12.011509672487524"><ele>3.0</ele><time>2026-04-25T10:21:07Z</time></trkpt><trkpt lat="45.392976193173915" lon="12.011595973819706"><ele>3.0</ele><time>2026-04-25T10:21:09Z</time></trkpt><trkpt lat="45.39292438618271" lon="12.011676510179019"><ele>3.0</ele><time>2026-04-25T10:21:11Z</time></trkpt><trkpt lat="45.39286860115017" lon="12.011763155585912"><ele>3.0</ele><time>2026-04-25T10:21:14Z</time></trkpt><trkpt lat="45.39280602340766" lon="12.011820991358604"><ele>3.0</ele><time>2026-04-25T10:21:17Z</time></trkpt><trkpt lat="45.392752902982025" lon="12.011897874502509"><ele>3.0</ele><time>2026-04-25T10:21:20Z</time></trkpt><trkpt lat="45.392690322741885" lon="12.01196790670086"><ele>3.0</ele><time>2026-04-25T10:21:23Z</time></trkpt><trkpt lat="45.392627302564414" lon="12.011987681664488"><ele>3.0</ele><time>2026-04-25T10:21:25Z</time></trkpt><trkpt lat="45.39254476676033" lon="12.012013135498897"><ele>3.0</ele><time>2026-04-25T10:21:27Z</time></trkpt><trkpt lat="45.392450081945306" lon="12.01204965137149"><ele>3.0</ele><time>2026-04-25T10:21:29Z</time></trkpt><trkpt lat="45.39235219977394" lon="12.012101643831326"><ele>3.0</ele><time>2026-04-25T10:21:31Z</time></trkpt><trkpt lat="45.39224728153837" lon="12.012171154556468"><ele>3.0</ele><time>2026-04-25T10:21:33Z</time></trkpt><trkpt lat="45.392156404843064" lon="12.012256636042052"><ele>3.4</ele><time>2026-04-25T10:21:35Z</time></trkpt><trkpt lat="45.392071438467" lon="12.012341084577473"><ele>3.8</ele><time>2026-04-25T10:21:37Z</time></trkpt><trkpt lat="45.391973741122335" lon="12.012413822195777"><ele>4.2</ele><time>2026-04-25T10:21:39Z</time></trkpt><trkpt lat="45.391872063348444" lon="12.012483382903204"><ele>4.6</ele><time>2026-04-25T10:21:41Z</time></trkpt><trkpt lat="45.39177680761941" lon="12.012566062752645"><ele>5.0</ele><time>2026-04-25T10:21:43Z</time></trkpt><trkpt lat="45.39168771754997" lon="12.012647713289475"><ele>5.0</ele><time>2026-04-25T10:21:45Z</time></trkpt><trkpt lat="45.39159430896788" lon="12.012724824694212"><ele>5.0</ele><time>2026-04-25T10:21:47Z</time></trkpt><trkpt lat="45.391495124288824" lon="12.012804192652904"><ele>5.0</ele><time>2026-04-25T10:21:49Z</time></trkpt><trkpt lat="45.391402773813674" lon="12.012886194930333"><ele>5.0</ele><time>2026-04-25T10:21:51Z</time></trkpt><trkpt lat="45.39130453776473" lon="12.01296418580303"><ele>5.0</ele><time>2026-04-25T10:21:53Z</time></trkpt><trkpt lat="45.39120728333281" lon="12.013042467618984"><ele>5.0</ele><time>2026-04-25T10:21:55Z</time></trkpt><trkpt lat="45.391108033697925" lon="12.013124895742479"><ele>5.0</ele><time>2026-04-25T10:21:57Z</time></trkpt><trkpt lat="45.39101473597937" lon="12.013210262105773"><ele>5.0</ele><time>2026-04-25T10:21:59Z</time></trkpt><trkpt lat="45.39091833825124" lon="12.013290268578505"><ele>5.0</ele><time>2026-04-25T10:22:01Z</time></trkpt><trkpt lat="45.39082712196073" lon="12.013363639471546"><ele>5.0</ele><time>2026-04-25T10:22:03Z</time></trkpt><trkpt lat="45.390733017444106" lon="12.013449073415748"><ele>5.25</ele><time>2026-04-25T10:22:05Z</time></trkpt><trkpt lat="45.39063147487633" lon="12.013528222888183"><ele>5.5</ele><time>2026-04-25T10:22:07Z</time></trkpt><trkpt lat="45.39053918431845" lon="12.013611687390737"><ele>5.75</ele><time>2026-04-25T10:22:09Z</time></trkpt><trkpt lat="45.39044207778052" lon="12.013692661652913"><ele>6.0</ele><time>2026-04-25T10:22:11Z</time></trkpt><trkpt lat="45.390344158527384" lon="12.013780732845515"><ele>6.0</ele><time>2026-04-25T10:22:13Z</time></trkpt><trkpt lat="45.39024476302975" lon="12.013857953520414"><ele>6.0</ele><time>2026-04-25T10:22:15Z</time></trkpt><trkpt lat="45.39014782389029" lon="12.013943124119859"><ele>6.0</ele><time>2026-04-25T10:22:17Z</time></trkpt><trkpt lat="45.39005694317342" lon="12.014014870647975"><ele>6.0</ele><time>2026-04-25T10:22:19Z</time></trkpt><trkpt lat="45.38996531033931" lon="12.014090041728402"><ele>6.0</ele><time>2026-04-25T10:22:21Z</time></trkpt><trkpt lat="45.38987697900841" lon="12.014169512598793"><ele>5.8</ele><time>2026-04-25T10:22:23Z</time></trkpt><trkpt lat="45.38978460475639" lon="12.014248936436717"><ele>5.6</ele><time>2026-04-25T10:22:25Z</time></trkpt><trkpt lat="45.389691821562046" lon="12.014321223923385"><ele>5.4</ele><time>2026-04-25T10:22:27Z</time></trkpt><trkpt lat="45.38960432175975" lon="12.014405165107261"><ele>5.2</ele><time>2026-04-25T10:22:29Z</time></trkpt><trkpt lat="45.38951028421914" lon="12.014478201242081"><ele>5.0</ele><time>2026-04-25T10:22:31Z</time></trkpt><trkpt lat="45.38949236508052" lon="12.014643845945999"><ele>5.0</ele><time>2026-04-25T10:22:32Z</time></trkpt><trkpt lat="45.38939656337085" lon="12.01469135680173"><ele>5.0</ele><time>2026-04-25T10:22:34Z</time></trkpt><trkpt lat="45.38930205674316" lon="12.0147470547537"><ele>5.0</ele><time>2026-04-25T10:22:36Z</time></trkpt><trkpt lat="45.38922327174965" lon="12.014797911007802"><ele>5.0</ele><time>2026-04-25T10:22:38Z</time></trkpt><trkpt lat="45.38909545101245" lon="12.0148385781112"><ele>5.0</ele><time>2026-04-25T10:22:41Z</time></trkpt><trkpt lat="45.38901154146543" lon="12.014888634752882"><ele>5.0</ele><time>2026-04-25T10:22:43Z</time></trkpt><trkpt lat="45.38896906911032" lon="12.014957832376089"><ele>5.0</ele><time>2026-04-25T10:22:44Z</time></trkpt><trkpt lat="45.388871490725" lon="12.015030562228926"><ele>5.0</ele><time>2026-04-25T10:22:46Z</time></trkpt><trkpt lat="45.38877724602777" lon="12.015112600262261"><ele>5.0</ele><time>2026-04-25T10:22:48Z</time></trkpt><trkpt lat="45.38868252705809" lon="12.015198239632936"><ele>5.0</ele><time>2026-04-25T10:22:50Z</time></trkpt><trkpt lat="45.38858198596892" lon="12.015276203474198"><ele>5.0</ele><time>2026-04-25T10:22:52Z</time></trkpt><trkpt lat="45.38848531372366" lon="12.015358582031354"><ele>5.0</ele><time>2026-04-25T10:22:54Z</time></trkpt><trkpt lat="45.388394772248546" lon="12.015442612521356"><ele>5.0</ele><time>2026-04-25T10:22:56Z</time></trkpt><trkpt lat="45.388302313137416" lon="12.015520253833733"><ele>5.0</ele><time>2026-04-25T10:22:58Z</time></trkpt><trkpt lat="45.388210933781274" lon="12.015598852519954"><ele>5.0</ele><time>2026-04-25T10:23:00Z</time></trkpt><trkpt lat="45.38812219455412" lon="12.015672321753087"><ele>5.0</ele><time>2026-04-25T10:23:02Z</time></trkpt><trkpt lat="45.388032346334505" lon="12.015746045152635"><ele>5.0</ele><time>2026-04-25T10:23:04Z</time></trkpt><trkpt lat="45.387940217965316" lon="12.015823508547687"><ele>5.0</ele><time>2026-04-25T10:23:06Z</time></trkpt><trkpt lat="45.38784561825339" lon="12.015904003199754"><ele>5.0</ele><time>2026-04-25T10:23:08Z</time></trkpt><trkpt lat="45.38775388228474" lon="12.015982138099679"><ele>5.0</ele><time>2026-04-25T10:23:10Z</time></trkpt><trkpt lat="45.38766328192132" lon="12.016059772910497"><ele>4.8</ele><time>2026-04-25T10:23:12Z</time></trkpt><trkpt lat="45.387573431116195" lon="12.016136515166098"><ele>4.6</ele><time>2026-04-25T10:23:14Z</time></trkpt><trkpt lat="45.387483517947565" lon="12.01621337572814"><ele>4.4</ele><time>2026-04-25T10:23:16Z</time></trkpt><trkpt lat="45.387396690241076" lon="12.016289364358894"><ele>4.2</ele><time>2026-04-25T10:23:18Z</time></trkpt><trkpt lat="45.387305211840015" lon="12.016369055368697"><ele>4.0</ele><time>2026-04-25T10:23:20Z</time></trkpt><trkpt lat="45.38721298824662" lon="12.016445325813837"><ele>4.0</ele><time>2026-04-25T10:23:22Z</time></trkpt><trkpt lat="45.38712149698096" lon="12.016521982951035"><ele>4.0</ele><time>2026-04-25T10:23:24Z</time></trkpt><trkpt lat="45.387033348678145" lon="12.016598364696055"><ele>4.0</ele><time>2026-04-25T10:23:26Z</time></trkpt><trkpt lat="45.386942241122654" lon="12.016670856125014"><ele>4.0</ele><time>2026-04-25T10:23:28Z</time></trkpt><trkpt lat="45.38685321528383" lon="12.016751543874772"><ele>4.0</ele><time>2026-04-25T10:23:30Z</time></trkpt><trkpt lat="45.38677058021456" lon="12.016823700837861"><ele>4.0</ele><time>2026-04-25T10:23:32Z</time></trkpt><trkpt lat="45.38664378507352" lon="12.016928977650462"><ele>4.0</ele><time>2026-04-25T10:23:35Z</time></trkpt><trkpt lat="45.38655704099119" lon="12.01696990857573"><ele>4.0</ele><time>2026-04-25T10:23:37Z</time></trkpt><trkpt lat="45.38649102361819" lon="12.017055128649513"><ele>4.0</ele><time>2026-04-25T10:23:39Z</time></trkpt><trkpt lat="45.38642697029107" lon="12.017126637755025"><ele>4.0</ele><time>2026-04-25T10:23:42Z</time></trkpt><trkpt lat="45.38631383209398" lon="12.01693968537834"><ele>4.2</ele><time>2026-04-25T10:23:48Z</time></trkpt><trkpt lat="45.386265297127395" lon="12.01682071584976"><ele>4.4</ele><time>2026-04-25T10:23:51Z</time></trkpt><trkpt lat="45.38622264676554" lon="12.016725767704111"><ele>4.6</ele><time>2026-04-25T10:23:53Z</time></trkpt><trkpt lat="45.38617992097046" lon="12.016617759641044"><ele>4.8</ele><time>2026-04-25T10:23:55Z</time></trkpt><trkpt lat="45.386132474155666" lon="12.016505375017758"><ele>5.0</ele><time>2026-04-25T10:23:57Z</time></trkpt><trkpt lat="45.38608073331416" lon="12.016383516557784"><ele>5.0</ele><time>2026-04-25T10:23:59Z</time></trkpt><trkpt lat="45.38603124621675" lon="12.01625907331661"><ele>5.0</ele><time>2026-04-25T10:24:01Z</time></trkpt><trkpt lat="45.38597469917725" lon="12.016138228204237"><ele>5.0</ele><time>2026-04-25T10:24:03Z</time></trkpt><trkpt lat="45.38592379038756" lon="12.016017440683806"><ele>5.0</ele><time>2026-04-25T10:24:05Z</time></trkpt><trkpt lat="45.38587532985628" lon="12.015901570863342"><ele>5.0</ele><time>2026-04-25T10:24:07Z</time></trkpt><trkpt lat="45.38582909049129" lon="12.015788520460665"><ele>5.2</ele><time>2026-04-25T10:24:09Z</time></trkpt><trkpt lat="45.385792269737884" lon="12.01566160806674"><ele>5.4</ele><time>2026-04-25T10:24:11Z</time></trkpt><trkpt lat="45.38579817003408" lon="12.01553346937456"><ele>5.6</ele><time>2026-04-25T10:24:13Z</time></trkpt><trkpt lat="45.38573291356818" lon="12.015431110988317"><ele>5.8</ele><time>2026-04-25T10:24:15Z</time></trkpt><trkpt lat="45.38568566561374" lon="12.015332200530727"><ele>6.0</ele><time>2026-04-25T10:24:17Z</time></trkpt><trkpt lat="45.38565757322843" lon="12.0152024052918"><ele>6.0</ele><time>2026-04-25T10:24:19Z</time></trkpt><trkpt lat="45.38563070954074" lon="12.015052173068163"><ele>6.0</ele><time>2026-04-25T10:24:21Z</time></trkpt><trkpt lat="45.385595290657456" lon="12.014890160260341"><ele>6.0</ele><time>2026-04-25T10:24:23Z</time></trkpt><trkpt lat="45.385568872890644" lon="12.014730574922515"><ele>6.0</ele><time>2026-04-25T10:24:25Z</time></trkpt><trkpt lat="45.385531885091886" lon="12.014570007052972"><ele>6.0</ele><time>2026-04-25T10:24:27Z</time></trkpt><trkpt lat="45.38550732592789" lon="12.014408540887585"><ele>6.0</ele><time>2026-04-25T10:24:29Z</time></trkpt><trkpt lat="45.38548129121099" lon="12.014239450420027"><ele>6.0</ele><time>2026-04-25T10:24:31Z</time></trkpt><trkpt lat="45.38546416292176" lon="12.014151472323707"><ele>6.0</ele><time>2026-04-25T10:24:32Z</time></trkpt><trkpt lat="45.38543343626356" lon="12.01399169703442"><ele>6.0</ele><time>2026-04-25T10:24:34Z</time></trkpt><trkpt lat="45.38540159032771" lon="12.01387015079004"><ele>6.0</ele><time>2026-04-25T10:24:36Z</time></trkpt><trkpt lat="45.38537793046144" lon="12.01376495385843"><ele>6.0</ele><time>2026-04-25T10:24:39Z</time></trkpt><trkpt lat="45.38533416845724" lon="12.013551894516755"><ele>6.0</ele><time>2026-04-25T10:24:43Z</time></trkpt><trkpt lat="45.38529616497376" lon="12.013407708968659"><ele>6.0</ele><time>2026-04-25T10:24:45Z</time></trkpt><trkpt lat="45.38525523713676" lon="12.013260449002592"><ele>6.0</ele><time>2026-04-25T10:24:47Z</time></trkpt><trkpt lat="45.38522281389802" lon="12.013108042149586"><ele>6.0</ele><time>2026-04-25T10:24:49Z</time></trkpt><trkpt lat="45.38518097667464" lon="12.012963142707868"><ele>6.0</ele><time>2026-04-25T10:24:51Z</time></trkpt><trkpt lat="45.385154818279304" lon="12.012881447843906"><ele>6.0</ele><time>2026-04-25T10:24:52Z</time></trkpt><trkpt lat="45.385130299484295" lon="12.012797399045452"><ele>6.0</ele><time>2026-04-25T10:24:53Z</time></trkpt><trkpt lat="45.38510463492021" lon="12.012708462454892"><ele>6.0</ele><time>2026-04-25T10:24:54Z</time></trkpt><trkpt lat="45.38508731056041" lon="12.012615531345517"><ele>5.999999999999999</ele><time>2026-04-25T10:24:55Z</time></trkpt><trkpt lat="45.38506334730912" lon="12.012524281097086"><ele>6.0</ele><time>2026-04-25T10:24:56Z</time></trkpt><trkpt lat="45.385043473893084" lon="12.012428959714969"><ele>6.0</ele><time>2026-04-25T10:24:57Z</time></trkpt><trkpt lat="45.38502329318463" lon="12.012341000627298"><ele>6.0</ele><time>2026-04-25T10:24:58Z</time></trkpt><trkpt lat="45.385000629945104" lon="12.012252953652526"><ele>6.0</ele><time>2026-04-25T10:24:59Z</time></trkpt><trkpt lat="45.384978996645145" lon="12.012165382598592"><ele>5.999999999999999</ele><time>2026-04-25T10:25:00Z</time></trkpt><trkpt lat="45.3849572972026" lon="12.012076203425073"><ele>6.0</ele><time>2026-04-25T10:25:01Z</time></trkpt><trkpt lat="45.38493719107901" lon="12.011986538011616"><ele>5.857142857142857</ele><time>2026-04-25T10:25:02Z</time></trkpt><trkpt lat="45.38491357060796" lon="12.011891715457187"><ele>5.714285714285714</ele><time>2026-04-25T10:25:03Z</time></trkpt><trkpt lat="45.38488565228333" lon="12.011802475186133"><ele>5.571428571428571</ele><time>2026-04-25T10:25:04Z</time></trkpt><trkpt lat="45.38486439559276" lon="12.011715728411358"><ele>5.428571428571429</ele><time>2026-04-25T10:25:05Z</time></trkpt><trkpt lat="45.38484114124947" lon="12.011625718610771"><ele>5.285714285714286</ele><time>2026-04-25T10:25:06Z</time></trkpt><trkpt lat="45.384814107592575" lon="12.011539878242415"><ele>5.142857142857142</ele><time>2026-04-25T10:25:07Z</time></trkpt><trkpt lat="45.384796332827776" lon="12.01144591498344"><ele>5.0</ele><time>2026-04-25T10:25:08Z</time></trkpt><trkpt lat="45.38478625737219" lon="12.011343419144865"><ele>5.0</ele><time>2026-04-25T10:25:09Z</time></trkpt><trkpt lat="45.384734711455145" lon="12.011179312843607"><ele>5.0</ele><time>2026-04-25T10:25:11Z</time></trkpt><trkpt lat="45.38471311410658" lon="12.011086650548624"><ele>5.0</ele><time>2026-04-25T10:25:12Z</time></trkpt><trkpt lat="45.38469063762363" lon="12.01099713856331"><ele>5.0</ele><time>2026-04-25T10:25:13Z</time></trkpt><trkpt lat="45.38466779354054" lon="12.010910256015173"><ele>5.0</ele><time>2026-04-25T10:25:14Z</time></trkpt><trkpt lat="45.3846470021935" lon="12.010822125930972"><ele>5.0</ele><time>2026-04-25T10:25:15Z</time></trkpt><trkpt lat="45.38462368020397" lon="12.010730519682907"><ele>5.0</ele><time>2026-04-25T10:25:16Z</time></trkpt><trkpt lat="45.3846010484954" lon="12.010643549194793"><ele>5.0</ele><time>2026-04-25T10:25:17Z</time></trkpt><trkpt lat="45.384590280732475" lon="12.01055184412771"><ele>5.0</ele><time>2026-04-25T10:25:18Z</time></trkpt><trkpt lat="45.38457342997797" lon="12.010457886395173"><ele>5.0</ele><time>2026-04-25T10:25:19Z</time></trkpt><trkpt lat="45.38455465565048" lon="12.010367322610835"><ele>5.0</ele><time>2026-04-25T10:25:20Z</time></trkpt><trkpt lat="45.384547462506504" lon="12.010266820664294"><ele>5.0</ele><time>2026-04-25T10:25:21Z</time></trkpt><trkpt lat="45.38454174955509" lon="12.010170347905671"><ele>5.0</ele><time>2026-04-25T10:25:22Z</time></trkpt><trkpt lat="45.384535434859" lon="12.010077319593483"><ele>5.142857142857142</ele><time>2026-04-25T10:25:23Z</time></trkpt><trkpt lat="45.38453616984209" lon="12.009982038349465"><ele>5.285714285714286</ele><time>2026-04-25T10:25:24Z</time></trkpt><trkpt lat="45.384538038374686" lon="12.009883632488368"><ele>5.428571428571429</ele><time>2026-04-25T10:25:25Z</time></trkpt><trkpt lat="45.38453805323924" lon="12.009782722089183"><ele>5.571428571428571</ele><time>2026-04-25T10:25:26Z</time></trkpt><trkpt lat="45.384545895075945" lon="12.009690374755284"><ele>5.714285714285714</ele><time>2026-04-25T10:25:27Z</time></trkpt><trkpt lat="45.38455887236624" lon="12.00959560015598"><ele>5.857142857142857</ele><time>2026-04-25T10:25:28Z</time></trkpt><trkpt lat="45.38457163944272" lon="12.009504857885528"><ele>6.0</ele><time>2026-04-25T10:25:29Z</time></trkpt><trkpt lat="45.38459210596704" lon="12.00941597637144"><ele>5.999999999999999</ele><time>2026-04-25T10:25:30Z</time></trkpt><trkpt lat="45.38461222395978" lon="12.009322634816835"><ele>6.0</ele><time>2026-04-25T10:25:31Z</time></trkpt><trkpt lat="45.38463072550499" lon="12.00923117874343"><ele>6.0</ele><time>2026-04-25T10:25:32Z</time></trkpt><trkpt lat="45.38465694462509" lon="12.009142491555169"><ele>6.0</ele><time>2026-04-25T10:25:33Z</time></trkpt><trkpt lat="45.384684248204344" lon="12.009050473970865"><ele>6.0</ele><time>2026-04-25T10:25:34Z</time></trkpt><trkpt lat="45.384715632719356" lon="12.00895672561811"><ele>5.999999999999999</ele><time>2026-04-25T10:25:35Z</time></trkpt><trkpt lat="45.38474412843807" lon="12.008866248479277"><ele>6.0</ele><time>2026-04-25T10:25:36Z</time></trkpt><trkpt lat="45.384780048701835" lon="12.008774155486929"><ele>5.999999999999999</ele><time>2026-04-25T10:25:37Z</time></trkpt><trkpt lat="45.38481758243764" lon="12.00869010826144"><ele>6.0</ele><time>2026-04-25T10:25:38Z</time></trkpt><trkpt lat="45.384854332475946" lon="12.008606344641018"><ele>6.0</ele><time>2026-04-25T10:25:39Z</time></trkpt><trkpt lat="45.38489277633449" lon="12.0085217939463"><ele>6.0</ele><time>2026-04-25T10:25:40Z</time></trkpt><trkpt lat="45.38493838415962" lon="12.008443421271192"><ele>6.0</ele><time>2026-04-25T10:25:41Z</time></trkpt><trkpt lat="45.384985095424" lon="12.008365358420209"><ele>5.999999999999999</ele><time>2026-04-25T10:25:42Z</time></trkpt><trkpt lat="45.38503464857731" lon="12.008289393029012"><ele>6.0</ele><time>2026-04-25T10:25:43Z</time></trkpt><trkpt lat="45.3850852352196" lon="12.008219410990481"><ele>6.0</ele><time>2026-04-25T10:25:44Z</time></trkpt><trkpt lat="45.38514488496439" lon="12.008154416887619"><ele>6.0</ele><time>2026-04-25T10:25:45Z</time></trkpt><trkpt lat="45.38520150863029" lon="12.008087443518018"><ele>6.0</ele><time>2026-04-25T10:25:46Z</time></trkpt><trkpt lat="45.38526213280964" lon="12.008018922650317"><ele>6.0</ele><time>2026-04-25T10:25:47Z</time></trkpt><trkpt lat="45.385313553551164" lon="12.007947946549343"><ele>6.0</ele><time>2026-04-25T10:25:48Z</time></trkpt><trkpt lat="45.38536898418133" lon="12.007871180875549"><ele>6.0</ele><time>2026-04-25T10:25:49Z</time></trkpt><trkpt lat="45.385434451144626" lon="12.007811887135007"><ele>6.0</ele><time>2026-04-25T10:25:50Z</time></trkpt><trkpt lat="45.38548600343627" lon="12.00773945811756"><ele>6.0</ele><time>2026-04-25T10:25:51Z</time></trkpt><trkpt lat="45.38553518428886" lon="12.00765969367322"><ele>6.0</ele><time>2026-04-25T10:25:52Z</time></trkpt><trkpt lat="45.38557110639283" lon="12.007569732691698"><ele>6.0</ele><time>2026-04-25T10:25:53Z</time></trkpt><trkpt lat="45.385631364348804" lon="12.007515874344397"><ele>6.0</ele><time>2026-04-25T10:25:54Z</time></trkpt><trkpt lat="45.38567904086771" lon="12.007377236107102"><ele>6.0</ele><time>2026-04-25T10:25:56Z</time></trkpt><trkpt lat="45.38560712099239" lon="12.007252904539287"><ele>6.0</ele><time>2026-04-25T10:25:58Z</time></trkpt><trkpt lat="45.385545707971595" lon="12.007208089775341"><ele>6.0</ele><time>2026-04-25T10:25:59Z</time></trkpt><trkpt lat="45.38548197674989" lon="12.007177447852593"><ele>6.0</ele><time>2026-04-25T10:26:00Z</time></trkpt><trkpt lat="45.385363533572416" lon="12.007095520236998"><ele>6.0</ele><time>2026-04-25T10:26:02Z</time></trkpt><trkpt lat="45.38525059055362" lon="12.007011104542448"><ele>6.0</ele><time>2026-04-25T10:26:04Z</time></trkpt><trkpt lat="45.38519456504539" lon="12.006966891056447"><ele>6.142857142857142</ele><time>2026-04-25T10:26:05Z</time></trkpt><trkpt lat="45.38513291105532" lon="12.006916221362538"><ele>6.285714285714286</ele><time>2026-04-25T10:26:06Z</time></trkpt><trkpt lat="45.38507260047485" lon="12.00686606504047"><ele>6.428571428571429</ele><time>2026-04-25T10:26:07Z</time></trkpt><trkpt lat="45.38501106435061" lon="12.006812834330669"><ele>6.571428571428571</ele><time>2026-04-25T10:26:08Z</time></trkpt><trkpt lat="45.38494998583041" lon="12.00675935181267"><ele>6.714285714285714</ele><time>2026-04-25T10:26:09Z</time></trkpt><trkpt lat="45.3848867528408" lon="12.006709587358602"><ele>6.857142857142857</ele><time>2026-04-25T10:26:10Z</time></trkpt><trkpt lat="45.38482657955084" lon="12.006654479874447"><ele>7.0</ele><time>2026-04-25T10:26:11Z</time></trkpt><trkpt lat="45.384766688351036" lon="12.006601082777074"><ele>6.857142857142857</ele><time>2026-04-25T10:26:12Z</time></trkpt><trkpt lat="45.38470634835616" lon="12.006542543132543"><ele>6.714285714285714</ele><time>2026-04-25T10:26:13Z</time></trkpt><trkpt lat="45.3846496349383" lon="12.00647997304178"><ele>6.571428571428571</ele><time>2026-04-25T10:26:14Z</time></trkpt><trkpt lat="45.384596564904804" lon="12.006411622275863"><ele>6.428571428571429</ele><time>2026-04-25T10:26:15Z</time></trkpt><trkpt lat="45.38453543884637" lon="12.006353909677395"><ele>6.285714285714286</ele><time>2026-04-25T10:26:16Z</time></trkpt><trkpt lat="45.38447583360546" lon="12.006296832948852"><ele>6.142857142857142</ele><time>2026-04-25T10:26:17Z</time></trkpt><trkpt lat="45.38442571943291" lon="12.006231211808403"><ele>6.0</ele><time>2026-04-25T10:26:18Z</time></trkpt><trkpt lat="45.38436932758847" lon="12.006168639676332"><ele>5.999999999999999</ele><time>2026-04-25T10:26:19Z</time></trkpt><trkpt lat="45.384311409511675" lon="12.006112967742268"><ele>6.0</ele><time>2026-04-25T10:26:20Z</time></trkpt><trkpt lat="45.384252775009855" lon="12.006054911343435"><ele>6.0</ele><time>2026-04-25T10:26:21Z</time></trkpt><trkpt lat="45.384195360629285" lon="12.006001302229699"><ele>6.0</ele><time>2026-04-25T10:26:22Z</time></trkpt><trkpt lat="45.38413226544293" lon="12.005955712159873"><ele>6.0</ele><time>2026-04-25T10:26:23Z</time></trkpt><trkpt lat="45.38407122261716" lon="12.005904056601825"><ele>5.999999999999999</ele><time>2026-04-25T10:26:24Z</time></trkpt><trkpt lat="45.38401263692305" lon="12.005857424854367"><ele>6.0</ele><time>2026-04-25T10:26:25Z</time></trkpt><trkpt lat="45.38395065594197" lon="12.005812476086499"><ele>5.857142857142857</ele><time>2026-04-25T10:26:26Z</time></trkpt><trkpt lat="45.38389071831856" lon="12.005764731978484"><ele>5.714285714285714</ele><time>2026-04-25T10:26:27Z</time></trkpt><trkpt lat="45.38382604413754" lon="12.005734989979041"><ele>5.571428571428571</ele><time>2026-04-25T10:26:28Z</time></trkpt><trkpt lat="45.383763055086725" lon="12.005703067376546"><ele>5.428571428571429</ele><time>2026-04-25T10:26:29Z</time></trkpt><trkpt lat="45.383702944742105" lon="12.005670176846623"><ele>5.285714285714286</ele><time>2026-04-25T10:26:30Z</time></trkpt><trkpt lat="45.38364781022113" lon="12.005624114366846"><ele>5.142857142857142</ele><time>2026-04-25T10:26:31Z</time></trkpt><trkpt lat="45.38358284205087" lon="12.005594723571829"><ele>5.0</ele><time>2026-04-25T10:26:32Z</time></trkpt><trkpt lat="45.38351775953549" lon="12.005560895212726"><ele>5.0</ele><time>2026-04-25T10:26:33Z</time></trkpt><trkpt lat="45.383452456866785" lon="12.005522972834967"><ele>5.0</ele><time>2026-04-25T10:26:34Z</time></trkpt><trkpt lat="45.38338865027707" lon="12.005485974960646"><ele>5.0</ele><time>2026-04-25T10:26:35Z</time></trkpt><trkpt lat="45.38331967124777" lon="12.005452348154746"><ele>5.0</ele><time>2026-04-25T10:26:36Z</time></trkpt><trkpt lat="45.38325284545057" lon="12.005414405078907"><ele>5.0</ele><time>2026-04-25T10:26:37Z</time></trkpt><trkpt lat="45.38318519344007" lon="12.005373172784022"><ele>5.0</ele><time>2026-04-25T10:26:38Z</time></trkpt><trkpt lat="45.38311305336286" lon="12.005344157183156"><ele>5.0</ele><time>2026-04-25T10:26:39Z</time></trkpt><trkpt lat="45.38304698761797" lon="12.005307258131214"><ele>5.142857142857142</ele><time>2026-04-25T10:26:40Z</time></trkpt><trkpt lat="45.3829786208545" lon="12.00526744993694"><ele>5.285714285714286</ele><time>2026-04-25T10:26:41Z</time></trkpt><trkpt lat="45.38291089315192" lon="12.005235698357211"><ele>5.428571428571429</ele><time>2026-04-25T10:26:42Z</time></trkpt><trkpt lat="45.382839672048526" lon="12.00520421215376"><ele>5.571428571428571</ele><time>2026-04-25T10:26:43Z</time></trkpt><trkpt lat="45.382770024180765" lon="12.005176651930592"><ele>5.714285714285714</ele><time>2026-04-25T10:26:44Z</time></trkpt><trkpt lat="45.38270332875868" lon="12.005149959820438"><ele>5.857142857142857</ele><time>2026-04-25T10:26:45Z</time></trkpt><trkpt lat="45.38263293154361" lon="12.005126083096366"><ele>6.0</ele><time>2026-04-25T10:26:46Z</time></trkpt><trkpt lat="45.38256258307555" lon="12.005099835863346"><ele>5.999999999999999</ele><time>2026-04-25T10:26:47Z</time></trkpt><trkpt lat="45.38249143422247" lon="12.005076794906236"><ele>6.0</ele><time>2026-04-25T10:26:48Z</time></trkpt><trkpt lat="45.382420684322646" lon="12.005052812174274"><ele>6.0</ele><time>2026-04-25T10:26:49Z</time></trkpt><trkpt lat="45.382350421297254" lon="12.005027673628923"><ele>6.0</ele><time>2026-04-25T10:26:50Z</time></trkpt><trkpt lat="45.382281584069275" lon="12.004997448985288"><ele>6.0</ele><time>2026-04-25T10:26:51Z</time></trkpt><trkpt lat="45.382216990729304" lon="12.004966033257428"><ele>5.999999999999999</ele><time>2026-04-25T10:26:52Z</time></trkpt><trkpt lat="45.382152997565925" lon="12.004926708223005"><ele>6.0</ele><time>2026-04-25T10:26:53Z</time></trkpt><trkpt lat="45.382091795712086" lon="12.0048833117555"><ele>5.999999999999999</ele><time>2026-04-25T10:26:54Z</time></trkpt><trkpt lat="45.382033065725096" lon="12.004828783138851"><ele>6.0</ele><time>2026-04-25T10:26:55Z</time></trkpt><trkpt lat="45.38198297658411" lon="12.004771983004234"><ele>6.0</ele><time>2026-04-25T10:26:56Z</time></trkpt><trkpt lat="45.38193084544171" lon="12.004711902839878"><ele>6.0</ele><time>2026-04-25T10:26:57Z</time></trkpt><trkpt lat="45.38188329855011" lon="12.004646244228324"><ele>6.0</ele><time>2026-04-25T10:26:58Z</time></trkpt><trkpt lat="45.38183546046932" lon="12.004581114733357"><ele>5.999999999999999</ele><time>2026-04-25T10:26:59Z</time></trkpt><trkpt lat="45.381786117167316" lon="12.004518566874538"><ele>6.0</ele><time>2026-04-25T10:27:00Z</time></trkpt><trkpt lat="45.381738211418664" lon="12.004458346087157"><ele>5.999999999999999</ele><time>2026-04-25T10:27:01Z</time></trkpt><trkpt lat="45.38169012071297" lon="12.004393178892618"><ele>6.0</ele><time>2026-04-25T10:27:02Z</time></trkpt><trkpt lat="45.38164058687347" lon="12.00433260257795"><ele>6.0</ele><time>2026-04-25T10:27:03Z</time></trkpt><trkpt lat="45.38159214373117" lon="12.004271732918408"><ele>6.0</ele><time>2026-04-25T10:27:04Z</time></trkpt><trkpt lat="45.381541084756904" lon="12.004212029512905"><ele>6.0</ele><time>2026-04-25T10:27:05Z</time></trkpt><trkpt lat="45.38149043063698" lon="12.004151171298401"><ele>5.999999999999999</ele><time>2026-04-25T10:27:06Z</time></trkpt><trkpt lat="45.38143968592967" lon="12.004089939090127"><ele>6.0</ele><time>2026-04-25T10:27:07Z</time></trkpt><trkpt lat="45.38138830676736" lon="12.004034231194504"><ele>6.166666666666667</ele><time>2026-04-25T10:27:08Z</time></trkpt><trkpt lat="45.381337271961236" lon="12.003976866481628"><ele>6.333333333333334</ele><time>2026-04-25T10:27:09Z</time></trkpt><trkpt lat="45.381290443895224" lon="12.00391427683425"><ele>6.5</ele><time>2026-04-25T10:27:10Z</time></trkpt><trkpt lat="45.38125019153162" lon="12.003837586531791"><ele>6.666666666666667</ele><time>2026-04-25T10:27:11Z</time></trkpt><trkpt lat="45.38114896232378" lon="12.003731788696491"><ele>6.833333333333334</ele><time>2026-04-25T10:27:13Z</time></trkpt><trkpt lat="45.38108254287089" lon="12.003693742016656"><ele>7.0</ele><time>2026-04-25T10:27:14Z</time></trkpt><trkpt lat="45.38102514285975" lon="12.00364974489933"><ele>7.000000000000001</ele><time>2026-04-25T10:27:15Z</time></trkpt><trkpt lat="45.38097085790878" lon="12.003597341094178"><ele>7.0</ele><time>2026-04-25T10:27:16Z</time></trkpt><trkpt lat="45.38091504955933" lon="12.003549267227307"><ele>7.0</ele><time>2026-04-25T10:27:17Z</time></trkpt><trkpt lat="45.38085840819994" lon="12.003500319770778"><ele>7.0</ele><time>2026-04-25T10:27:18Z</time></trkpt><trkpt lat="45.38074975420136" lon="12.00342195319902"><ele>7.000000000000001</ele><time>2026-04-25T10:27:20Z</time></trkpt><trkpt lat="45.38064305822623" lon="12.003357943387401"><ele>7.0</ele><time>2026-04-25T10:27:22Z</time></trkpt><trkpt lat="45.38054237651991" lon="12.0032696553476"><ele>6.199999999999999</ele><time>2026-04-25T10:27:24Z</time></trkpt><trkpt lat="45.38041646983461" lon="12.003253413704337"><ele>5.3999999999999995</ele><time>2026-04-25T10:27:26Z</time></trkpt><trkpt lat="45.38035535445332" lon="12.003220338434199"><ele>4.6</ele><time>2026-04-25T10:27:27Z</time></trkpt><trkpt lat="45.38030095947901" lon="12.003173893613722"><ele>3.8</ele><time>2026-04-25T10:27:28Z</time></trkpt><trkpt lat="45.38024506765361" lon="12.003126273211816"><ele>3.0</ele><time>2026-04-25T10:27:29Z</time></trkpt><trkpt lat="45.38014526529847" lon="12.003008522360707"><ele>2.9999999999999996</ele><time>2026-04-25T10:27:31Z</time></trkpt><trkpt lat="45.38008329642247" lon="12.002976851319941"><ele>3.0</ele><time>2026-04-25T10:27:32Z</time></trkpt><trkpt lat="45.38002069551332" lon="12.002938622481432"><ele>3.0</ele><time>2026-04-25T10:27:33Z</time></trkpt><trkpt lat="45.37996300164141" lon="12.002895880067998"><ele>3.0</ele><time>2026-04-25T10:27:34Z</time></trkpt><trkpt lat="45.37990317035966" lon="12.002854320676018"><ele>3.0</ele><time>2026-04-25T10:27:35Z</time></trkpt><trkpt lat="45.37984497350905" lon="12.002812420690677"><ele>2.9999999999999996</ele><time>2026-04-25T10:27:36Z</time></trkpt><trkpt lat="45.37978321583917" lon="12.002772279108912"><ele>3.0</ele><time>2026-04-25T10:27:37Z</time></trkpt><trkpt lat="45.37972461543849" lon="12.002734138060603"><ele>3.2857142857142856</ele><time>2026-04-25T10:27:38Z</time></trkpt><trkpt lat="45.3796668704138" lon="12.002697965936752"><ele>3.571428571428571</ele><time>2026-04-25T10:27:39Z</time></trkpt><trkpt lat="45.379607443690446" lon="12.00265846255465"><ele>3.8571428571428568</ele><time>2026-04-25T10:27:40Z</time></trkpt><trkpt lat="45.37954949029798" lon="12.002620419850656"><ele>4.142857142857142</ele><time>2026-04-25T10:27:41Z</time></trkpt><trkpt lat="45.37949179211226" lon="12.002580959784837"><ele>4.428571428571429</ele><time>2026-04-25T10:27:42Z</time></trkpt><trkpt lat="45.37943075308195" lon="12.002545390031377"><ele>4.714285714285714</ele><time>2026-04-25T10:27:43Z</time></trkpt><trkpt lat="45.37931760888122" lon="12.002463102626335"><ele>5.0</ele><time>2026-04-25T10:27:45Z</time></trkpt><trkpt lat="45.379259767142834" lon="12.002424544730856"><ele>5.2</ele><time>2026-04-25T10:27:46Z</time></trkpt><trkpt lat="45.37920253706928" lon="12.002385353668148"><ele>5.4</ele><time>2026-04-25T10:27:47Z</time></trkpt><trkpt lat="45.379089692592814" lon="12.002309157735201"><ele>5.6</ele><time>2026-04-25T10:27:49Z</time></trkpt><trkpt lat="45.378976124862085" lon="12.002232104728153"><ele>5.8</ele><time>2026-04-25T10:27:51Z</time></trkpt><trkpt lat="45.37891873070466" lon="12.002189568979096"><ele>6.0</ele><time>2026-04-25T10:27:52Z</time></trkpt><trkpt lat="45.3788058270594" lon="12.00211978816925"><ele>5.6</ele><time>2026-04-25T10:27:54Z</time></trkpt><trkpt lat="45.378748448222716" lon="12.002080549897114"><ele>5.199999999999999</ele><time>2026-04-25T10:27:55Z</time></trkpt><trkpt lat="45.37864170025298" lon="12.001999266905173"><ele>4.800000000000001</ele><time>2026-04-25T10:27:57Z</time></trkpt><trkpt lat="45.3785336099728" lon="12.001914587499098"><ele>4.4</ele><time>2026-04-25T10:27:59Z</time></trkpt><trkpt lat="45.378473033221105" lon="12.00188243628834"><ele>4.0</ele><time>2026-04-25T10:28:00Z</time></trkpt><trkpt lat="45.37836181505194" lon="12.00182591622437"><ele>4.0</ele><time>2026-04-25T10:28:02Z</time></trkpt><trkpt lat="45.37824956727006" lon="12.001752161867266"><ele>4.0</ele><time>2026-04-25T10:28:04Z</time></trkpt><trkpt lat="45.378188283180606" lon="12.001718956641021"><ele>4.0</ele><time>2026-04-25T10:28:05Z</time></trkpt><trkpt lat="45.37810107667262" lon="12.001653185567859"><ele>4.0</ele><time>2026-04-25T10:28:07Z</time></trkpt><trkpt lat="45.37799754998733" lon="12.0015787784737"><ele>4.0</ele><time>2026-04-25T10:28:09Z</time></trkpt><trkpt lat="45.377888773359246" lon="12.00151364047153"><ele>4.25</ele><time>2026-04-25T10:28:11Z</time></trkpt><trkpt lat="45.37778495223381" lon="12.00143974181958"><ele>4.5</ele><time>2026-04-25T10:28:13Z</time></trkpt><trkpt lat="45.377674693405936" lon="12.00137320268606"><ele>4.75</ele><time>2026-04-25T10:28:15Z</time></trkpt><trkpt lat="45.37756566409512" lon="12.001301520478215"><ele>5.0</ele><time>2026-04-25T10:28:17Z</time></trkpt><trkpt lat="45.377452171188956" lon="12.0012732181825"><ele>5.0</ele><time>2026-04-25T10:28:19Z</time></trkpt><trkpt lat="45.37733698152977" lon="12.001203504783081"><ele>5.0</ele><time>2026-04-25T10:28:21Z</time></trkpt><trkpt lat="45.37722767145747" lon="12.001131596321603"><ele>5.0</ele><time>2026-04-25T10:28:23Z</time></trkpt><trkpt lat="45.37717116405585" lon="12.00109034258718"><ele>5.0</ele><time>2026-04-25T10:28:24Z</time></trkpt><trkpt lat="45.37706752839376" lon="12.001012513188751"><ele>5.0</ele><time>2026-04-25T10:28:26Z</time></trkpt><trkpt lat="45.37696607273452" lon="12.001005591044503"><ele>4.8</ele><time>2026-04-25T10:28:28Z</time></trkpt><trkpt lat="45.37698013796709" lon="12.00080705996002"><ele>4.6</ele><time>2026-04-25T10:28:29Z</time></trkpt><trkpt lat="45.37700718386654" lon="12.0006377933788"><ele>4.4</ele><time>2026-04-25T10:28:31Z</time></trkpt><trkpt lat="45.37700888620892" lon="12.00054751743033"><ele>4.2</ele><time>2026-04-25T10:28:32Z</time></trkpt><trkpt lat="45.37704759702376" lon="12.00038441896181"><ele>4.0</ele><time>2026-04-25T10:28:34Z</time></trkpt><trkpt lat="45.37709116549741" lon="12.000222376815302"><ele>4.0</ele><time>2026-04-25T10:28:36Z</time></trkpt><trkpt lat="45.377135474335006" lon="12.000063506861776"><ele>4.0</ele><time>2026-04-25T10:28:38Z</time></trkpt><trkpt lat="45.37718242412143" lon="11.999904330128123"><ele>4.0</ele><time>2026-04-25T10:28:40Z</time></trkpt><trkpt lat="45.37723500729586" lon="11.999750088421662"><ele>4.0</ele><time>2026-04-25T10:28:42Z</time></trkpt><trkpt lat="45.37729046641234" lon="11.999598968037237"><ele>4.142857142857142</ele><time>2026-04-25T10:28:44Z</time></trkpt><trkpt lat="45.37734478369595" lon="11.999442797660896"><ele>4.285714285714286</ele><time>2026-04-25T10:28:46Z</time></trkpt><trkpt lat="45.37737533822897" lon="11.999362337959989"><ele>4.428571428571429</ele><time>2026-04-25T10:28:47Z</time></trkpt><trkpt lat="45.37740385048589" lon="11.99928116706744"><ele>4.571428571428571</ele><time>2026-04-25T10:28:48Z</time></trkpt><trkpt lat="45.3774311436509" lon="11.999193463096558"><ele>4.714285714285714</ele><time>2026-04-25T10:28:49Z</time></trkpt><trkpt lat="45.3774601053705" lon="11.999108010517052"><ele>4.857142857142857</ele><time>2026-04-25T10:28:50Z</time></trkpt><trkpt lat="45.377491086294285" lon="11.999027306977847"><ele>5.0</ele><time>2026-04-25T10:28:51Z</time></trkpt><trkpt lat="45.377517111687034" lon="11.998944900155417"><ele>5.166666666666667</ele><time>2026-04-25T10:28:52Z</time></trkpt><trkpt lat="45.37754574941611" lon="11.998863622386331"><ele>5.333333333333334</ele><time>2026-04-25T10:28:53Z</time></trkpt><trkpt lat="45.37759709967015" lon="11.998702922977651"><ele>5.5</ele><time>2026-04-25T10:28:55Z</time></trkpt><trkpt lat="45.37762726387494" lon="11.998623801648693"><ele>5.666666666666667</ele><time>2026-04-25T10:28:56Z</time></trkpt><trkpt lat="45.37765169872865" lon="11.998540762349492"><ele>5.833333333333333</ele><time>2026-04-25T10:28:57Z</time></trkpt><trkpt lat="45.377708856520385" lon="11.998383618493598"><ele>6.0</ele><time>2026-04-25T10:28:59Z</time></trkpt><trkpt lat="45.377771348683225" lon="11.998232437317293"><ele>6.25</ele><time>2026-04-25T10:29:01Z</time></trkpt><trkpt lat="45.377838820534926" lon="11.998089657611652"><ele>6.5</ele><time>2026-04-25T10:29:03Z</time></trkpt><trkpt lat="45.37790336077916" lon="11.997940332270073"><ele>6.75</ele><time>2026-04-25T10:29:05Z</time></trkpt><trkpt lat="45.37797576014475" lon="11.997797678177458"><ele>7.0</ele><time>2026-04-25T10:29:07Z</time></trkpt><trkpt lat="45.3780492850854" lon="11.997650843900107"><ele>6.5</ele><time>2026-04-25T10:29:09Z</time></trkpt><trkpt lat="45.37812652380807" lon="11.997511999823729"><ele>6.0</ele><time>2026-04-25T10:29:11Z</time></trkpt><trkpt lat="45.37819507779973" lon="11.997366786811554"><ele>5.5</ele><time>2026-04-25T10:29:13Z</time></trkpt><trkpt lat="45.378270112577866" lon="11.997234792489913"><ele>5.0</ele><time>2026-04-25T10:29:15Z</time></trkpt><trkpt lat="45.37833858160001" lon="11.997096401364464"><ele>5.0</ele><time>2026-04-25T10:29:17Z</time></trkpt><trkpt lat="45.378408084510475" lon="11.996946652912833"><ele>5.0</ele><time>2026-04-25T10:29:19Z</time></trkpt><trkpt lat="45.378446523194896" lon="11.996873405576123"><ele>5.0</ele><time>2026-04-25T10:29:20Z</time></trkpt><trkpt lat="45.37848927559108" lon="11.996801524863189"><ele>5.0</ele><time>2026-04-25T10:29:21Z</time></trkpt><trkpt lat="45.37852845003396" lon="11.996723598771693"><ele>5.0</ele><time>2026-04-25T10:29:22Z</time></trkpt><trkpt lat="45.37856597527034" lon="11.996642908537865"><ele>5.0</ele><time>2026-04-25T10:29:23Z</time></trkpt><trkpt lat="45.378605893673644" lon="11.996567251839616"><ele>5.0</ele><time>2026-04-25T10:29:24Z</time></trkpt><trkpt lat="45.37864575331276" lon="11.996489210731873"><ele>5.0</ele><time>2026-04-25T10:29:25Z</time></trkpt><trkpt lat="45.378684217992166" lon="11.996409261108779"><ele>5.0</ele><time>2026-04-25T10:29:26Z</time></trkpt><trkpt lat="45.37871959103841" lon="11.996327927050237"><ele>5.0</ele><time>2026-04-25T10:29:27Z</time></trkpt><trkpt lat="45.37875598835407" lon="11.996245950148584"><ele>5.0</ele><time>2026-04-25T10:29:28Z</time></trkpt><trkpt lat="45.37879540143103" lon="11.996167267929328"><ele>5.0</ele><time>2026-04-25T10:29:29Z</time></trkpt><trkpt lat="45.37883578938856" lon="11.996089227345239"><ele>5.0</ele><time>2026-04-25T10:29:30Z</time></trkpt><trkpt lat="45.378876144314866" lon="11.99600783363956"><ele>4.714285714285714</ele><time>2026-04-25T10:29:31Z</time></trkpt><trkpt lat="45.37891666200963" lon="11.9959276923931"><ele>4.428571428571429</ele><time>2026-04-25T10:29:32Z</time></trkpt><trkpt lat="45.378958098664214" lon="11.995850318462605"><ele>4.142857142857142</ele><time>2026-04-25T10:29:33Z</time></trkpt><trkpt lat="45.379003561080864" lon="11.995774214721868"><ele>3.8571428571428568</ele><time>2026-04-25T10:29:34Z</time></trkpt><trkpt lat="45.37904656137767" lon="11.995696865904188"><ele>3.571428571428571</ele><time>2026-04-25T10:29:35Z</time></trkpt><trkpt lat="45.379092853850835" lon="11.995624365336454"><ele>3.2857142857142856</ele><time>2026-04-25T10:29:36Z</time></trkpt><trkpt lat="45.379136987123644" lon="11.995548646084403"><ele>3.0</ele><time>2026-04-25T10:29:37Z</time></trkpt><trkpt lat="45.379182550315484" lon="11.995474957401687"><ele>2.9999999999999996</ele><time>2026-04-25T10:29:38Z</time></trkpt><trkpt lat="45.37922563100999" lon="11.995402831879243"><ele>3.0</ele><time>2026-04-25T10:29:39Z</time></trkpt><trkpt lat="45.37926889533099" lon="11.995331268954468"><ele>3.0</ele><time>2026-04-25T10:29:40Z</time></trkpt><trkpt lat="45.37931245149119" lon="11.995257339727948"><ele>3.0</ele><time>2026-04-25T10:29:41Z</time></trkpt><trkpt lat="45.37935825663618" lon="11.995187491158436"><ele>3.0</ele><time>2026-04-25T10:29:42Z</time></trkpt><trkpt lat="45.379404184016565" lon="11.995122349037919"><ele>2.9999999999999996</ele><time>2026-04-25T10:29:43Z</time></trkpt><trkpt lat="45.37945107079309" lon="11.995052773205849"><ele>3.0</ele><time>2026-04-25T10:29:44Z</time></trkpt><trkpt lat="45.37949679948688" lon="11.99498497225667"><ele>3.4285714285714284</ele><time>2026-04-25T10:29:45Z</time></trkpt><trkpt lat="45.3795416713301" lon="11.994915349214004"><ele>3.8571428571428568</ele><time>2026-04-25T10:29:46Z</time></trkpt><trkpt lat="45.37958892668425" lon="11.994845590015203"><ele>4.285714285714286</ele><time>2026-04-25T10:29:47Z</time></trkpt><trkpt lat="45.379638141659655" lon="11.994775362809783"><ele>4.7142857142857135</ele><time>2026-04-25T10:29:48Z</time></trkpt><trkpt lat="45.379686855948634" lon="11.994704633616797"><ele>5.142857142857142</ele><time>2026-04-25T10:29:49Z</time></trkpt><trkpt lat="45.379734868057476" lon="11.994634736244068"><ele>5.571428571428571</ele><time>2026-04-25T10:29:50Z</time></trkpt><trkpt lat="45.379781242037986" lon="11.994565319868988"><ele>6.0</ele><time>2026-04-25T10:29:51Z</time></trkpt><trkpt lat="45.379828725487855" lon="11.994493671578974"><ele>5.999999999999999</ele><time>2026-04-25T10:29:52Z</time></trkpt><trkpt lat="45.379876532732474" lon="11.99442500552014"><ele>6.0</ele><time>2026-04-25T10:29:53Z</time></trkpt><trkpt lat="45.379923566068335" lon="11.994354862472669"><ele>6.0</ele><time>2026-04-25T10:29:54Z</time></trkpt><trkpt lat="45.379971227916066" lon="11.994284870438642"><ele>6.0</ele><time>2026-04-25T10:29:55Z</time></trkpt><trkpt lat="45.38001462657863" lon="11.994215922115227"><ele>6.0</ele><time>2026-04-25T10:29:56Z</time></trkpt><trkpt lat="45.38006405414234" lon="11.994145314634075"><ele>5.999999999999999</ele><time>2026-04-25T10:29:57Z</time></trkpt><trkpt lat="45.38011042507874" lon="11.994077356981915"><ele>6.0</ele><time>2026-04-25T10:29:58Z</time></trkpt><trkpt lat="45.380155393977866" lon="11.994004735741056"><ele>5.857142857142857</ele><time>2026-04-25T10:29:59Z</time></trkpt><trkpt lat="45.38019722400427" lon="11.993927013987852"><ele>5.714285714285714</ele><time>2026-04-25T10:30:00Z</time></trkpt><trkpt lat="45.3802379951339" lon="11.993849967691569"><ele>5.571428571428571</ele><time>2026-04-25T10:30:01Z</time></trkpt><trkpt lat="45.380279585017064" lon="11.993768226931747"><ele>5.428571428571429</ele><time>2026-04-25T10:30:02Z</time></trkpt><trkpt lat="45.38032336941004" lon="11.993691198451888"><ele>5.285714285714286</ele><time>2026-04-25T10:30:03Z</time></trkpt><trkpt lat="45.38036537690407" lon="11.99361555165612"><ele>5.142857142857142</ele><time>2026-04-25T10:30:04Z</time></trkpt><trkpt lat="45.38040618626109" lon="11.993540291198824"><ele>5.0</ele><time>2026-04-25T10:30:05Z</time></trkpt><trkpt lat="45.380442508505254" lon="11.99346118988193"><ele>5.0</ele><time>2026-04-25T10:30:06Z</time></trkpt><trkpt lat="45.3804787348651" lon="11.993384957775682"><ele>5.0</ele><time>2026-04-25T10:30:07Z</time></trkpt><trkpt lat="45.380556686313135" lon="11.993241601933772"><ele>5.0</ele><time>2026-04-25T10:30:09Z</time></trkpt><trkpt lat="45.38063118527387" lon="11.993105635563355"><ele>5.0</ele><time>2026-04-25T10:30:11Z</time></trkpt><trkpt lat="45.38066889469377" lon="11.993026607985724"><ele>5.0</ele><time>2026-04-25T10:30:12Z</time></trkpt><trkpt lat="45.38073938795986" lon="11.992893016218195"><ele>5.0</ele><time>2026-04-25T10:30:14Z</time></trkpt><trkpt lat="45.380792072708395" lon="11.992838900772496"><ele>5.0</ele><time>2026-04-25T10:30:15Z</time></trkpt><trkpt lat="45.38071173499713" lon="11.992581594137862"><ele>5.0</ele><time>2026-04-25T10:30:19Z</time></trkpt><trkpt lat="45.38058783726666" lon="11.992462722658033"><ele>5.0</ele><time>2026-04-25T10:30:21Z</time></trkpt><trkpt lat="45.38052081222193" lon="11.992402511724421"><ele>5.0</ele><time>2026-04-25T10:30:22Z</time></trkpt><trkpt lat="45.38046643821748" lon="11.99235220099886"><ele>5.0</ele><time>2026-04-25T10:30:23Z</time></trkpt><trkpt lat="45.38041255399179" lon="11.992302343503656"><ele>5.0</ele><time>2026-04-25T10:30:24Z</time></trkpt><trkpt lat="45.38035671345" lon="11.992250675885014"><ele>5.0</ele><time>2026-04-25T10:30:25Z</time></trkpt><trkpt lat="45.38030174593382" lon="11.992199816144769"><ele>5.0</ele><time>2026-04-25T10:30:26Z</time></trkpt><trkpt lat="45.38023951453881" lon="11.992167998156095"><ele>5.0</ele><time>2026-04-25T10:30:27Z</time></trkpt><trkpt lat="45.38013420081161" lon="11.992067715009203"><ele>5.0</ele><time>2026-04-25T10:30:29Z</time></trkpt><trkpt lat="45.3800322896926" lon="11.991965820160491"><ele>5.0</ele><time>2026-04-25T10:30:31Z</time></trkpt><trkpt lat="45.37997793997581" lon="11.991914272953263"><ele>5.0</ele><time>2026-04-25T10:30:32Z</time></trkpt><trkpt lat="45.37987690622367" lon="11.991812282479527"><ele>5.0</ele><time>2026-04-25T10:30:34Z</time></trkpt><trkpt lat="45.37977103588708" lon="11.99171811366292"><ele>5.0</ele><time>2026-04-25T10:30:36Z</time></trkpt><trkpt lat="45.37966731370283" lon="11.99162266830593"><ele>5.4</ele><time>2026-04-25T10:30:38Z</time></trkpt><trkpt lat="45.3795641896743" lon="11.991524517869564"><ele>5.8</ele><time>2026-04-25T10:30:40Z</time></trkpt><trkpt lat="45.37945736738735" lon="11.991428488986541"><ele>6.199999999999999</ele><time>2026-04-25T10:30:42Z</time></trkpt><trkpt lat="45.37940317704876" lon="11.991381736335727"><ele>6.6</ele><time>2026-04-25T10:30:43Z</time></trkpt><trkpt lat="45.37934784879586" lon="11.991336246368402"><ele>7.0</ele><time>2026-04-25T10:30:44Z</time></trkpt><trkpt lat="45.37923604331843" lon="11.99125171425013"><ele>7.0</ele><time>2026-04-25T10:30:46Z</time></trkpt><trkpt lat="45.37917757921492" lon="11.991212658031564"><ele>6.999999999999999</ele><time>2026-04-25T10:30:47Z</time></trkpt><trkpt lat="45.37906107353294" lon="11.991143736855706"><ele>6.999999999999999</ele><time>2026-04-25T10:30:49Z</time></trkpt><trkpt lat="45.3789470421094" lon="11.991081872080427"><ele>7.0</ele><time>2026-04-25T10:30:51Z</time></trkpt><trkpt lat="45.37883189281944" lon="11.991022273025377"><ele>7.0</ele><time>2026-04-25T10:30:53Z</time></trkpt><trkpt lat="45.3787715264952" lon="11.990992153578352"><ele>6.6</ele><time>2026-04-25T10:30:54Z</time></trkpt><trkpt lat="45.37870705174451" lon="11.990966195019714"><ele>6.199999999999999</ele><time>2026-04-25T10:30:55Z</time></trkpt><trkpt lat="45.37858456845402" lon="11.990910651856538"><ele>5.8</ele><time>2026-04-25T10:30:57Z</time></trkpt><trkpt lat="45.37852325729185" lon="11.990885613436491"><ele>5.4</ele><time>2026-04-25T10:30:58Z</time></trkpt><trkpt lat="45.37840543719512" lon="11.99083850001929"><ele>5.0</ele><time>2026-04-25T10:31:00Z</time></trkpt><trkpt lat="45.37828628131423" lon="11.990782852528385"><ele>5.0</ele><time>2026-04-25T10:31:02Z</time></trkpt><trkpt lat="45.3781660296694" lon="11.990734270208405"><ele>5.0</ele><time>2026-04-25T10:31:04Z</time></trkpt><trkpt lat="45.37810512783977" lon="11.990700037109002"><ele>5.0</ele><time>2026-04-25T10:31:05Z</time></trkpt><trkpt lat="45.3780441037019" lon="11.990662959574491"><ele>5.0</ele><time>2026-04-25T10:31:06Z</time></trkpt><trkpt lat="45.37794060344191" lon="11.990560877576293"><ele>5.0</ele><time>2026-04-25T10:31:08Z</time></trkpt><trkpt lat="45.37789226274425" lon="11.990494641345194"><ele>5.166666666666667</ele><time>2026-04-25T10:31:09Z</time></trkpt><trkpt lat="45.377837520534634" lon="11.990443571847782"><ele>5.333333333333334</ele><time>2026-04-25T10:31:10Z</time></trkpt><trkpt lat="45.37777911043036" lon="11.990397730198886"><ele>5.5</ele><time>2026-04-25T10:31:11Z</time></trkpt><trkpt lat="45.377724343220876" lon="11.99035123936313"><ele>5.666666666666667</ele><time>2026-04-25T10:31:12Z</time></trkpt><trkpt lat="45.37767038591578" lon="11.990302278957639"><ele>5.833333333333333</ele><time>2026-04-25T10:31:13Z</time></trkpt><trkpt lat="45.37756833960845" lon="11.990204606083624"><ele>6.0</ele><time>2026-04-25T10:31:15Z</time></trkpt><trkpt lat="45.377463202893885" lon="11.99011033817701"><ele>6.0</ele><time>2026-04-25T10:31:17Z</time></trkpt><trkpt lat="45.377351768106614" lon="11.990029993984326"><ele>6.0</ele><time>2026-04-25T10:31:19Z</time></trkpt><trkpt lat="45.37723858763951" lon="11.989974121133594"><ele>6.0</ele><time>2026-04-25T10:31:21Z</time></trkpt><trkpt lat="45.3771237036555" lon="11.989960373919194"><ele>6.0</ele><time>2026-04-25T10:31:23Z</time></trkpt><trkpt lat="45.37701048235411" lon="11.989932904763442"><ele>6.0</ele><time>2026-04-25T10:31:25Z</time></trkpt><trkpt lat="45.37689065323174" lon="11.989898796231007"><ele>6.0</ele><time>2026-04-25T10:31:27Z</time></trkpt><trkpt lat="45.37676768165562" lon="11.989875618567488"><ele>6.0</ele><time>2026-04-25T10:31:29Z</time></trkpt><trkpt lat="45.376651166327335" lon="11.98984694529355"><ele>6.0</ele><time>2026-04-25T10:31:31Z</time></trkpt><trkpt lat="45.37654266416939" lon="11.989781671144675"><ele>6.0</ele><time>2026-04-25T10:31:33Z</time></trkpt><trkpt lat="45.376422915082316" lon="11.989757987772148"><ele>6.0</ele><time>2026-04-25T10:31:35Z</time></trkpt><trkpt lat="45.376308043985155" lon="11.989727363895527"><ele>6.0</ele><time>2026-04-25T10:31:37Z</time></trkpt><trkpt lat="45.37619427372616" lon="11.98968479940073"><ele>6.0</ele><time>2026-04-25T10:31:39Z</time></trkpt><trkpt lat="45.3760803658153" lon="11.989653814894265"><ele>6.0</ele><time>2026-04-25T10:31:41Z</time></trkpt><trkpt lat="45.375968526343655" lon="11.989616999487337"><ele>6.0</ele><time>2026-04-25T10:31:43Z</time></trkpt><trkpt lat="45.37585567472875" lon="11.989575721799385"><ele>6.0</ele><time>2026-04-25T10:31:45Z</time></trkpt><trkpt lat="45.3757404022086" lon="11.989533991711893"><ele>6.0</ele><time>2026-04-25T10:31:47Z</time></trkpt><trkpt lat="45.37562185286431" lon="11.989484805253138"><ele>6.0</ele><time>2026-04-25T10:31:49Z</time></trkpt><trkpt lat="45.3755107195966" lon="11.989428668301466"><ele>6.0</ele><time>2026-04-25T10:31:51Z</time></trkpt><trkpt lat="45.37540016400869" lon="11.989369163674274"><ele>6.0</ele><time>2026-04-25T10:31:53Z</time></trkpt><trkpt lat="45.375300044702946" lon="11.989283957328174"><ele>6.0</ele><time>2026-04-25T10:31:55Z</time></trkpt><trkpt lat="45.375201994088926" lon="11.989208477335923"><ele>6.166666666666667</ele><time>2026-04-25T10:31:57Z</time></trkpt><trkpt lat="45.37511677453736" lon="11.989122797353165"><ele>6.333333333333334</ele><time>2026-04-25T10:31:59Z</time></trkpt><trkpt lat="45.37505748614713" lon="11.989074648457015"><ele>6.5</ele><time>2026-04-25T10:32:01Z</time></trkpt><trkpt lat="45.37499466071669" lon="11.989001367370564"><ele>6.666666666666667</ele><time>2026-04-25T10:32:05Z</time></trkpt><trkpt lat="45.374943374740035" lon="11.988939240749765"><ele>6.833333333333334</ele><time>2026-04-25T10:32:07Z</time></trkpt><trkpt lat="45.37488558563142" lon="11.988867822242222"><ele>7.0</ele><time>2026-04-25T10:32:09Z</time></trkpt><trkpt lat="45.37481272591502" lon="11.988814197848008"><ele>7.0</ele><time>2026-04-25T10:32:12Z</time></trkpt><trkpt lat="45.374733656489106" lon="11.988847788743197"><ele>6.999999999999999</ele><time>2026-04-25T10:32:19Z</time></trkpt><trkpt lat="45.374656857234385" lon="11.988880457550119"><ele>6.999999999999999</ele><time>2026-04-25T10:32:21Z</time></trkpt><trkpt lat="45.374603626100516" lon="11.988788126945597"><ele>7.0</ele><time>2026-04-25T10:32:22Z</time></trkpt><trkpt lat="45.374536058812524" lon="11.98868766870466"><ele>7.0</ele><time>2026-04-25T10:32:24Z</time></trkpt><trkpt lat="45.37448984748107" lon="11.988551923482575"><ele>6.75</ele><time>2026-04-25T10:32:26Z</time></trkpt><trkpt lat="45.37442269000611" lon="11.988425466276489"><ele>6.5</ele><time>2026-04-25T10:32:28Z</time></trkpt><trkpt lat="45.374331594464195" lon="11.988329873201447"><ele>6.25</ele><time>2026-04-25T10:32:30Z</time></trkpt><trkpt lat="45.37423429166375" lon="11.98823998159836"><ele>6.0</ele><time>2026-04-25T10:32:32Z</time></trkpt><trkpt lat="45.37413286486251" lon="11.988145738535513"><ele>6.333333333333333</ele><time>2026-04-25T10:32:34Z</time></trkpt><trkpt lat="45.37402973670414" lon="11.98804573736705"><ele>6.666666666666666</ele><time>2026-04-25T10:32:36Z</time></trkpt><trkpt lat="45.373924529521446" lon="11.987944360131033"><ele>7.0</ele><time>2026-04-25T10:32:38Z</time></trkpt><trkpt lat="45.373872956275434" lon="11.987887692207373"><ele>7.333333333333333</ele><time>2026-04-25T10:32:39Z</time></trkpt><trkpt lat="45.37382035474613" lon="11.987829751479852"><ele>7.666666666666666</ele><time>2026-04-25T10:32:40Z</time></trkpt><trkpt lat="45.37376749552792" lon="11.987775258943666"><ele>8.0</ele><time>2026-04-25T10:32:41Z</time></trkpt><trkpt lat="45.373712730438726" lon="11.987722366462194"><ele>7.499999999999999</ele><time>2026-04-25T10:32:42Z</time></trkpt><trkpt lat="45.37365919331167" lon="11.987668625705608"><ele>7.0</ele><time>2026-04-25T10:32:43Z</time></trkpt><trkpt lat="45.37360514668158" lon="11.987614024660266"><ele>6.5</ele><time>2026-04-25T10:32:44Z</time></trkpt><trkpt lat="45.37355201200326" lon="11.987564169315116"><ele>6.0</ele><time>2026-04-25T10:32:45Z</time></trkpt><trkpt lat="45.373451100150874" lon="11.987456783467188"><ele>5.5</ele><time>2026-04-25T10:32:47Z</time></trkpt><trkpt lat="45.37336667549769" lon="11.987326796373369"><ele>5.0</ele><time>2026-04-25T10:32:49Z</time></trkpt><trkpt lat="45.373333314073335" lon="11.987245284951277"><ele>5.0</ele><time>2026-04-25T10:32:50Z</time></trkpt><trkpt lat="45.373300377587874" lon="11.987167689565757"><ele>5.0</ele><time>2026-04-25T10:32:51Z</time></trkpt><trkpt lat="45.37326490140884" lon="11.987088563085859"><ele>5.0</ele><time>2026-04-25T10:32:52Z</time></trkpt><trkpt lat="45.37321591773811" lon="11.987020995503629"><ele>5.0</ele><time>2026-04-25T10:32:53Z</time></trkpt><trkpt lat="45.37315672362081" lon="11.986968579885852"><ele>5.0</ele><time>2026-04-25T10:32:54Z</time></trkpt><trkpt lat="45.37309229032229" lon="11.986935528958725"><ele>5.0</ele><time>2026-04-25T10:32:55Z</time></trkpt><trkpt lat="45.373025625720764" lon="11.986915765765858"><ele>5.0</ele><time>2026-04-25T10:32:56Z</time></trkpt><trkpt lat="45.372957632369534" lon="11.986899914377691"><ele>4.833333333333334</ele><time>2026-04-25T10:32:57Z</time></trkpt><trkpt lat="45.37289172683543" lon="11.986874362826056"><ele>4.666666666666667</ele><time>2026-04-25T10:32:58Z</time></trkpt><trkpt lat="45.37283109149806" lon="11.986831983930179"><ele>4.5</ele><time>2026-04-25T10:32:59Z</time></trkpt><trkpt lat="45.37277838545045" lon="11.986775531443788"><ele>4.333333333333333</ele><time>2026-04-25T10:33:00Z</time></trkpt><trkpt lat="45.37272840591614" lon="11.986718539642865"><ele>4.166666666666666</ele><time>2026-04-25T10:33:01Z</time></trkpt><trkpt lat="45.372635229290495" lon="11.98660558650762"><ele>4.0</ele><time>2026-04-25T10:33:03Z</time></trkpt><trkpt lat="45.37256699132069" lon="11.986460534092455"><ele>4.0</ele><time>2026-04-25T10:33:05Z</time></trkpt><trkpt lat="45.372539140013956" lon="11.986377101806195"><ele>3.9999999999999996</ele><time>2026-04-25T10:33:06Z</time></trkpt><trkpt lat="45.372506734257584" lon="11.986295715160553"><ele>4.0</ele><time>2026-04-25T10:33:07Z</time></trkpt><trkpt lat="45.37243591112782" lon="11.98627641874363"><ele>4.0</ele><time>2026-04-25T10:33:08Z</time></trkpt><trkpt lat="45.37236821749223" lon="11.986270572943972"><ele>3.9999999999999996</ele><time>2026-04-25T10:33:09Z</time></trkpt><trkpt lat="45.37230303588597" lon="11.986261892142915"><ele>4.0</ele><time>2026-04-25T10:33:10Z</time></trkpt><trkpt lat="45.37224490301734" lon="11.986213848423096"><ele>4.0</ele><time>2026-04-25T10:33:11Z</time></trkpt><trkpt lat="45.372195477358915" lon="11.986152631581254"><ele>4.333333333333333</ele><time>2026-04-25T10:33:12Z</time></trkpt><trkpt lat="45.37214527666834" lon="11.986091909284585"><ele>4.666666666666666</ele><time>2026-04-25T10:33:13Z</time></trkpt><trkpt lat="45.37209086669471" lon="11.986036991148413"><ele>5.0</ele><time>2026-04-25T10:33:14Z</time></trkpt><trkpt lat="45.37203893512974" lon="11.98597932754436"><ele>5.333333333333333</ele><time>2026-04-25T10:33:15Z</time></trkpt><trkpt lat="45.371935780255676" lon="11.985872738920063"><ele>5.666666666666667</ele><time>2026-04-25T10:33:17Z</time></trkpt><trkpt lat="45.37188571324169" lon="11.985816953346134"><ele>6.0</ele><time>2026-04-25T10:33:18Z</time></trkpt><trkpt lat="45.37183542946198" lon="11.985762125283024"><ele>5.999999999999999</ele><time>2026-04-25T10:33:19Z</time></trkpt><trkpt lat="45.371785042456324" lon="11.985706627072137"><ele>6.0</ele><time>2026-04-25T10:33:20Z</time></trkpt><trkpt lat="45.37173416129066" lon="11.985652547874103"><ele>6.0</ele><time>2026-04-25T10:33:21Z</time></trkpt><trkpt lat="45.371678953163546" lon="11.985601319530803"><ele>6.0</ele><time>2026-04-25T10:33:22Z</time></trkpt><trkpt lat="45.371625296958044" lon="11.985550054117642"><ele>6.0</ele><time>2026-04-25T10:33:23Z</time></trkpt><trkpt lat="45.37157055671925" lon="11.985494803656184"><ele>5.999999999999999</ele><time>2026-04-25T10:33:24Z</time></trkpt><trkpt lat="45.371517970194446" lon="11.985440957184135"><ele>6.0</ele><time>2026-04-25T10:33:25Z</time></trkpt><trkpt lat="45.37146411058744" lon="11.985388688455823"><ele>5.999999999999999</ele><time>2026-04-25T10:33:26Z</time></trkpt><trkpt lat="45.37140928576696" lon="11.985333090645653"><ele>6.0</ele><time>2026-04-25T10:33:27Z</time></trkpt><trkpt lat="45.37135705088025" lon="11.985279088736215"><ele>6.0</ele><time>2026-04-25T10:33:28Z</time></trkpt><trkpt lat="45.37130199047675" lon="11.985229420232365"><ele>6.0</ele><time>2026-04-25T10:33:29Z</time></trkpt><trkpt lat="45.3712486621718" lon="11.985174921720697"><ele>6.0</ele><time>2026-04-25T10:33:30Z</time></trkpt><trkpt lat="45.371196137451605" lon="11.985123572498509"><ele>5.999999999999999</ele><time>2026-04-25T10:33:31Z</time></trkpt><trkpt lat="45.37114076824744" lon="11.985074326564602"><ele>6.0</ele><time>2026-04-25T10:33:32Z</time></trkpt><trkpt lat="45.37108558944679" lon="11.985019175508452"><ele>6.6</ele><time>2026-04-25T10:33:33Z</time></trkpt><trkpt lat="45.37103227481079" lon="11.984969837551372"><ele>7.199999999999999</ele><time>2026-04-25T10:33:34Z</time></trkpt><trkpt lat="45.37093165835084" lon="11.984860534932091"><ele>7.800000000000001</ele><time>2026-04-25T10:33:36Z</time></trkpt><trkpt lat="45.37088428488416" lon="11.984795966837812"><ele>8.4</ele><time>2026-04-25T10:33:37Z</time></trkpt><trkpt lat="45.37083232496227" lon="11.984729895549258"><ele>9.0</ele><time>2026-04-25T10:33:38Z</time></trkpt><trkpt lat="45.37074242103693" lon="11.984601381946035"><ele>9.0</ele><time>2026-04-25T10:33:40Z</time></trkpt><trkpt lat="45.37069730205181" lon="11.984533812635688"><ele>9.0</ele><time>2026-04-25T10:33:41Z</time></trkpt><trkpt lat="45.370653292545526" lon="11.984465150224088"><ele>9.0</ele><time>2026-04-25T10:33:42Z</time></trkpt><trkpt lat="45.370572306662794" lon="11.984331841206506"><ele>9.0</ele><time>2026-04-25T10:33:44Z</time></trkpt><trkpt lat="45.37049487846575" lon="11.9842042192228"><ele>9.0</ele><time>2026-04-25T10:33:46Z</time></trkpt><trkpt lat="45.37043037328786" lon="11.984103125372323"><ele>9.0</ele><time>2026-04-25T10:33:48Z</time></trkpt><trkpt lat="45.370380999681736" lon="11.984012635288506"><ele>9.0</ele><time>2026-04-25T10:33:54Z</time></trkpt><trkpt lat="45.37032147701177" lon="11.98391137351596"><ele>9.0</ele><time>2026-04-25T10:33:58Z</time></trkpt><trkpt lat="45.37026344514929" lon="11.983815331020237"><ele>9.0</ele><time>2026-04-25T10:34:01Z</time></trkpt><trkpt lat="45.37011932918273" lon="11.983821037948235"><ele>9.0</ele><time>2026-04-25T10:34:04Z</time></trkpt><trkpt lat="45.37001906743781" lon="11.983888632415855"><ele>9.0</ele><time>2026-04-25T10:34:06Z</time></trkpt><trkpt lat="45.36990367398224" lon="11.983960036544513"><ele>9.0</ele><time>2026-04-25T10:34:08Z</time></trkpt><trkpt lat="45.36984662879713" lon="11.984000158325774"><ele>9.0</ele><time>2026-04-25T10:34:09Z</time></trkpt><trkpt lat="45.36978576072501" lon="11.984033601208504"><ele>9.0</ele><time>2026-04-25T10:34:10Z</time></trkpt><trkpt lat="45.3697273152222" lon="11.984073928897969"><ele>9.0</ele><time>2026-04-25T10:34:11Z</time></trkpt><trkpt lat="45.369668287556344" lon="11.984110608993976"><ele>9.0</ele><time>2026-04-25T10:34:12Z</time></trkpt><trkpt lat="45.36954642994537" lon="11.984192713914087"><ele>9.000000000000002</ele><time>2026-04-25T10:34:14Z</time></trkpt><trkpt lat="45.36948307259109" lon="11.984229225368525"><ele>9.0</ele><time>2026-04-25T10:34:15Z</time></trkpt><trkpt lat="45.36942005087575" lon="11.98427573030082"><ele>9.0</ele><time>2026-04-25T10:34:16Z</time></trkpt><trkpt lat="45.36935800683534" lon="11.984312632894783"><ele>9.0</ele><time>2026-04-25T10:34:17Z</time></trkpt><trkpt lat="45.369294987835026" lon="11.984354259899062"><ele>9.0</ele><time>2026-04-25T10:34:18Z</time></trkpt><trkpt lat="45.36923104844911" lon="11.984394015193397"><ele>9.000000000000002</ele><time>2026-04-25T10:34:19Z</time></trkpt><trkpt lat="45.369164488802575" lon="11.98443374231812"><ele>9.0</ele><time>2026-04-25T10:34:20Z</time></trkpt><trkpt lat="45.36910060480592" lon="11.984471077967214"><ele>9.000000000000002</ele><time>2026-04-25T10:34:21Z</time></trkpt><trkpt lat="45.36903846287891" lon="11.984509712523344"><ele>9.0</ele><time>2026-04-25T10:34:22Z</time></trkpt><trkpt lat="45.368975343179336" lon="11.984542438357694"><ele>9.0</ele><time>2026-04-25T10:34:23Z</time></trkpt><trkpt lat="45.3689142700934" lon="11.984585807097071"><ele>9.0</ele><time>2026-04-25T10:34:24Z</time></trkpt><trkpt lat="45.368851705119276" lon="11.984622244952618"><ele>9.0</ele><time>2026-04-25T10:34:25Z</time></trkpt><trkpt lat="45.36878803911879" lon="11.98465924890607"><ele>9.000000000000002</ele><time>2026-04-25T10:34:26Z</time></trkpt><trkpt lat="45.36872553193405" lon="11.984702823830899"><ele>9.0</ele><time>2026-04-25T10:34:27Z</time></trkpt><trkpt lat="45.36866545536485" lon="11.98474124613275"><ele>9.142857142857144</ele><time>2026-04-25T10:34:28Z</time></trkpt><trkpt lat="45.36860181195943" lon="11.98477812672604"><ele>9.285714285714286</ele><time>2026-04-25T10:34:29Z</time></trkpt><trkpt lat="45.36854141837003" lon="11.98480880734955"><ele>9.428571428571429</ele><time>2026-04-25T10:34:30Z</time></trkpt><trkpt lat="45.36848138368452" lon="11.984843682639278"><ele>9.571428571428573</ele><time>2026-04-25T10:34:31Z</time></trkpt><trkpt lat="45.368422744089855" lon="11.984882627779212"><ele>9.714285714285715</ele><time>2026-04-25T10:34:32Z</time></trkpt><trkpt lat="45.3683638741148" lon="11.984921014626067"><ele>9.857142857142858</ele><time>2026-04-25T10:34:33Z</time></trkpt><trkpt lat="45.36830327480631" lon="11.984958617943398"><ele>10.0</ele><time>2026-04-25T10:34:34Z</time></trkpt><trkpt lat="45.368190138036205" lon="11.985030524199997"><ele>9.6</ele><time>2026-04-25T10:34:36Z</time></trkpt><trkpt lat="45.36807770796388" lon="11.985101177703188"><ele>9.2</ele><time>2026-04-25T10:34:38Z</time></trkpt><trkpt lat="45.367973331934664" lon="11.985166597573395"><ele>8.8</ele><time>2026-04-25T10:34:40Z</time></trkpt><trkpt lat="45.36791016661274" lon="11.985198007839267"><ele>8.4</ele><time>2026-04-25T10:34:41Z</time></trkpt><trkpt lat="45.36785108026304" lon="11.985229135717306"><ele>8.0</ele><time>2026-04-25T10:34:42Z</time></trkpt><trkpt lat="45.36773669501605" lon="11.985298778666916"><ele>7.75</ele><time>2026-04-25T10:34:44Z</time></trkpt><trkpt lat="45.367625733431154" lon="11.985357371547357"><ele>7.5</ele><time>2026-04-25T10:34:46Z</time></trkpt><trkpt lat="45.367510942852945" lon="11.985426301939523"><ele>7.25</ele><time>2026-04-25T10:34:48Z</time></trkpt><trkpt lat="45.36739802042462" lon="11.985491967980723"><ele>7.0</ele><time>2026-04-25T10:34:50Z</time></trkpt><trkpt lat="45.36728144587724" lon="11.985559273576893"><ele>7.0</ele><time>2026-04-25T10:34:52Z</time></trkpt><trkpt lat="45.36717143433452" lon="11.985635392591377"><ele>7.0</ele><time>2026-04-25T10:34:54Z</time></trkpt><trkpt lat="45.36706432700581" lon="11.985713430643376"><ele>7.0</ele><time>2026-04-25T10:34:56Z</time></trkpt><trkpt lat="45.36695630623742" lon="11.98578559294539"><ele>7.0</ele><time>2026-04-25T10:34:58Z</time></trkpt><trkpt lat="45.36685113582522" lon="11.98585403151273"><ele>7.0</ele><time>2026-04-25T10:35:00Z</time></trkpt><trkpt lat="45.36674553242841" lon="11.985922375554265"><ele>7.0</ele><time>2026-04-25T10:35:02Z</time></trkpt><trkpt lat="45.36663649527481" lon="11.985997070504263"><ele>7.0</ele><time>2026-04-25T10:35:04Z</time></trkpt><trkpt lat="45.366536644909154" lon="11.986076440923542"><ele>7.0</ele><time>2026-04-25T10:35:06Z</time></trkpt><trkpt lat="45.3664387551608" lon="11.986163824894016"><ele>7.25</ele><time>2026-04-25T10:35:08Z</time></trkpt><trkpt lat="45.36634088698536" lon="11.986255511807776"><ele>7.5</ele><time>2026-04-25T10:35:10Z</time></trkpt><trkpt lat="45.366242243578945" lon="11.986347462515996"><ele>7.75</ele><time>2026-04-25T10:35:12Z</time></trkpt><trkpt lat="45.366143101070435" lon="11.986442326931943"><ele>8.0</ele><time>2026-04-25T10:35:14Z</time></trkpt><trkpt lat="45.3660446123774" lon="11.986541696001899"><ele>8.0</ele><time>2026-04-25T10:35:16Z</time></trkpt><trkpt lat="45.36595246761695" lon="11.986635457061142"><ele>8.0</ele><time>2026-04-25T10:35:18Z</time></trkpt><trkpt lat="45.36586738689946" lon="11.98674034994805"><ele>8.0</ele><time>2026-04-25T10:35:20Z</time></trkpt><trkpt lat="45.36578356779804" lon="11.986835900087254"><ele>8.0</ele><time>2026-04-25T10:35:22Z</time></trkpt><trkpt lat="45.36569582336553" lon="11.986933681196549"><ele>8.0</ele><time>2026-04-25T10:35:24Z</time></trkpt><trkpt lat="45.365612507669695" lon="11.987045820764743"><ele>7.800000000000001</ele><time>2026-04-25T10:35:26Z</time></trkpt><trkpt lat="45.36553848486969" lon="11.987146413964213"><ele>7.6000000000000005</ele><time>2026-04-25T10:35:28Z</time></trkpt><trkpt lat="45.365432332024895" lon="11.987273832391015"><ele>7.3999999999999995</ele><time>2026-04-25T10:35:31Z</time></trkpt><trkpt lat="45.365355392211676" lon="11.987216471040814"><ele>7.199999999999999</ele><time>2026-04-25T10:35:33Z</time></trkpt><trkpt lat="45.365271878249516" lon="11.987117663427187"><ele>7.0</ele><time>2026-04-25T10:35:35Z</time></trkpt><trkpt lat="45.36519717796475" lon="11.987010479238094"><ele>7.0</ele><time>2026-04-25T10:35:37Z</time></trkpt><trkpt lat="45.36511008235432" lon="11.986904793358574"><ele>7.0</ele><time>2026-04-25T10:35:39Z</time></trkpt><trkpt lat="45.36502077130122" lon="11.986795056850587"><ele>7.0</ele><time>2026-04-25T10:35:41Z</time></trkpt><trkpt lat="45.36494260008375" lon="11.986667614169837"><ele>7.0</ele><time>2026-04-25T10:35:43Z</time></trkpt><trkpt lat="45.364847808917375" lon="11.986568916228258"><ele>7.0</ele><time>2026-04-25T10:35:45Z</time></trkpt><trkpt lat="45.36476459119496" lon="11.986463209930118"><ele>7.0</ele><time>2026-04-25T10:35:47Z</time></trkpt><trkpt lat="45.36468047556573" lon="11.986351119007598"><ele>7.0</ele><time>2026-04-25T10:35:49Z</time></trkpt><trkpt lat="45.36459414651663" lon="11.98625695814703"><ele>7.0</ele><time>2026-04-25T10:35:51Z</time></trkpt><trkpt lat="45.364505287815824" lon="11.986147346651018"><ele>7.0</ele><time>2026-04-25T10:35:53Z</time></trkpt><trkpt lat="45.364412455816954" lon="11.986042766852405"><ele>7.0</ele><time>2026-04-25T10:35:55Z</time></trkpt><trkpt lat="45.36431721673333" lon="11.985936134190181"><ele>7.0</ele><time>2026-04-25T10:35:57Z</time></trkpt><trkpt lat="45.36421932937805" lon="11.985836825874799"><ele>7.0</ele><time>2026-04-25T10:35:59Z</time></trkpt><trkpt lat="45.36412174055934" lon="11.985737350056418"><ele>7.0</ele><time>2026-04-25T10:36:01Z</time></trkpt><trkpt lat="45.364025146592475" lon="11.985639403101864"><ele>7.0</ele><time>2026-04-25T10:36:03Z</time></trkpt><trkpt lat="45.363932727217076" lon="11.985533760708693"><ele>7.0</ele><time>2026-04-25T10:36:05Z</time></trkpt><trkpt lat="45.363835301669766" lon="11.985441459962805"><ele>7.0</ele><time>2026-04-25T10:36:07Z</time></trkpt><trkpt lat="45.36374505787842" lon="11.985333803589773"><ele>7.0</ele><time>2026-04-25T10:36:09Z</time></trkpt><trkpt lat="45.36369376160379" lon="11.985196204585545"><ele>6.999999999999999</ele><time>2026-04-25T10:36:11Z</time></trkpt><trkpt lat="45.36374380455361" lon="11.985062023482225"><ele>6.999999999999999</ele><time>2026-04-25T10:36:13Z</time></trkpt><trkpt lat="45.363810337554916" lon="11.984931027567555"><ele>7.0</ele><time>2026-04-25T10:36:15Z</time></trkpt><trkpt lat="45.363885476556995" lon="11.98480411139638"><ele>7.0</ele><time>2026-04-25T10:36:17Z</time></trkpt><trkpt lat="45.36395745253195" lon="11.984680793263491"><ele>7.0</ele><time>2026-04-25T10:36:19Z</time></trkpt><trkpt lat="45.36402521292812" lon="11.984547820365997"><ele>7.0</ele><time>2026-04-25T10:36:21Z</time></trkpt><trkpt lat="45.364099176281044" lon="11.984426270394342"><ele>7.0</ele><time>2026-04-25T10:36:23Z</time></trkpt><trkpt lat="45.36417294744518" lon="11.984301690610117"><ele>7.0</ele><time>2026-04-25T10:36:25Z</time></trkpt><trkpt lat="45.3642490290198" lon="11.984174272315816"><ele>7.0</ele><time>2026-04-25T10:36:27Z</time></trkpt><trkpt lat="45.36433004358242" lon="11.984057906018066"><ele>6.999999999999999</ele><time>2026-04-25T10:36:29Z</time></trkpt><trkpt lat="45.36440614660257" lon="11.983929546369117"><ele>6.999999999999999</ele><time>2026-04-25T10:36:31Z</time></trkpt><trkpt lat="45.364492268542" lon="11.983799417969179"><ele>7.0</ele><time>2026-04-25T10:36:33Z</time></trkpt><trkpt lat="45.36453024747667" lon="11.983727806511522"><ele>7.0</ele><time>2026-04-25T10:36:34Z</time></trkpt><trkpt lat="45.36461900130661" lon="11.98356775043288"><ele>7.0</ele><time>2026-04-25T10:36:36Z</time></trkpt><trkpt lat="45.36464681288164" lon="11.983480836522439"><ele>6.999999999999999</ele><time>2026-04-25T10:36:37Z</time></trkpt><trkpt lat="45.364736322502914" lon="11.983394613767105"><ele>6.999999999999999</ele><time>2026-04-25T10:36:39Z</time></trkpt><trkpt lat="45.364822158386765" lon="11.983267421178542"><ele>7.0</ele><time>2026-04-25T10:36:41Z</time></trkpt><trkpt lat="45.36489961131853" lon="11.983144011185523"><ele>7.0</ele><time>2026-04-25T10:36:43Z</time></trkpt><trkpt lat="45.364977693862926" lon="11.983027928778203"><ele>7.0</ele><time>2026-04-25T10:36:45Z</time></trkpt><trkpt lat="45.36505552940166" lon="11.982910238956077"><ele>6.999999999999999</ele><time>2026-04-25T10:36:47Z</time></trkpt><trkpt lat="45.36513473888175" lon="11.98281495763995"><ele>6.999999999999999</ele><time>2026-04-25T10:36:49Z</time></trkpt><trkpt lat="45.36520491387993" lon="11.982702188966977"><ele>7.0</ele><time>2026-04-25T10:36:51Z</time></trkpt><trkpt lat="45.36526403844992" lon="11.98259941711301"><ele>7.0</ele><time>2026-04-25T10:36:53Z</time></trkpt><trkpt lat="45.365322116326695" lon="11.98253937170188"><ele>7.0</ele><time>2026-04-25T10:36:55Z</time></trkpt><trkpt lat="45.36536201791728" lon="11.982454234918995"><ele>6.999999999999999</ele><time>2026-04-25T10:36:59Z</time></trkpt><trkpt lat="45.36543109250348" lon="11.982358244196337"><ele>6.999999999999999</ele><time>2026-04-25T10:37:02Z</time></trkpt><trkpt lat="45.36535613119176" lon="11.982100816727497"><ele>7.0</ele><time>2026-04-25T10:37:05Z</time></trkpt><trkpt lat="45.36537700336088" lon="11.981985866398198"><ele>7.0</ele><time>2026-04-25T10:37:08Z</time></trkpt><trkpt lat="45.36541772268189" lon="11.981914951964116"><ele>7.0</ele><time>2026-04-25T10:37:11Z</time></trkpt><trkpt lat="45.36547910494889" lon="11.981854087165472"><ele>7.0</ele><time>2026-04-25T10:38:35Z</time></trkpt><trkpt lat="45.36543438634405" lon="11.981724272128751"><ele>7.0</ele><time>2026-04-25T10:43:32Z</time></trkpt><trkpt lat="45.36551322541856" lon="11.981719224424616"><ele>7.0</ele><time>2026-04-25T10:44:42Z</time></trkpt><trkpt lat="45.365523902024016" lon="11.981618433839206"><ele>5.0</ele><time>2026-04-25T10:45:04Z</time></trkpt><trkpt lat="45.36551078897854" lon="11.981513686136415"><ele>5.0</ele><time>2026-04-25T10:45:10Z</time></trkpt></trkseg></trk></gpx>